<?xml version="1.0" encoding="UTF-8" standalone="no" ?>
<gpx xmlns="http://www.topografix.com/GPX/1/1" xmlns:xsi="http://www.w3.org/2001/XMLSchema-instance" xsi:schemaLocation="http://www.topografix.com/GPX/1/1 http://www.topografix.com/GPX/1/1/gpx.xsd" version="1.1" creator="VisuGPX - https://www.visugpx.com">
  <metadata>
    <name>#09 P4T2 St Crépin Réotier</name>
  </metadata>
  <trk>
    <name><![CDATA[#09 P4T2 St Crépin Réotier]]></name>
    <trkseg>
      <trkpt lat="44.6593" lon="6.64017">
        <ele>951.363172</ele>
        <time>2026-08-17T11:09:41Z</time>
      </trkpt>
      <trkpt lat="44.65908" lon="6.64017">
        <ele>951.363172</ele>
        <time>2026-08-17T11:09:45Z</time>
      </trkpt>
      <trkpt lat="44.65881" lon="6.6403">
        <ele>951.363172</ele>
        <time>2026-08-17T11:09:49Z</time>
      </trkpt>
      <trkpt lat="44.65871" lon="6.64023">
        <ele>951.363172</ele>
        <time>2026-08-17T11:09:51Z</time>
      </trkpt>
      <trkpt lat="44.65866" lon="6.64002">
        <ele>951.363172</ele>
        <time>2026-08-17T11:09:53Z</time>
      </trkpt>
      <trkpt lat="44.65867" lon="6.63964">
        <ele>951.118862</ele>
        <time>2026-08-17T11:09:57Z</time>
      </trkpt>
      <trkpt lat="44.65865" lon="6.63929">
        <ele>950.709705</ele>
        <time>2026-08-17T11:10:01Z</time>
      </trkpt>
      <trkpt lat="44.65845" lon="6.63831">
        <ele>949.523351</ele>
        <time>2026-08-17T11:10:12Z</time>
      </trkpt>
      <trkpt lat="44.65866" lon="6.63839">
        <ele>949.166984</ele>
        <time>2026-08-17T11:10:15Z</time>
      </trkpt>
      <trkpt lat="44.65895" lon="6.6385">
        <ele>948.684613</ele>
        <time>2026-08-17T11:10:21Z</time>
      </trkpt>
      <trkpt lat="44.65914" lon="6.63848">
        <ele>948.448211</ele>
        <time>2026-08-17T11:10:25Z</time>
      </trkpt>
      <trkpt lat="44.65921" lon="6.63837">
        <ele>948.513173</ele>
        <time>2026-08-17T11:10:27Z</time>
      </trkpt>
      <trkpt lat="44.65925" lon="6.63823">
        <ele>948.572494</ele>
        <time>2026-08-17T11:10:30Z</time>
      </trkpt>
      <trkpt lat="44.65946" lon="6.63788">
        <ele>948.764719</ele>
        <time>2026-08-17T11:10:38Z</time>
      </trkpt>
      <trkpt lat="44.65952" lon="6.63776">
        <ele>948.827989</ele>
        <time>2026-08-17T11:10:42Z</time>
      </trkpt>
      <trkpt lat="44.65957" lon="6.63771">
        <ele>948.864916</ele>
        <time>2026-08-17T11:10:45Z</time>
      </trkpt>
      <trkpt lat="44.65965" lon="6.63769">
        <ele>948.909955</ele>
        <time>2026-08-17T11:10:48Z</time>
      </trkpt>
      <trkpt lat="44.65967" lon="6.63771">
        <ele>948.926131</ele>
        <time>2026-08-17T11:10:49Z</time>
      </trkpt>
      <trkpt lat="44.65963" lon="6.63791">
        <ele>949.011754</ele>
        <time>2026-08-17T11:10:54Z</time>
      </trkpt>
      <trkpt lat="44.65964" lon="6.63806">
        <ele>949.074928</ele>
        <time>2026-08-17T11:10:58Z</time>
      </trkpt>
      <trkpt lat="44.65971" lon="6.63797">
        <ele>949.134192</ele>
        <time>2026-08-17T11:11:02Z</time>
      </trkpt>
      <trkpt lat="44.65986" lon="6.63792">
        <ele>949.223193</ele>
        <time>2026-08-17T11:11:08Z</time>
      </trkpt>
      <trkpt lat="44.6599" lon="6.63765">
        <ele>949.339609</ele>
        <time>2026-08-17T11:11:12Z</time>
      </trkpt>
      <trkpt lat="44.65988" lon="6.63729">
        <ele>949.476155</ele>
        <time>2026-08-17T11:11:17Z</time>
      </trkpt>
      <trkpt lat="44.65984" lon="6.63711">
        <ele>949.152477</ele>
        <time>2026-08-17T11:11:20Z</time>
      </trkpt>
      <trkpt lat="44.65972" lon="6.63681">
        <ele>948.546919</ele>
        <time>2026-08-17T11:11:24Z</time>
      </trkpt>
      <trkpt lat="44.6592" lon="6.63557">
        <ele>946.002817</ele>
        <time>2026-08-17T11:11:40Z</time>
      </trkpt>
      <trkpt lat="44.65911" lon="6.63552">
        <ele>945.763414</ele>
        <time>2026-08-17T11:11:41Z</time>
      </trkpt>
      <trkpt lat="44.65906" lon="6.63545">
        <ele>945.590634</ele>
        <time>2026-08-17T11:11:43Z</time>
      </trkpt>
      <trkpt lat="44.6589" lon="6.63505">
        <ele>944.512534</ele>
        <time>2026-08-17T11:11:49Z</time>
      </trkpt>
      <trkpt lat="44.65872" lon="6.63474">
        <ele>942.998007</ele>
        <time>2026-08-17T11:11:54Z</time>
      </trkpt>
      <trkpt lat="44.65861" lon="6.6343">
        <ele>941.29088</ele>
        <time>2026-08-17T11:12:00Z</time>
      </trkpt>
      <trkpt lat="44.65861" lon="6.63422">
        <ele>940.966155</ele>
        <time>2026-08-17T11:12:01Z</time>
      </trkpt>
      <trkpt lat="44.65855" lon="6.63408">
        <ele>940.375235</ele>
        <time>2026-08-17T11:12:02Z</time>
      </trkpt>
      <trkpt lat="44.65845" lon="6.63376">
        <ele>939.035327</ele>
        <time>2026-08-17T11:12:06Z</time>
      </trkpt>
      <trkpt lat="44.65841" lon="6.63358">
        <ele>938.361903</ele>
        <time>2026-08-17T11:12:07Z</time>
      </trkpt>
      <trkpt lat="44.6584" lon="6.63341">
        <ele>937.725296</ele>
        <time>2026-08-17T11:12:09Z</time>
      </trkpt>
      <trkpt lat="44.65842" lon="6.63321">
        <ele>936.942665</ele>
        <time>2026-08-17T11:12:11Z</time>
      </trkpt>
      <trkpt lat="44.65847" lon="6.63301">
        <ele>936.163371</ele>
        <time>2026-08-17T11:12:13Z</time>
      </trkpt>
      <trkpt lat="44.65853" lon="6.63285">
        <ele>935.505719</ele>
        <time>2026-08-17T11:12:15Z</time>
      </trkpt>
      <trkpt lat="44.65894" lon="6.63227">
        <ele>933.112577</ele>
        <time>2026-08-17T11:12:23Z</time>
      </trkpt>
      <trkpt lat="44.659" lon="6.63236">
        <ele>932.747428</ele>
        <time>2026-08-17T11:12:25Z</time>
      </trkpt>
      <trkpt lat="44.65938" lon="6.63169">
        <ele>930.25454</ele>
        <time>2026-08-17T11:12:35Z</time>
      </trkpt>
      <trkpt lat="44.65965" lon="6.63092">
        <ele>927.676651</ele>
        <time>2026-08-17T11:12:44Z</time>
      </trkpt>
      <trkpt lat="44.65968" lon="6.63081">
        <ele>927.304732</ele>
        <time>2026-08-17T11:12:45Z</time>
      </trkpt>
      <trkpt lat="44.65976" lon="6.63046">
        <ele>926.104077</ele>
        <time>2026-08-17T11:12:49Z</time>
      </trkpt>
      <trkpt lat="44.65978" lon="6.63039">
        <ele>925.856205</ele>
        <time>2026-08-17T11:12:50Z</time>
      </trkpt>
      <trkpt lat="44.65982" lon="6.63005">
        <ele>924.729537</ele>
        <time>2026-08-17T11:12:53Z</time>
      </trkpt>
      <trkpt lat="44.65996" lon="6.62962">
        <ele>923.181332</ele>
        <time>2026-08-17T11:12:59Z</time>
      </trkpt>
      <trkpt lat="44.66024" lon="6.62903">
        <ele>920.852125</ele>
        <time>2026-08-17T11:13:05Z</time>
      </trkpt>
      <trkpt lat="44.66036" lon="6.62883">
        <ele>920.027384</ele>
        <time>2026-08-17T11:13:08Z</time>
      </trkpt>
      <trkpt lat="44.66058" lon="6.62856">
        <ele>918.631497</ele>
        <time>2026-08-17T11:13:12Z</time>
      </trkpt>
      <trkpt lat="44.66074" lon="6.62845">
        <ele>917.758875</ele>
        <time>2026-08-17T11:13:14Z</time>
      </trkpt>
      <trkpt lat="44.66116" lon="6.62823">
        <ele>915.576807</ele>
        <time>2026-08-17T11:13:20Z</time>
      </trkpt>
      <trkpt lat="44.66207" lon="6.62736">
        <ele>910.526425</ele>
        <time>2026-08-17T11:13:35Z</time>
      </trkpt>
      <trkpt lat="44.66223" lon="6.62726">
        <ele>909.880046</ele>
        <time>2026-08-17T11:13:37Z</time>
      </trkpt>
      <trkpt lat="44.6631" lon="6.62687">
        <ele>906.595057</ele>
        <time>2026-08-17T11:13:50Z</time>
      </trkpt>
      <trkpt lat="44.66334" lon="6.62673">
        <ele>905.665659</ele>
        <time>2026-08-17T11:13:53Z</time>
      </trkpt>
      <trkpt lat="44.66348" lon="6.62654">
        <ele>904.973351</ele>
        <time>2026-08-17T11:13:57Z</time>
      </trkpt>
      <trkpt lat="44.66376" lon="6.62597">
        <ele>904.264596</ele>
        <time>2026-08-17T11:14:06Z</time>
      </trkpt>
      <trkpt lat="44.66378" lon="6.62587">
        <ele>904.177903</ele>
        <time>2026-08-17T11:14:08Z</time>
      </trkpt>
      <trkpt lat="44.66382" lon="6.62585">
        <ele>904.1341</ele>
        <time>2026-08-17T11:14:09Z</time>
      </trkpt>
      <trkpt lat="44.66417" lon="6.62504">
        <ele>903.364944</ele>
        <time>2026-08-17T11:14:29Z</time>
      </trkpt>
      <trkpt lat="44.66419" lon="6.625">
        <ele>903.329861</ele>
        <time>2026-08-17T11:14:30Z</time>
      </trkpt>
      <trkpt lat="44.66416" lon="6.62496">
        <ele>903.281851</ele>
        <time>2026-08-17T11:14:31Z</time>
      </trkpt>
      <trkpt lat="44.66417" lon="6.6249">
        <ele>903.233984</ele>
        <time>2026-08-17T11:14:33Z</time>
      </trkpt>
      <trkpt lat="44.66392" lon="6.62458">
        <ele>902.853057</ele>
        <time>2026-08-17T11:14:39Z</time>
      </trkpt>
      <trkpt lat="44.66378" lon="6.62429">
        <ele>902.376613</ele>
        <time>2026-08-17T11:14:43Z</time>
      </trkpt>
      <trkpt lat="44.66375" lon="6.62413">
        <ele>902.060377</ele>
        <time>2026-08-17T11:14:44Z</time>
      </trkpt>
      <trkpt lat="44.66375" lon="6.62394">
        <ele>901.689256</ele>
        <time>2026-08-17T11:14:46Z</time>
      </trkpt>
      <trkpt lat="44.66379" lon="6.62373">
        <ele>901.2963</ele>
        <time>2026-08-17T11:14:49Z</time>
      </trkpt>
      <trkpt lat="44.6639" lon="6.62337">
        <ele>900.545122</ele>
        <time>2026-08-17T11:14:52Z</time>
      </trkpt>
      <trkpt lat="44.6646" lon="6.62151">
        <ele>896.912102</ele>
        <time>2026-08-17T11:15:15Z</time>
      </trkpt>
      <trkpt lat="44.66482" lon="6.62111">
        <ele>896.208312</ele>
        <time>2026-08-17T11:15:20Z</time>
      </trkpt>
      <trkpt lat="44.66507" lon="6.6208">
        <ele>895.54666</ele>
        <time>2026-08-17T11:15:25Z</time>
      </trkpt>
      <trkpt lat="44.66493" lon="6.62055">
        <ele>895.100672</ele>
        <time>2026-08-17T11:15:32Z</time>
      </trkpt>
      <trkpt lat="44.66491" lon="6.62038">
        <ele>894.863785</ele>
        <time>2026-08-17T11:15:35Z</time>
      </trkpt>
      <trkpt lat="44.66497" lon="6.62023">
        <ele>894.62833</ele>
        <time>2026-08-17T11:15:39Z</time>
      </trkpt>
      <trkpt lat="44.66516" lon="6.61989">
        <ele>894.139867</ele>
        <time>2026-08-17T11:15:47Z</time>
      </trkpt>
      <trkpt lat="44.66609" lon="6.61851">
        <ele>892.432699</ele>
        <time>2026-08-17T11:16:26Z</time>
      </trkpt>
      <trkpt lat="44.66673" lon="6.61707">
        <ele>890.892341</ele>
        <time>2026-08-17T11:17:01Z</time>
      </trkpt>
      <trkpt lat="44.66689" lon="6.61673">
        <ele>890.520666</ele>
        <time>2026-08-17T11:17:09Z</time>
      </trkpt>
      <trkpt lat="44.66705" lon="6.61649">
        <ele>890.214091</ele>
        <time>2026-08-17T11:17:16Z</time>
      </trkpt>
      <trkpt lat="44.66736" lon="6.61555">
        <ele>889.491973</ele>
        <time>2026-08-17T11:17:37Z</time>
      </trkpt>
      <trkpt lat="44.66749" lon="6.61537">
        <ele>889.351226</ele>
        <time>2026-08-17T11:17:42Z</time>
      </trkpt>
      <trkpt lat="44.66797" lon="6.61516">
        <ele>888.969439</ele>
        <time>2026-08-17T11:17:57Z</time>
      </trkpt>
      <trkpt lat="44.66915" lon="6.61358">
        <ele>888.028528</ele>
        <time>2026-08-17T11:18:48Z</time>
      </trkpt>
      <trkpt lat="44.6694" lon="6.61316">
        <ele>887.859798</ele>
        <time>2026-08-17T11:19:00Z</time>
      </trkpt>
      <trkpt lat="44.66963" lon="6.61261">
        <ele>887.661479</ele>
        <time>2026-08-17T11:19:13Z</time>
      </trkpt>
      <trkpt lat="44.6698" lon="6.61214">
        <ele>887.364714</ele>
        <time>2026-08-17T11:19:24Z</time>
      </trkpt>
      <trkpt lat="44.66991" lon="6.612">
        <ele>887.241526</ele>
        <time>2026-08-17T11:19:29Z</time>
      </trkpt>
      <trkpt lat="44.66996" lon="6.61198">
        <ele>887.200166</ele>
        <time>2026-08-17T11:19:30Z</time>
      </trkpt>
      <trkpt lat="44.67005" lon="6.61197">
        <ele>887.129529</ele>
        <time>2026-08-17T11:19:33Z</time>
      </trkpt>
      <trkpt lat="44.67015" lon="6.612">
        <ele>887.044929</ele>
        <time>2026-08-17T11:19:36Z</time>
      </trkpt>
      <trkpt lat="44.67015" lon="6.61196">
        <ele>887.019383</ele>
        <time>2026-08-17T11:19:37Z</time>
      </trkpt>
      <trkpt lat="44.67028" lon="6.61177">
        <ele>886.864476</ele>
        <time>2026-08-17T11:19:40Z</time>
      </trkpt>
      <trkpt lat="44.67031" lon="6.61168">
        <ele>886.809649</ele>
        <time>2026-08-17T11:19:41Z</time>
      </trkpt>
      <trkpt lat="44.67041" lon="6.61153">
        <ele>886.689706</ele>
        <time>2026-08-17T11:19:43Z</time>
      </trkpt>
      <trkpt lat="44.67085" lon="6.61068">
        <ele>886.069639</ele>
        <time>2026-08-17T11:19:56Z</time>
      </trkpt>
      <trkpt lat="44.67156" lon="6.60948">
        <ele>885.17237</ele>
        <time>2026-08-17T11:20:15Z</time>
      </trkpt>
      <trkpt lat="44.67171" lon="6.60925">
        <ele>884.995897</ele>
        <time>2026-08-17T11:20:19Z</time>
      </trkpt>
      <trkpt lat="44.67188" lon="6.60915">
        <ele>884.845839</ele>
        <time>2026-08-17T11:20:22Z</time>
      </trkpt>
      <trkpt lat="44.6721" lon="6.60916">
        <ele>884.717098</ele>
        <time>2026-08-17T11:20:26Z</time>
      </trkpt>
      <trkpt lat="44.67246" lon="6.60927">
        <ele>884.819935</ele>
        <time>2026-08-17T11:20:33Z</time>
      </trkpt>
      <trkpt lat="44.67256" lon="6.60925">
        <ele>884.849391</ele>
        <time>2026-08-17T11:20:35Z</time>
      </trkpt>
      <trkpt lat="44.67297" lon="6.60906">
        <ele>884.969407</ele>
        <time>2026-08-17T11:20:45Z</time>
      </trkpt>
      <trkpt lat="44.67306" lon="6.60899">
        <ele>884.998493</ele>
        <time>2026-08-17T11:20:47Z</time>
      </trkpt>
      <trkpt lat="44.67319" lon="6.60883">
        <ele>885.047118</ele>
        <time>2026-08-17T11:20:51Z</time>
      </trkpt>
      <trkpt lat="44.67328" lon="6.6087">
        <ele>885.08355</ele>
        <time>2026-08-17T11:20:54Z</time>
      </trkpt>
      <trkpt lat="44.67346" lon="6.60846">
        <ele>885.152063</ele>
        <time>2026-08-17T11:20:59Z</time>
      </trkpt>
      <trkpt lat="44.67375" lon="6.60811">
        <ele>885.133384</ele>
        <time>2026-08-17T11:21:07Z</time>
      </trkpt>
      <trkpt lat="44.67409" lon="6.60787">
        <ele>884.980612</ele>
        <time>2026-08-17T11:21:14Z</time>
      </trkpt>
      <trkpt lat="44.6743" lon="6.6078">
        <ele>884.89497</ele>
        <time>2026-08-17T11:21:18Z</time>
      </trkpt>
      <trkpt lat="44.67447" lon="6.60766">
        <ele>884.813614</ele>
        <time>2026-08-17T11:21:24Z</time>
      </trkpt>
      <trkpt lat="44.67466" lon="6.60757">
        <ele>884.732158</ele>
        <time>2026-08-17T11:21:30Z</time>
      </trkpt>
      <trkpt lat="44.67481" lon="6.60741">
        <ele>884.653971</ele>
        <time>2026-08-17T11:21:35Z</time>
      </trkpt>
      <trkpt lat="44.67498" lon="6.60729">
        <ele>884.579259</ele>
        <time>2026-08-17T11:21:41Z</time>
      </trkpt>
      <trkpt lat="44.67533" lon="6.60716">
        <ele>884.542062</ele>
        <time>2026-08-17T11:21:52Z</time>
      </trkpt>
      <trkpt lat="44.67558" lon="6.60714">
        <ele>884.671726</ele>
        <time>2026-08-17T11:22:00Z</time>
      </trkpt>
      <trkpt lat="44.6759" lon="6.6072">
        <ele>884.840264</ele>
        <time>2026-08-17T11:22:11Z</time>
      </trkpt>
      <trkpt lat="44.67603" lon="6.60718">
        <ele>884.911784</ele>
        <time>2026-08-17T11:22:16Z</time>
      </trkpt>
      <trkpt lat="44.67655" lon="6.60732">
        <ele>885.183944</ele>
        <time>2026-08-17T11:22:35Z</time>
      </trkpt>
      <trkpt lat="44.67676" lon="6.60733">
        <ele>885.294144</ele>
        <time>2026-08-17T11:22:43Z</time>
      </trkpt>
      <trkpt lat="44.67685" lon="6.6073">
        <ele>885.339261</ele>
        <time>2026-08-17T11:22:46Z</time>
      </trkpt>
      <trkpt lat="44.67697" lon="6.60722">
        <ele>885.411781</ele>
        <time>2026-08-17T11:22:51Z</time>
      </trkpt>
      <trkpt lat="44.67748" lon="6.60745">
        <ele>885.682641</ele>
        <time>2026-08-17T11:23:10Z</time>
      </trkpt>
      <trkpt lat="44.67825" lon="6.60769">
        <ele>886.089516</ele>
        <time>2026-08-17T11:23:37Z</time>
      </trkpt>
      <trkpt lat="44.67866" lon="6.60787">
        <ele>886.310746</ele>
        <time>2026-08-17T11:23:51Z</time>
      </trkpt>
      <trkpt lat="44.67964" lon="6.60813">
        <ele>886.403326</ele>
        <time>2026-08-17T11:24:23Z</time>
      </trkpt>
      <trkpt lat="44.67984" lon="6.60835">
        <ele>886.420138</ele>
        <time>2026-08-17T11:24:31Z</time>
      </trkpt>
      <trkpt lat="44.68012" lon="6.6083">
        <ele>886.438437</ele>
        <time>2026-08-17T11:24:40Z</time>
      </trkpt>
      <trkpt lat="44.68064" lon="6.60834">
        <ele>886.565894</ele>
        <time>2026-08-17T11:24:57Z</time>
      </trkpt>
      <trkpt lat="44.68075" lon="6.60839">
        <ele>886.623226</ele>
        <time>2026-08-17T11:25:01Z</time>
      </trkpt>
      <trkpt lat="44.68096" lon="6.60826">
        <ele>886.744717</ele>
        <time>2026-08-17T11:25:09Z</time>
      </trkpt>
      <trkpt lat="44.68153" lon="6.60824">
        <ele>887.038751</ele>
        <time>2026-08-17T11:25:28Z</time>
      </trkpt>
      <trkpt lat="44.68199" lon="6.60832">
        <ele>887.278274</ele>
        <time>2026-08-17T11:25:45Z</time>
      </trkpt>
      <trkpt lat="44.68232" lon="6.60823">
        <ele>887.44447</ele>
        <time>2026-08-17T11:25:57Z</time>
      </trkpt>
      <trkpt lat="44.68315" lon="6.60782">
        <ele>887.822325</ele>
        <time>2026-08-17T11:26:27Z</time>
      </trkpt>
      <trkpt lat="44.68362" lon="6.60762">
        <ele>888.033007</ele>
        <time>2026-08-17T11:26:43Z</time>
      </trkpt>
      <trkpt lat="44.68409" lon="6.60749">
        <ele>888.27463</ele>
        <time>2026-08-17T11:26:59Z</time>
      </trkpt>
      <trkpt lat="44.68431" lon="6.60755">
        <ele>888.414095</ele>
        <time>2026-08-17T11:27:06Z</time>
      </trkpt>
      <trkpt lat="44.6847" lon="6.60784">
        <ele>888.701233</ele>
        <time>2026-08-17T11:27:21Z</time>
      </trkpt>
      <trkpt lat="44.6849" lon="6.60787">
        <ele>888.828056</ele>
        <time>2026-08-17T11:27:28Z</time>
      </trkpt>
      <trkpt lat="44.68529" lon="6.60785">
        <ele>889.078631</ele>
        <time>2026-08-17T11:27:42Z</time>
      </trkpt>
      <trkpt lat="44.68568" lon="6.6079">
        <ele>889.341679</ele>
        <time>2026-08-17T11:27:57Z</time>
      </trkpt>
      <trkpt lat="44.68586" lon="6.60795">
        <ele>889.603731</ele>
        <time>2026-08-17T11:28:04Z</time>
      </trkpt>
      <trkpt lat="44.68597" lon="6.60806">
        <ele>889.794481</ele>
        <time>2026-08-17T11:28:09Z</time>
      </trkpt>
      <trkpt lat="44.68613" lon="6.60834">
        <ele>890.151792</ele>
        <time>2026-08-17T11:28:19Z</time>
      </trkpt>
      <trkpt lat="44.68664" lon="6.60828">
        <ele>890.861721</ele>
        <time>2026-08-17T11:28:39Z</time>
      </trkpt>
      <trkpt lat="44.68699" lon="6.6083">
        <ele>891.3592</ele>
        <time>2026-08-17T11:28:54Z</time>
      </trkpt>
      <trkpt lat="44.68721" lon="6.60826">
        <ele>891.660429</ele>
        <time>2026-08-17T11:29:02Z</time>
      </trkpt>
      <trkpt lat="44.68772" lon="6.60804">
        <ele>892.01932</ele>
        <time>2026-08-17T11:29:22Z</time>
      </trkpt>
      <trkpt lat="44.68788" lon="6.60795">
        <ele>892.089187</ele>
        <time>2026-08-17T11:29:28Z</time>
      </trkpt>
      <trkpt lat="44.68854" lon="6.60755">
        <ele>892.39032</ele>
        <time>2026-08-17T11:29:51Z</time>
      </trkpt>
      <trkpt lat="44.68961" lon="6.60676">
        <ele>893.063937</ele>
        <time>2026-08-17T11:30:29Z</time>
      </trkpt>
      <trkpt lat="44.68965" lon="6.60676">
        <ele>893.090094</ele>
        <time>2026-08-17T11:30:31Z</time>
      </trkpt>
      <trkpt lat="44.6898" lon="6.60676">
        <ele>893.187524</ele>
        <time>2026-08-17T11:30:36Z</time>
      </trkpt>
      <trkpt lat="44.68999" lon="6.60682">
        <ele>893.318931</ele>
        <time>2026-08-17T11:30:44Z</time>
      </trkpt>
      <trkpt lat="44.69077" lon="6.6069">
        <ele>893.821895</ele>
        <time>2026-08-17T11:31:14Z</time>
      </trkpt>
      <trkpt lat="44.69225" lon="6.60713">
        <ele>894.701029</ele>
        <time>2026-08-17T11:32:05Z</time>
      </trkpt>
      <trkpt lat="44.69273" lon="6.60742">
        <ele>894.931384</ele>
        <time>2026-08-17T11:32:22Z</time>
      </trkpt>
      <trkpt lat="44.69354" lon="6.60773">
        <ele>895.206799</ele>
        <time>2026-08-17T11:32:49Z</time>
      </trkpt>
      <trkpt lat="44.69397" lon="6.60793">
        <ele>895.353951</ele>
        <time>2026-08-17T11:33:04Z</time>
      </trkpt>
      <trkpt lat="44.69431" lon="6.60801">
        <ele>895.508427</ele>
        <time>2026-08-17T11:33:17Z</time>
      </trkpt>
      <trkpt lat="44.69458" lon="6.60817">
        <ele>895.698561</ele>
        <time>2026-08-17T11:33:27Z</time>
      </trkpt>
      <trkpt lat="44.69481" lon="6.60824">
        <ele>895.8453</ele>
        <time>2026-08-17T11:33:36Z</time>
      </trkpt>
      <trkpt lat="44.69498" lon="6.60824">
        <ele>895.959765</ele>
        <time>2026-08-17T11:33:43Z</time>
      </trkpt>
      <trkpt lat="44.69527" lon="6.60833">
        <ele>896.150437</ele>
        <time>2026-08-17T11:33:54Z</time>
      </trkpt>
      <trkpt lat="44.69602" lon="6.60878">
        <ele>896.587364</ele>
        <time>2026-08-17T11:34:21Z</time>
      </trkpt>
      <trkpt lat="44.69629" lon="6.60899">
        <ele>896.585807</ele>
        <time>2026-08-17T11:34:30Z</time>
      </trkpt>
      <trkpt lat="44.69639" lon="6.60903">
        <ele>896.585242</ele>
        <time>2026-08-17T11:34:34Z</time>
      </trkpt>
      <trkpt lat="44.69646" lon="6.60902">
        <ele>896.584898</ele>
        <time>2026-08-17T11:34:36Z</time>
      </trkpt>
      <trkpt lat="44.69653" lon="6.60892">
        <ele>896.584373</ele>
        <time>2026-08-17T11:34:39Z</time>
      </trkpt>
      <trkpt lat="44.69668" lon="6.60892">
        <ele>896.583627</ele>
        <time>2026-08-17T11:34:43Z</time>
      </trkpt>
      <trkpt lat="44.69692" lon="6.60879">
        <ele>896.582327</ele>
        <time>2026-08-17T11:34:51Z</time>
      </trkpt>
      <trkpt lat="44.69716" lon="6.6086">
        <ele>896.580942</ele>
        <time>2026-08-17T11:35:00Z</time>
      </trkpt>
      <trkpt lat="44.69741" lon="6.6085">
        <ele>896.57962</ele>
        <time>2026-08-17T11:35:08Z</time>
      </trkpt>
      <trkpt lat="44.69753" lon="6.6086">
        <ele>896.58503</ele>
        <time>2026-08-17T11:35:12Z</time>
      </trkpt>
      <trkpt lat="44.69772" lon="6.60889">
        <ele>897.059813</ele>
        <time>2026-08-17T11:35:22Z</time>
      </trkpt>
      <trkpt lat="44.69785" lon="6.60875">
        <ele>897.336682</ele>
        <time>2026-08-17T11:35:29Z</time>
      </trkpt>
      <trkpt lat="44.69811" lon="6.60898">
        <ele>897.855572</ele>
        <time>2026-08-17T11:35:40Z</time>
      </trkpt>
      <trkpt lat="44.69858" lon="6.60943">
        <ele>898.832084</ele>
        <time>2026-08-17T11:36:04Z</time>
      </trkpt>
      <trkpt lat="44.69856" lon="6.60957">
        <ele>899.004474</ele>
        <time>2026-08-17T11:36:08Z</time>
      </trkpt>
      <trkpt lat="44.69869" lon="6.60967">
        <ele>899.266382</ele>
        <time>2026-08-17T11:36:15Z</time>
      </trkpt>
      <trkpt lat="44.69875" lon="6.61023">
        <ele>900.372374</ele>
        <time>2026-08-17T11:36:33Z</time>
      </trkpt>
      <trkpt lat="44.69446" lon="6.61146">
        <ele>920.442805</ele>
        <time>2026-08-17T11:39:30Z</time>
      </trkpt>
      <trkpt lat="44.69427" lon="6.61212">
        <ele>923.628045</ele>
        <time>2026-08-17T11:40:00Z</time>
      </trkpt>
      <trkpt lat="44.69403" lon="6.61307">
        <ele>929.47182</ele>
        <time>2026-08-17T11:40:50Z</time>
      </trkpt>
      <trkpt lat="44.69366" lon="6.61479">
        <ele>941.974417</ele>
        <time>2026-08-17T11:42:21Z</time>
      </trkpt>
      <trkpt lat="44.69366" lon="6.61527">
        <ele>945.476157</ele>
        <time>2026-08-17T11:42:46Z</time>
      </trkpt>
      <trkpt lat="44.69376" lon="6.61541">
        <ele>946.972374</ele>
        <time>2026-08-17T11:42:57Z</time>
      </trkpt>
      <trkpt lat="44.69365" lon="6.61544">
        <ele>948.177588</ele>
        <time>2026-08-17T11:43:07Z</time>
      </trkpt>
      <trkpt lat="44.69358" lon="6.61587">
        <ele>951.480527</ele>
        <time>2026-08-17T11:43:33Z</time>
      </trkpt>
      <trkpt lat="44.69343" lon="6.61621">
        <ele>954.450063</ele>
        <time>2026-08-17T11:43:57Z</time>
      </trkpt>
      <trkpt lat="44.69338" lon="6.6165">
        <ele>956.746104</ele>
        <time>2026-08-17T11:44:16Z</time>
      </trkpt>
      <trkpt lat="44.69336" lon="6.61661">
        <ele>957.550457</ele>
        <time>2026-08-17T11:44:22Z</time>
      </trkpt>
      <trkpt lat="44.69337" lon="6.6168">
        <ele>959.010177</ele>
        <time>2026-08-17T11:44:34Z</time>
      </trkpt>
      <trkpt lat="44.69357" lon="6.61799">
        <ele>968.152137</ele>
        <time>2026-08-17T11:45:51Z</time>
      </trkpt>
      <trkpt lat="44.69359" lon="6.61838">
        <ele>971.050124</ele>
        <time>2026-08-17T11:46:14Z</time>
      </trkpt>
      <trkpt lat="44.69356" lon="6.61867">
        <ele>973.234781</ele>
        <time>2026-08-17T11:46:32Z</time>
      </trkpt>
      <trkpt lat="44.69348" lon="6.61917">
        <ele>977.044712</ele>
        <time>2026-08-17T11:47:02Z</time>
      </trkpt>
      <trkpt lat="44.69333" lon="6.61949">
        <ele>979.932755</ele>
        <time>2026-08-17T11:47:24Z</time>
      </trkpt>
      <trkpt lat="44.69325" lon="6.6196">
        <ele>981.067541</ele>
        <time>2026-08-17T11:47:33Z</time>
      </trkpt>
      <trkpt lat="44.69293" lon="6.6198">
        <ele>984.267521</ele>
        <time>2026-08-17T11:48:01Z</time>
      </trkpt>
      <trkpt lat="44.6927" lon="6.62007">
        <ele>986.979565</ele>
        <time>2026-08-17T11:48:26Z</time>
      </trkpt>
      <trkpt lat="44.69277" lon="6.62027">
        <ele>988.426405</ele>
        <time>2026-08-17T11:48:39Z</time>
      </trkpt>
      <trkpt lat="44.69285" lon="6.62073">
        <ele>991.456315</ele>
        <time>2026-08-17T11:49:04Z</time>
      </trkpt>
      <trkpt lat="44.69299" lon="6.6212">
        <ele>994.785888</ele>
        <time>2026-08-17T11:49:32Z</time>
      </trkpt>
      <trkpt lat="44.69306" lon="6.62134">
        <ele>995.910125</ele>
        <time>2026-08-17T11:49:41Z</time>
      </trkpt>
      <trkpt lat="44.69319" lon="6.62138">
        <ele>997.070462</ele>
        <time>2026-08-17T11:49:50Z</time>
      </trkpt>
      <trkpt lat="44.69332" lon="6.62125">
        <ele>998.533862</ele>
        <time>2026-08-17T11:50:01Z</time>
      </trkpt>
      <trkpt lat="44.69383" lon="6.62099">
        <ele>1003.495065</ele>
        <time>2026-08-17T11:50:40Z</time>
      </trkpt>
      <trkpt lat="44.69447" lon="6.62072">
        <ele>1009.603451</ele>
        <time>2026-08-17T11:51:31Z</time>
      </trkpt>
      <trkpt lat="44.69459" lon="6.62073">
        <ele>1010.710864</ele>
        <time>2026-08-17T11:51:41Z</time>
      </trkpt>
      <trkpt lat="44.69517" lon="6.62131">
        <ele>1017.53725</ele>
        <time>2026-08-17T11:52:43Z</time>
      </trkpt>
      <trkpt lat="44.69528" lon="6.62149">
        <ele>1019.269292</ele>
        <time>2026-08-17T11:52:58Z</time>
      </trkpt>
      <trkpt lat="44.69556" lon="6.62179">
        <ele>1022.851912</ele>
        <time>2026-08-17T11:53:30Z</time>
      </trkpt>
      <trkpt lat="44.69566" lon="6.62199">
        <ele>1024.612031</ele>
        <time>2026-08-17T11:53:45Z</time>
      </trkpt>
      <trkpt lat="44.69594" lon="6.62233">
        <ele>1028.420898</ele>
        <time>2026-08-17T11:54:17Z</time>
      </trkpt>
      <trkpt lat="44.6963" lon="6.62252">
        <ele>1032.342897</ele>
        <time>2026-08-17T11:54:46Z</time>
      </trkpt>
      <trkpt lat="44.69648" lon="6.62251">
        <ele>1033.375546</ele>
        <time>2026-08-17T11:54:58Z</time>
      </trkpt>
      <trkpt lat="44.69652" lon="6.62259">
        <ele>1033.710307</ele>
        <time>2026-08-17T11:55:03Z</time>
      </trkpt>
      <trkpt lat="44.69626" lon="6.62269">
        <ele>1035.073857</ele>
        <time>2026-08-17T11:55:21Z</time>
      </trkpt>
      <trkpt lat="44.696" lon="6.62267">
        <ele>1036.397603</ele>
        <time>2026-08-17T11:55:36Z</time>
      </trkpt>
      <trkpt lat="44.6956" lon="6.6224">
        <ele>1038.675615</ele>
        <time>2026-08-17T11:56:01Z</time>
      </trkpt>
      <trkpt lat="44.69549" lon="6.6224">
        <ele>1039.217697</ele>
        <time>2026-08-17T11:56:07Z</time>
      </trkpt>
      <trkpt lat="44.6952" lon="6.62267">
        <ele>1040.960728</ele>
        <time>2026-08-17T11:56:21Z</time>
      </trkpt>
      <trkpt lat="44.69492" lon="6.62298">
        <ele>1042.930139</ele>
        <time>2026-08-17T11:56:36Z</time>
      </trkpt>
      <trkpt lat="44.6945" lon="6.62335">
        <ele>1045.812721</ele>
        <time>2026-08-17T11:57:00Z</time>
      </trkpt>
      <trkpt lat="44.6943" lon="6.62346">
        <ele>1047.028698</ele>
        <time>2026-08-17T11:57:12Z</time>
      </trkpt>
      <trkpt lat="44.69428" lon="6.62377">
        <ele>1048.297575</ele>
        <time>2026-08-17T11:57:26Z</time>
      </trkpt>
      <trkpt lat="44.69435" lon="6.6239">
        <ele>1048.944509</ele>
        <time>2026-08-17T11:57:33Z</time>
      </trkpt>
      <trkpt lat="44.69458" lon="6.62484">
        <ele>1053.542872</ele>
        <time>2026-08-17T11:58:27Z</time>
      </trkpt>
      <trkpt lat="44.69485" lon="6.6251">
        <ele>1056.434854</ele>
        <time>2026-08-17T11:58:57Z</time>
      </trkpt>
      <trkpt lat="44.69513" lon="6.62545">
        <ele>1059.718841</ele>
        <time>2026-08-17T11:59:32Z</time>
      </trkpt>
      <trkpt lat="44.69524" lon="6.62559">
        <ele>1061.014601</ele>
        <time>2026-08-17T11:59:45Z</time>
      </trkpt>
      <trkpt lat="44.69535" lon="6.62566">
        <ele>1062.056681</ele>
        <time>2026-08-17T11:59:55Z</time>
      </trkpt>
      <trkpt lat="44.69544" lon="6.62578">
        <ele>1063.070089</ele>
        <time>2026-08-17T12:00:05Z</time>
      </trkpt>
      <trkpt lat="44.69563" lon="6.62616">
        <ele>1065.975073</ele>
        <time>2026-08-17T12:00:27Z</time>
      </trkpt>
      <trkpt lat="44.69582" lon="6.62659">
        <ele>1068.478309</ele>
        <time>2026-08-17T12:00:45Z</time>
      </trkpt>
      <trkpt lat="44.69589" lon="6.62699">
        <ele>1069.901723</ele>
        <time>2026-08-17T12:00:57Z</time>
      </trkpt>
      <trkpt lat="44.69583" lon="6.62709">
        <ele>1070.381583</ele>
        <time>2026-08-17T12:01:01Z</time>
      </trkpt>
      <trkpt lat="44.6957" lon="6.62711">
        <ele>1071.019065</ele>
        <time>2026-08-17T12:01:06Z</time>
      </trkpt>
      <trkpt lat="44.69562" lon="6.6271">
        <ele>1071.420943</ele>
        <time>2026-08-17T12:01:10Z</time>
      </trkpt>
      <trkpt lat="44.69534" lon="6.62694">
        <ele>1072.8793</ele>
        <time>2026-08-17T12:01:24Z</time>
      </trkpt>
      <trkpt lat="44.69525" lon="6.62693">
        <ele>1073.314029</ele>
        <time>2026-08-17T12:01:28Z</time>
      </trkpt>
      <trkpt lat="44.69516" lon="6.627">
        <ele>1073.799701</ele>
        <time>2026-08-17T12:01:33Z</time>
      </trkpt>
      <trkpt lat="44.69494" lon="6.62723">
        <ele>1075.152233</ele>
        <time>2026-08-17T12:01:49Z</time>
      </trkpt>
      <trkpt lat="44.69488" lon="6.62738">
        <ele>1075.734186</ele>
        <time>2026-08-17T12:01:56Z</time>
      </trkpt>
      <trkpt lat="44.69493" lon="6.62739">
        <ele>1075.958846</ele>
        <time>2026-08-17T12:01:59Z</time>
      </trkpt>
      <trkpt lat="44.69501" lon="6.62756">
        <ele>1077.040559</ele>
        <time>2026-08-17T12:02:10Z</time>
      </trkpt>
      <trkpt lat="44.69542" lon="6.62808">
        <ele>1084.064187</ele>
        <time>2026-08-17T12:03:01Z</time>
      </trkpt>
      <trkpt lat="44.69554" lon="6.62832">
        <ele>1086.666575</ele>
        <time>2026-08-17T12:03:23Z</time>
      </trkpt>
      <trkpt lat="44.69548" lon="6.62897">
        <ele>1092.562933</ele>
        <time>2026-08-17T12:04:15Z</time>
      </trkpt>
      <trkpt lat="44.69554" lon="6.62929">
        <ele>1095.477706</ele>
        <time>2026-08-17T12:04:41Z</time>
      </trkpt>
      <trkpt lat="44.69583" lon="6.62937">
        <ele>1099.190939</ele>
        <time>2026-08-17T12:05:12Z</time>
      </trkpt>
      <trkpt lat="44.69594" lon="6.62937">
        <ele>1099.759781</ele>
        <time>2026-08-17T12:05:23Z</time>
      </trkpt>
      <trkpt lat="44.69615" lon="6.62955">
        <ele>1100.959908</ele>
        <time>2026-08-17T12:05:43Z</time>
      </trkpt>
      <trkpt lat="44.69647" lon="6.62987">
        <ele>1102.850886</ele>
        <time>2026-08-17T12:06:10Z</time>
      </trkpt>
      <trkpt lat="44.6965" lon="6.62987">
        <ele>1103.014008</ele>
        <time>2026-08-17T12:06:13Z</time>
      </trkpt>
      <trkpt lat="44.69669" lon="6.6298">
        <ele>1103.96446</ele>
        <time>2026-08-17T12:06:23Z</time>
      </trkpt>
      <trkpt lat="44.69677" lon="6.62981">
        <ele>1104.357636</ele>
        <time>2026-08-17T12:06:27Z</time>
      </trkpt>
      <trkpt lat="44.6968" lon="6.62975">
        <ele>1104.624637</ele>
        <time>2026-08-17T12:06:29Z</time>
      </trkpt>
      <trkpt lat="44.69681" lon="6.62961">
        <ele>1105.103659</ele>
        <time>2026-08-17T12:06:34Z</time>
      </trkpt>
      <trkpt lat="44.69669" lon="6.62888">
        <ele>1107.726079</ele>
        <time>2026-08-17T12:06:51Z</time>
      </trkpt>
      <trkpt lat="44.69675" lon="6.62877">
        <ele>1107.97506</ele>
        <time>2026-08-17T12:06:53Z</time>
      </trkpt>
      <trkpt lat="44.69674" lon="6.62857">
        <ele>1107.899062</ele>
        <time>2026-08-17T12:06:57Z</time>
      </trkpt>
      <trkpt lat="44.69682" lon="6.62837">
        <ele>1107.80861</ele>
        <time>2026-08-17T12:07:01Z</time>
      </trkpt>
      <trkpt lat="44.6969" lon="6.62831">
        <ele>1107.758706</ele>
        <time>2026-08-17T12:07:04Z</time>
      </trkpt>
      <trkpt lat="44.6969" lon="6.62827">
        <ele>1107.740725</ele>
        <time>2026-08-17T12:07:04Z</time>
      </trkpt>
      <trkpt lat="44.69684" lon="6.62813">
        <ele>1107.678233</ele>
        <time>2026-08-17T12:07:07Z</time>
      </trkpt>
      <trkpt lat="44.69682" lon="6.62784">
        <ele>1107.563508</ele>
        <time>2026-08-17T12:07:13Z</time>
      </trkpt>
      <trkpt lat="44.69695" lon="6.62737">
        <ele>1107.365673</ele>
        <time>2026-08-17T12:07:23Z</time>
      </trkpt>
      <trkpt lat="44.69722" lon="6.62677">
        <ele>1107.084279</ele>
        <time>2026-08-17T12:07:39Z</time>
      </trkpt>
      <trkpt lat="44.69721" lon="6.62653">
        <ele>1107.143796</ele>
        <time>2026-08-17T12:07:46Z</time>
      </trkpt>
      <trkpt lat="44.69699" lon="6.62597">
        <ele>1109.780428</ele>
        <time>2026-08-17T12:08:11Z</time>
      </trkpt>
      <trkpt lat="44.69704" lon="6.62574">
        <ele>1110.761366</ele>
        <time>2026-08-17T12:08:21Z</time>
      </trkpt>
      <trkpt lat="44.69727" lon="6.62541">
        <ele>1112.593191</ele>
        <time>2026-08-17T12:08:40Z</time>
      </trkpt>
      <trkpt lat="44.69737" lon="6.62544">
        <ele>1113.190977</ele>
        <time>2026-08-17T12:08:47Z</time>
      </trkpt>
      <trkpt lat="44.69742" lon="6.6255">
        <ele>1113.553288</ele>
        <time>2026-08-17T12:08:51Z</time>
      </trkpt>
      <trkpt lat="44.69761" lon="6.62555">
        <ele>1114.649906</ele>
        <time>2026-08-17T12:09:03Z</time>
      </trkpt>
      <trkpt lat="44.69779" lon="6.62554">
        <ele>1115.681694</ele>
        <time>2026-08-17T12:09:15Z</time>
      </trkpt>
      <trkpt lat="44.69849" lon="6.62529">
        <ele>1121.841291</ele>
        <time>2026-08-17T12:10:12Z</time>
      </trkpt>
      <trkpt lat="44.69864" lon="6.62532">
        <ele>1123.312427</ele>
        <time>2026-08-17T12:10:23Z</time>
      </trkpt>
      <trkpt lat="44.6987" lon="6.6253">
        <ele>1123.938359</ele>
        <time>2026-08-17T12:10:28Z</time>
      </trkpt>
      <trkpt lat="44.69882" lon="6.62519">
        <ele>1125.404299</ele>
        <time>2026-08-17T12:10:40Z</time>
      </trkpt>
      <trkpt lat="44.69898" lon="6.62522">
        <ele>1127.095629</ele>
        <time>2026-08-17T12:10:53Z</time>
      </trkpt>
      <trkpt lat="44.69907" lon="6.62517">
        <ele>1128.084068</ele>
        <time>2026-08-17T12:11:02Z</time>
      </trkpt>
      <trkpt lat="44.69939" lon="6.62521">
        <ele>1131.340865</ele>
        <time>2026-08-17T12:11:29Z</time>
      </trkpt>
      <trkpt lat="44.69947" lon="6.62508">
        <ele>1132.614798</ele>
        <time>2026-08-17T12:11:41Z</time>
      </trkpt>
      <trkpt lat="44.69976" lon="6.6249">
        <ele>1135.757904</ele>
        <time>2026-08-17T12:12:10Z</time>
      </trkpt>
      <trkpt lat="44.70053" lon="6.6245">
        <ele>1144.494944</ele>
        <time>2026-08-17T12:13:23Z</time>
      </trkpt>
      <trkpt lat="44.70074" lon="6.62448">
        <ele>1146.681655</ele>
        <time>2026-08-17T12:13:39Z</time>
      </trkpt>
      <trkpt lat="44.70083" lon="6.62443">
        <ele>1147.651882</ele>
        <time>2026-08-17T12:13:46Z</time>
      </trkpt>
      <trkpt lat="44.70089" lon="6.62416">
        <ele>1149.819518</ele>
        <time>2026-08-17T12:14:02Z</time>
      </trkpt>
      <trkpt lat="44.70096" lon="6.62417">
        <ele>1150.57231</ele>
        <time>2026-08-17T12:14:08Z</time>
      </trkpt>
      <trkpt lat="44.70108" lon="6.624">
        <ele>1152.305465</ele>
        <time>2026-08-17T12:14:19Z</time>
      </trkpt>
      <trkpt lat="44.70141" lon="6.62376">
        <ele>1156.483017</ele>
        <time>2026-08-17T12:14:45Z</time>
      </trkpt>
      <trkpt lat="44.7016" lon="6.62353">
        <ele>1159.449235</ele>
        <time>2026-08-17T12:15:04Z</time>
      </trkpt>
      <trkpt lat="44.70163" lon="6.62352">
        <ele>1159.778687</ele>
        <time>2026-08-17T12:15:06Z</time>
      </trkpt>
      <trkpt lat="44.70167" lon="6.62354">
        <ele>1160.325149</ele>
        <time>2026-08-17T12:15:09Z</time>
      </trkpt>
      <trkpt lat="44.70166" lon="6.62367">
        <ele>1161.404152</ele>
        <time>2026-08-17T12:15:16Z</time>
      </trkpt>
      <trkpt lat="44.70135" lon="6.62414">
        <ele>1166.809802</ele>
        <time>2026-08-17T12:15:53Z</time>
      </trkpt>
      <trkpt lat="44.70134" lon="6.62422">
        <ele>1167.463957</ele>
        <time>2026-08-17T12:15:58Z</time>
      </trkpt>
      <trkpt lat="44.70135" lon="6.6244">
        <ele>1168.989377</ele>
        <time>2026-08-17T12:16:08Z</time>
      </trkpt>
      <trkpt lat="44.7014" lon="6.62462">
        <ele>1170.95897</ele>
        <time>2026-08-17T12:16:22Z</time>
      </trkpt>
      <trkpt lat="44.70139" lon="6.62481">
        <ele>1172.541902</ele>
        <time>2026-08-17T12:16:33Z</time>
      </trkpt>
      <trkpt lat="44.70129" lon="6.62497">
        <ele>1174.337688</ele>
        <time>2026-08-17T12:16:47Z</time>
      </trkpt>
      <trkpt lat="44.70102" lon="6.62521">
        <ele>1178.00377</ele>
        <time>2026-08-17T12:17:13Z</time>
      </trkpt>
      <trkpt lat="44.70078" lon="6.62536">
        <ele>1180.904139</ele>
        <time>2026-08-17T12:17:34Z</time>
      </trkpt>
      <trkpt lat="44.70079" lon="6.62544">
        <ele>1181.597235</ele>
        <time>2026-08-17T12:17:39Z</time>
      </trkpt>
      <trkpt lat="44.70085" lon="6.62548">
        <ele>1182.332025</ele>
        <time>2026-08-17T12:17:44Z</time>
      </trkpt>
      <trkpt lat="44.70103" lon="6.62536">
        <ele>1184.538428</ele>
        <time>2026-08-17T12:18:00Z</time>
      </trkpt>
      <trkpt lat="44.70142" lon="6.62528">
        <ele>1188.99525</ele>
        <time>2026-08-17T12:18:29Z</time>
      </trkpt>
      <trkpt lat="44.70182" lon="6.62503">
        <ele>1193.958214</ele>
        <time>2026-08-17T12:18:59Z</time>
      </trkpt>
      <trkpt lat="44.70192" lon="6.62495">
        <ele>1195.22334</ele>
        <time>2026-08-17T12:19:06Z</time>
      </trkpt>
      <trkpt lat="44.70207" lon="6.62473">
        <ele>1197.824537</ele>
        <time>2026-08-17T12:19:22Z</time>
      </trkpt>
      <trkpt lat="44.70238" lon="6.6246">
        <ele>1201.718263</ele>
        <time>2026-08-17T12:19:45Z</time>
      </trkpt>
      <trkpt lat="44.70245" lon="6.62454">
        <ele>1202.82854</ele>
        <time>2026-08-17T12:19:52Z</time>
      </trkpt>
      <trkpt lat="44.70259" lon="6.62433">
        <ele>1205.301833</ele>
        <time>2026-08-17T12:20:08Z</time>
      </trkpt>
      <trkpt lat="44.70267" lon="6.62427">
        <ele>1206.347472</ele>
        <time>2026-08-17T12:20:15Z</time>
      </trkpt>
      <trkpt lat="44.70298" lon="6.6242">
        <ele>1210.175373</ele>
        <time>2026-08-17T12:20:40Z</time>
      </trkpt>
      <trkpt lat="44.70314" lon="6.62412">
        <ele>1212.206668</ele>
        <time>2026-08-17T12:20:55Z</time>
      </trkpt>
      <trkpt lat="44.70337" lon="6.62393">
        <ele>1215.570601</ele>
        <time>2026-08-17T12:21:19Z</time>
      </trkpt>
      <trkpt lat="44.70375" lon="6.62378">
        <ele>1220.527482</ele>
        <time>2026-08-17T12:21:54Z</time>
      </trkpt>
      <trkpt lat="44.70384" lon="6.6237">
        <ele>1221.951018</ele>
        <time>2026-08-17T12:22:04Z</time>
      </trkpt>
      <trkpt lat="44.70408" lon="6.6234">
        <ele>1226.237306</ele>
        <time>2026-08-17T12:22:33Z</time>
      </trkpt>
      <trkpt lat="44.70432" lon="6.62329">
        <ele>1229.678778</ele>
        <time>2026-08-17T12:22:57Z</time>
      </trkpt>
      <trkpt lat="44.70452" lon="6.62302">
        <ele>1233.336094</ele>
        <time>2026-08-17T12:23:20Z</time>
      </trkpt>
      <trkpt lat="44.70458" lon="6.62306">
        <ele>1234.22166</ele>
        <time>2026-08-17T12:23:26Z</time>
      </trkpt>
      <trkpt lat="44.70457" lon="6.6232">
        <ele>1235.554661</ele>
        <time>2026-08-17T12:23:34Z</time>
      </trkpt>
      <trkpt lat="44.70443" lon="6.6234">
        <ele>1238.201374</ele>
        <time>2026-08-17T12:23:51Z</time>
      </trkpt>
      <trkpt lat="44.70427" lon="6.62356">
        <ele>1240.835714</ele>
        <time>2026-08-17T12:24:07Z</time>
      </trkpt>
      <trkpt lat="44.70428" lon="6.62365">
        <ele>1241.625618</ele>
        <time>2026-08-17T12:24:12Z</time>
      </trkpt>
      <trkpt lat="44.70433" lon="6.62367">
        <ele>1242.249996</ele>
        <time>2026-08-17T12:24:16Z</time>
      </trkpt>
      <trkpt lat="44.70477" lon="6.62333">
        <ele>1247.918241</ele>
        <time>2026-08-17T12:24:56Z</time>
      </trkpt>
      <trkpt lat="44.70512" lon="6.62315">
        <ele>1252.003556</ele>
        <time>2026-08-17T12:25:26Z</time>
      </trkpt>
      <trkpt lat="44.70554" lon="6.62282">
        <ele>1257.378054</ele>
        <time>2026-08-17T12:26:02Z</time>
      </trkpt>
      <trkpt lat="44.70586" lon="6.6227">
        <ele>1261.06613</ele>
        <time>2026-08-17T12:26:25Z</time>
      </trkpt>
      <trkpt lat="44.70607" lon="6.62256">
        <ele>1263.278613</ele>
        <time>2026-08-17T12:26:40Z</time>
      </trkpt>
      <trkpt lat="44.70638" lon="6.62243">
        <ele>1266.050987</ele>
        <time>2026-08-17T12:27:00Z</time>
      </trkpt>
      <trkpt lat="44.7066" lon="6.62227">
        <ele>1268.225582</ele>
        <time>2026-08-17T12:27:15Z</time>
      </trkpt>
      <trkpt lat="44.70668" lon="6.62217">
        <ele>1269.134767</ele>
        <time>2026-08-17T12:27:21Z</time>
      </trkpt>
      <trkpt lat="44.70673" lon="6.62204">
        <ele>1270.05681</ele>
        <time>2026-08-17T12:27:28Z</time>
      </trkpt>
      <trkpt lat="44.70681" lon="6.62169">
        <ele>1272.310909</ele>
        <time>2026-08-17T12:27:43Z</time>
      </trkpt>
      <trkpt lat="44.70686" lon="6.62163">
        <ele>1272.898594</ele>
        <time>2026-08-17T12:27:48Z</time>
      </trkpt>
      <trkpt lat="44.70692" lon="6.62164">
        <ele>1273.386507</ele>
        <time>2026-08-17T12:27:52Z</time>
      </trkpt>
      <trkpt lat="44.70693" lon="6.62167">
        <ele>1273.642432</ele>
        <time>2026-08-17T12:27:53Z</time>
      </trkpt>
      <trkpt lat="44.70694" lon="6.62191">
        <ele>1275.125756</ele>
        <time>2026-08-17T12:28:04Z</time>
      </trkpt>
      <trkpt lat="44.70699" lon="6.62195">
        <ele>1275.609142</ele>
        <time>2026-08-17T12:28:08Z</time>
      </trkpt>
      <trkpt lat="44.7076" lon="6.62149">
        <ele>1281.182044</ele>
        <time>2026-08-17T12:28:49Z</time>
      </trkpt>
      <trkpt lat="44.7076" lon="6.62157">
        <ele>1281.628253</ele>
        <time>2026-08-17T12:28:53Z</time>
      </trkpt>
      <trkpt lat="44.70716" lon="6.62212">
        <ele>1286.217792</ele>
        <time>2026-08-17T12:29:36Z</time>
      </trkpt>
      <trkpt lat="44.70676" lon="6.62277">
        <ele>1291.018559</ele>
        <time>2026-08-17T12:30:18Z</time>
      </trkpt>
      <trkpt lat="44.70633" lon="6.62319">
        <ele>1295.164229</ele>
        <time>2026-08-17T12:30:52Z</time>
      </trkpt>
      <trkpt lat="44.70617" lon="6.62346">
        <ele>1297.161636</ele>
        <time>2026-08-17T12:31:09Z</time>
      </trkpt>
      <trkpt lat="44.70546" lon="6.62427">
        <ele>1304.495962</ele>
        <time>2026-08-17T12:32:15Z</time>
      </trkpt>
      <trkpt lat="44.7051" lon="6.62465">
        <ele>1308.523226</ele>
        <time>2026-08-17T12:32:51Z</time>
      </trkpt>
      <trkpt lat="44.70452" lon="6.62552">
        <ele>1316.862054</ele>
        <time>2026-08-17T12:34:02Z</time>
      </trkpt>
      <trkpt lat="44.70426" lon="6.62573">
        <ele>1319.799952</ele>
        <time>2026-08-17T12:34:28Z</time>
      </trkpt>
      <trkpt lat="44.70427" lon="6.62583">
        <ele>1320.492758</ele>
        <time>2026-08-17T12:34:34Z</time>
      </trkpt>
      <trkpt lat="44.70432" lon="6.62588">
        <ele>1321.092634</ele>
        <time>2026-08-17T12:34:39Z</time>
      </trkpt>
      <trkpt lat="44.70436" lon="6.62588">
        <ele>1321.536906</ele>
        <time>2026-08-17T12:34:42Z</time>
      </trkpt>
      <trkpt lat="44.70467" lon="6.62563">
        <ele>1324.809258</ele>
        <time>2026-08-17T12:35:11Z</time>
      </trkpt>
      <trkpt lat="44.70527" lon="6.62535">
        <ele>1329.709149</ele>
        <time>2026-08-17T12:35:57Z</time>
      </trkpt>
      <trkpt lat="44.70597" lon="6.62489">
        <ele>1335.818839</ele>
        <time>2026-08-17T12:36:49Z</time>
      </trkpt>
      <trkpt lat="44.70637" lon="6.62469">
        <ele>1338.946498</ele>
        <time>2026-08-17T12:37:17Z</time>
      </trkpt>
      <trkpt lat="44.70654" lon="6.62456">
        <ele>1340.305202</ele>
        <time>2026-08-17T12:37:30Z</time>
      </trkpt>
      <trkpt lat="44.70678" lon="6.62443">
        <ele>1342.141275</ele>
        <time>2026-08-17T12:37:48Z</time>
      </trkpt>
      <trkpt lat="44.7071" lon="6.62414">
        <ele>1344.728208</ele>
        <time>2026-08-17T12:38:14Z</time>
      </trkpt>
      <trkpt lat="44.70755" lon="6.62401">
        <ele>1347.932505</ele>
        <time>2026-08-17T12:38:45Z</time>
      </trkpt>
      <trkpt lat="44.70794" lon="6.62379">
        <ele>1350.694055</ele>
        <time>2026-08-17T12:39:13Z</time>
      </trkpt>
      <trkpt lat="44.70812" lon="6.62373">
        <ele>1351.45416</ele>
        <time>2026-08-17T12:39:25Z</time>
      </trkpt>
      <trkpt lat="44.70856" lon="6.62341">
        <ele>1353.486546</ele>
        <time>2026-08-17T12:39:53Z</time>
      </trkpt>
      <trkpt lat="44.70874" lon="6.62332">
        <ele>1354.265032</ele>
        <time>2026-08-17T12:40:03Z</time>
      </trkpt>
      <trkpt lat="44.7088" lon="6.62326">
        <ele>1354.578169</ele>
        <time>2026-08-17T12:40:07Z</time>
      </trkpt>
      <trkpt lat="44.70937" lon="6.6224">
        <ele>1357.930995</ele>
        <time>2026-08-17T12:40:42Z</time>
      </trkpt>
      <trkpt lat="44.70975" lon="6.62195">
        <ele>1359.23094</ele>
        <time>2026-08-17T12:41:05Z</time>
      </trkpt>
      <trkpt lat="44.71033" lon="6.6216">
        <ele>1360.901299</ele>
        <time>2026-08-17T12:41:38Z</time>
      </trkpt>
      <trkpt lat="44.71057" lon="6.62139">
        <ele>1361.646489</ele>
        <time>2026-08-17T12:41:51Z</time>
      </trkpt>
      <trkpt lat="44.71066" lon="6.62136">
        <ele>1361.880806</ele>
        <time>2026-08-17T12:41:55Z</time>
      </trkpt>
      <trkpt lat="44.71095" lon="6.6211">
        <ele>1362.428324</ele>
        <time>2026-08-17T12:42:09Z</time>
      </trkpt>
      <trkpt lat="44.71112" lon="6.62083">
        <ele>1362.01374</ele>
        <time>2026-08-17T12:42:17Z</time>
      </trkpt>
      <trkpt lat="44.71166" lon="6.62042">
        <ele>1361.028493</ele>
        <time>2026-08-17T12:42:35Z</time>
      </trkpt>
      <trkpt lat="44.71172" lon="6.62035">
        <ele>1360.906697</ele>
        <time>2026-08-17T12:42:36Z</time>
      </trkpt>
      <trkpt lat="44.71166" lon="6.62027">
        <ele>1360.777125</ele>
        <time>2026-08-17T12:42:38Z</time>
      </trkpt>
      <trkpt lat="44.71165" lon="6.62015">
        <ele>1360.641955</ele>
        <time>2026-08-17T12:42:41Z</time>
      </trkpt>
      <trkpt lat="44.71171" lon="6.61999">
        <ele>1360.436341</ele>
        <time>2026-08-17T12:42:44Z</time>
      </trkpt>
      <trkpt lat="44.71204" lon="6.61982">
        <ele>1359.874264</ele>
        <time>2026-08-17T12:42:53Z</time>
      </trkpt>
      <trkpt lat="44.7121" lon="6.61981">
        <ele>1359.764833</ele>
        <time>2026-08-17T12:42:54Z</time>
      </trkpt>
      <trkpt lat="44.71236" lon="6.61964">
        <ele>1359.577327</ele>
        <time>2026-08-17T12:42:58Z</time>
      </trkpt>
      <trkpt lat="44.71269" lon="6.61926">
        <ele>1359.387001</ele>
        <time>2026-08-17T12:43:06Z</time>
      </trkpt>
      <trkpt lat="44.71301" lon="6.619">
        <ele>1359.221756</ele>
        <time>2026-08-17T12:43:14Z</time>
      </trkpt>
      <trkpt lat="44.71354" lon="6.61863">
        <ele>1358.959329</ele>
        <time>2026-08-17T12:43:28Z</time>
      </trkpt>
      <trkpt lat="44.7143" lon="6.61804">
        <ele>1359.555071</ele>
        <time>2026-08-17T12:43:57Z</time>
      </trkpt>
      <trkpt lat="44.71449" lon="6.61779">
        <ele>1359.81393</ele>
        <time>2026-08-17T12:44:07Z</time>
      </trkpt>
      <trkpt lat="44.71473" lon="6.61763">
        <ele>1360.077036</ele>
        <time>2026-08-17T12:44:17Z</time>
      </trkpt>
      <trkpt lat="44.71509" lon="6.61732">
        <ele>1360.486788</ele>
        <time>2026-08-17T12:44:34Z</time>
      </trkpt>
      <trkpt lat="44.71541" lon="6.61694">
        <ele>1360.801535</ele>
        <time>2026-08-17T12:44:51Z</time>
      </trkpt>
      <trkpt lat="44.71553" lon="6.6167">
        <ele>1360.925955</ele>
        <time>2026-08-17T12:44:58Z</time>
      </trkpt>
      <trkpt lat="44.71565" lon="6.61658">
        <ele>1361.015552</ele>
        <time>2026-08-17T12:45:03Z</time>
      </trkpt>
      <trkpt lat="44.71608" lon="6.61659">
        <ele>1361.27403</ele>
        <time>2026-08-17T12:45:16Z</time>
      </trkpt>
      <trkpt lat="44.71613" lon="6.61655">
        <ele>1361.306603</ele>
        <time>2026-08-17T12:45:18Z</time>
      </trkpt>
      <trkpt lat="44.71617" lon="6.61644">
        <ele>1361.358736</ele>
        <time>2026-08-17T12:45:20Z</time>
      </trkpt>
      <trkpt lat="44.71612" lon="6.6163">
        <ele>1361.426644</ele>
        <time>2026-08-17T12:45:23Z</time>
      </trkpt>
      <trkpt lat="44.71606" lon="6.61623">
        <ele>1361.474383</ele>
        <time>2026-08-17T12:45:26Z</time>
      </trkpt>
      <trkpt lat="44.71603" lon="6.61611">
        <ele>1361.52743</ele>
        <time>2026-08-17T12:45:29Z</time>
      </trkpt>
      <trkpt lat="44.71606" lon="6.61597">
        <ele>1361.591472</ele>
        <time>2026-08-17T12:45:32Z</time>
      </trkpt>
      <trkpt lat="44.71613" lon="6.61578">
        <ele>1361.678431</ele>
        <time>2026-08-17T12:45:36Z</time>
      </trkpt>
      <trkpt lat="44.7162" lon="6.61554">
        <ele>1362.187676</ele>
        <time>2026-08-17T12:45:42Z</time>
      </trkpt>
      <trkpt lat="44.7162" lon="6.61537">
        <ele>1362.728937</ele>
        <time>2026-08-17T12:45:46Z</time>
      </trkpt>
      <trkpt lat="44.71614" lon="6.61528">
        <ele>1363.142942</ele>
        <time>2026-08-17T12:45:49Z</time>
      </trkpt>
      <trkpt lat="44.71615" lon="6.61511">
        <ele>1363.684308</ele>
        <time>2026-08-17T12:45:53Z</time>
      </trkpt>
      <trkpt lat="44.71632" lon="6.61514">
        <ele>1364.421202</ele>
        <time>2026-08-17T12:46:00Z</time>
      </trkpt>
      <trkpt lat="44.71639" lon="6.61519">
        <ele>1364.786404</ele>
        <time>2026-08-17T12:46:05Z</time>
      </trkpt>
      <trkpt lat="44.71644" lon="6.61519">
        <ele>1365.024115</ele>
        <time>2026-08-17T12:46:07Z</time>
      </trkpt>
      <trkpt lat="44.71657" lon="6.61513">
        <ele>1365.614639</ele>
        <time>2026-08-17T12:46:15Z</time>
      </trkpt>
      <trkpt lat="44.71682" lon="6.61506">
        <ele>1366.744371</ele>
        <time>2026-08-17T12:46:30Z</time>
      </trkpt>
      <trkpt lat="44.71691" lon="6.615">
        <ele>1367.174675</ele>
        <time>2026-08-17T12:46:36Z</time>
      </trkpt>
      <trkpt lat="44.71699" lon="6.61491">
        <ele>1367.630772</ele>
        <time>2026-08-17T12:46:43Z</time>
      </trkpt>
      <trkpt lat="44.71708" lon="6.61472">
        <ele>1368.334297</ele>
        <time>2026-08-17T12:46:54Z</time>
      </trkpt>
      <trkpt lat="44.71794" lon="6.61443">
        <ele>1373.390131</ele>
        <time>2026-08-17T12:47:48Z</time>
      </trkpt>
      <trkpt lat="44.718" lon="6.61428">
        <ele>1374.158413</ele>
        <time>2026-08-17T12:47:55Z</time>
      </trkpt>
      <trkpt lat="44.71801" lon="6.61387">
        <ele>1376.065446</ele>
        <time>2026-08-17T12:48:14Z</time>
      </trkpt>
      <trkpt lat="44.71804" lon="6.61361">
        <ele>1377.239005</ele>
        <time>2026-08-17T12:48:26Z</time>
      </trkpt>
      <trkpt lat="44.71809" lon="6.61357">
        <ele>1377.620472</ele>
        <time>2026-08-17T12:48:30Z</time>
      </trkpt>
      <trkpt lat="44.71813" lon="6.61362">
        <ele>1377.949075</ele>
        <time>2026-08-17T12:48:33Z</time>
      </trkpt>
      <trkpt lat="44.71811" lon="6.61381">
        <ele>1378.849527</ele>
        <time>2026-08-17T12:48:42Z</time>
      </trkpt>
      <trkpt lat="44.71813" lon="6.61389">
        <ele>1379.203991</ele>
        <time>2026-08-17T12:48:46Z</time>
      </trkpt>
      <trkpt lat="44.71834" lon="6.61429">
        <ele>1381.588367</ele>
        <time>2026-08-17T12:49:09Z</time>
      </trkpt>
      <trkpt lat="44.71842" lon="6.61455">
        <ele>1383.419324</ele>
        <time>2026-08-17T12:49:23Z</time>
      </trkpt>
      <trkpt lat="44.71848" lon="6.61456">
        <ele>1383.924605</ele>
        <time>2026-08-17T12:49:26Z</time>
      </trkpt>
      <trkpt lat="44.71847" lon="6.61382">
        <ele>1388.644771</ele>
        <time>2026-08-17T12:50:06Z</time>
      </trkpt>
      <trkpt lat="44.71848" lon="6.61366">
        <ele>1389.689726</ele>
        <time>2026-08-17T12:50:16Z</time>
      </trkpt>
      <trkpt lat="44.71871" lon="6.61329">
        <ele>1392.842335</ele>
        <time>2026-08-17T12:50:44Z</time>
      </trkpt>
      <trkpt lat="44.71875" lon="6.61315">
        <ele>1393.754278</ele>
        <time>2026-08-17T12:50:52Z</time>
      </trkpt>
      <trkpt lat="44.71878" lon="6.61314">
        <ele>1394.023501</ele>
        <time>2026-08-17T12:50:54Z</time>
      </trkpt>
      <trkpt lat="44.71881" lon="6.61316">
        <ele>1394.34443</ele>
        <time>2026-08-17T12:50:57Z</time>
      </trkpt>
      <trkpt lat="44.71882" lon="6.6132">
        <ele>1394.661281</ele>
        <time>2026-08-17T12:51:00Z</time>
      </trkpt>
      <trkpt lat="44.71873" lon="6.61353">
        <ele>1396.870901</ele>
        <time>2026-08-17T12:51:20Z</time>
      </trkpt>
      <trkpt lat="44.71874" lon="6.61387">
        <ele>1399.430428</ele>
        <time>2026-08-17T12:51:40Z</time>
      </trkpt>
      <trkpt lat="44.71878" lon="6.61392">
        <ele>1399.935974</ele>
        <time>2026-08-17T12:51:44Z</time>
      </trkpt>
      <trkpt lat="44.71883" lon="6.61387">
        <ele>1400.655885</ele>
        <time>2026-08-17T12:51:50Z</time>
      </trkpt>
      <trkpt lat="44.71887" lon="6.61364">
        <ele>1402.485189</ele>
        <time>2026-08-17T12:52:04Z</time>
      </trkpt>
      <trkpt lat="44.71899" lon="6.61322">
        <ele>1405.953636</ele>
        <time>2026-08-17T12:52:33Z</time>
      </trkpt>
      <trkpt lat="44.71902" lon="6.61319">
        <ele>1406.379557</ele>
        <time>2026-08-17T12:52:36Z</time>
      </trkpt>
      <trkpt lat="44.71906" lon="6.61321">
        <ele>1406.824856</ele>
        <time>2026-08-17T12:52:40Z</time>
      </trkpt>
      <trkpt lat="44.71904" lon="6.61349">
        <ele>1408.983271</ele>
        <time>2026-08-17T12:52:57Z</time>
      </trkpt>
      <trkpt lat="44.71905" lon="6.61385">
        <ele>1411.758063</ele>
        <time>2026-08-17T12:53:19Z</time>
      </trkpt>
      <trkpt lat="44.71899" lon="6.61431">
        <ele>1415.380744</ele>
        <time>2026-08-17T12:53:48Z</time>
      </trkpt>
      <trkpt lat="44.71901" lon="6.61442">
        <ele>1416.321357</ele>
        <time>2026-08-17T12:53:55Z</time>
      </trkpt>
      <trkpt lat="44.71903" lon="6.61444">
        <ele>1416.612857</ele>
        <time>2026-08-17T12:53:58Z</time>
      </trkpt>
      <trkpt lat="44.71908" lon="6.61444">
        <ele>1417.126629</ele>
        <time>2026-08-17T12:54:02Z</time>
      </trkpt>
      <trkpt lat="44.71908" lon="6.61422">
        <ele>1419.132349</ele>
        <time>2026-08-17T12:54:15Z</time>
      </trkpt>
      <trkpt lat="44.71912" lon="6.61414">
        <ele>1419.980471</ele>
        <time>2026-08-17T12:54:21Z</time>
      </trkpt>
      <trkpt lat="44.71949" lon="6.61352">
        <ele>1427.396021</ele>
        <time>2026-08-17T12:55:14Z</time>
      </trkpt>
      <trkpt lat="44.71953" lon="6.6135">
        <ele>1427.981973</ele>
        <time>2026-08-17T12:55:19Z</time>
      </trkpt>
      <trkpt lat="44.71969" lon="6.61315">
        <ele>1431.838329</ele>
        <time>2026-08-17T12:55:48Z</time>
      </trkpt>
      <trkpt lat="44.71988" lon="6.61279">
        <ele>1435.931641</ele>
        <time>2026-08-17T12:56:21Z</time>
      </trkpt>
      <trkpt lat="44.71996" lon="6.6127">
        <ele>1437.262614</ele>
        <time>2026-08-17T12:56:32Z</time>
      </trkpt>
      <trkpt lat="44.72014" lon="6.61259">
        <ele>1439.746192</ele>
        <time>2026-08-17T12:56:52Z</time>
      </trkpt>
      <trkpt lat="44.7204" lon="6.61253">
        <ele>1442.955737</ele>
        <time>2026-08-17T12:57:20Z</time>
      </trkpt>
      <trkpt lat="44.72051" lon="6.61252">
        <ele>1444.24595</ele>
        <time>2026-08-17T12:57:32Z</time>
      </trkpt>
      <trkpt lat="44.72111" lon="6.61261">
        <ele>1451.439133</ele>
        <time>2026-08-17T12:58:33Z</time>
      </trkpt>
      <trkpt lat="44.72137" lon="6.61279">
        <ele>1454.778908</ele>
        <time>2026-08-17T12:58:59Z</time>
      </trkpt>
      <trkpt lat="44.72145" lon="6.61282">
        <ele>1455.853296</ele>
        <time>2026-08-17T12:59:06Z</time>
      </trkpt>
      <trkpt lat="44.72164" lon="6.61284">
        <ele>1458.066074</ele>
        <time>2026-08-17T12:59:22Z</time>
      </trkpt>
      <trkpt lat="44.72189" lon="6.6128">
        <ele>1461.044486</ele>
        <time>2026-08-17T12:59:41Z</time>
      </trkpt>
      <trkpt lat="44.72236" lon="6.6126">
        <ele>1463.622464</ele>
        <time>2026-08-17T13:00:15Z</time>
      </trkpt>
      <trkpt lat="44.72279" lon="6.61249">
        <ele>1465.577737</ele>
        <time>2026-08-17T13:00:40Z</time>
      </trkpt>
      <trkpt lat="44.72311" lon="6.61234">
        <ele>1467.099186</ele>
        <time>2026-08-17T13:00:56Z</time>
      </trkpt>
      <trkpt lat="44.72389" lon="6.61209">
        <ele>1470.344305</ele>
        <time>2026-08-17T13:01:30Z</time>
      </trkpt>
      <trkpt lat="44.72396" lon="6.61204">
        <ele>1470.565956</ele>
        <time>2026-08-17T13:01:33Z</time>
      </trkpt>
      <trkpt lat="44.72424" lon="6.61166">
        <ele>1471.645819</ele>
        <time>2026-08-17T13:01:45Z</time>
      </trkpt>
      <trkpt lat="44.72435" lon="6.61159">
        <ele>1471.987851</ele>
        <time>2026-08-17T13:01:49Z</time>
      </trkpt>
      <trkpt lat="44.7245" lon="6.61159">
        <ele>1472.3984</ele>
        <time>2026-08-17T13:01:54Z</time>
      </trkpt>
      <trkpt lat="44.72461" lon="6.61167">
        <ele>1472.747382</ele>
        <time>2026-08-17T13:01:59Z</time>
      </trkpt>
      <trkpt lat="44.72476" lon="6.61183">
        <ele>1473.261712</ele>
        <time>2026-08-17T13:02:07Z</time>
      </trkpt>
      <trkpt lat="44.72484" lon="6.61188">
        <ele>1473.520819</ele>
        <time>2026-08-17T13:02:12Z</time>
      </trkpt>
      <trkpt lat="44.72523" lon="6.61193">
        <ele>1474.595023</ele>
        <time>2026-08-17T13:02:36Z</time>
      </trkpt>
      <trkpt lat="44.72528" lon="6.61197">
        <ele>1474.762835</ele>
        <time>2026-08-17T13:02:40Z</time>
      </trkpt>
      <trkpt lat="44.72534" lon="6.61216">
        <ele>1475.164869</ele>
        <time>2026-08-17T13:02:50Z</time>
      </trkpt>
      <trkpt lat="44.72539" lon="6.61254">
        <ele>1475.880658</ele>
        <time>2026-08-17T13:03:09Z</time>
      </trkpt>
      <trkpt lat="44.72544" lon="6.6134">
        <ele>1477.5275</ele>
        <time>2026-08-17T13:03:48Z</time>
      </trkpt>
      <trkpt lat="44.7255" lon="6.614">
        <ele>1478.673661</ele>
        <time>2026-08-17T13:04:05Z</time>
      </trkpt>
      <trkpt lat="44.7256" lon="6.61431">
        <ele>1479.314494</ele>
        <time>2026-08-17T13:04:12Z</time>
      </trkpt>
      <trkpt lat="44.72569" lon="6.61444">
        <ele>1479.386739</ele>
        <time>2026-08-17T13:04:15Z</time>
      </trkpt>
      <trkpt lat="44.7258" lon="6.61455">
        <ele>1478.644656</ele>
        <time>2026-08-17T13:04:18Z</time>
      </trkpt>
      <trkpt lat="44.726" lon="6.61448">
        <ele>1477.577123</ele>
        <time>2026-08-17T13:04:23Z</time>
      </trkpt>
      <trkpt lat="44.72605" lon="6.61451">
        <ele>1477.338636</ele>
        <time>2026-08-17T13:04:24Z</time>
      </trkpt>
      <trkpt lat="44.7261" lon="6.61459">
        <ele>1476.951093</ele>
        <time>2026-08-17T13:04:25Z</time>
      </trkpt>
      <trkpt lat="44.72631" lon="6.61512">
        <ele>1474.70331</ele>
        <time>2026-08-17T13:04:35Z</time>
      </trkpt>
      <trkpt lat="44.72635" lon="6.61518">
        <ele>1474.4071</ele>
        <time>2026-08-17T13:04:36Z</time>
      </trkpt>
      <trkpt lat="44.72648" lon="6.61518">
        <ele>1473.741932</ele>
        <time>2026-08-17T13:04:39Z</time>
      </trkpt>
      <trkpt lat="44.7267" lon="6.61509">
        <ele>1472.560755</ele>
        <time>2026-08-17T13:04:44Z</time>
      </trkpt>
      <trkpt lat="44.72687" lon="6.61517">
        <ele>1471.643947</ele>
        <time>2026-08-17T13:04:49Z</time>
      </trkpt>
      <trkpt lat="44.72708" lon="6.6154">
        <ele>1470.293823</ele>
        <time>2026-08-17T13:04:56Z</time>
      </trkpt>
      <trkpt lat="44.72711" lon="6.61568">
        <ele>1470.926065</ele>
        <time>2026-08-17T13:05:02Z</time>
      </trkpt>
      <trkpt lat="44.72714" lon="6.61577">
        <ele>1471.137471</ele>
        <time>2026-08-17T13:05:04Z</time>
      </trkpt>
      <trkpt lat="44.72718" lon="6.61581">
        <ele>1471.291606</ele>
        <time>2026-08-17T13:05:06Z</time>
      </trkpt>
      <trkpt lat="44.72753" lon="6.6159">
        <ele>1472.417004</ele>
        <time>2026-08-17T13:05:22Z</time>
      </trkpt>
      <trkpt lat="44.72781" lon="6.61559">
        <ele>1473.559931</ele>
        <time>2026-08-17T13:05:42Z</time>
      </trkpt>
      <trkpt lat="44.72792" lon="6.61556">
        <ele>1473.91722</ele>
        <time>2026-08-17T13:05:49Z</time>
      </trkpt>
      <trkpt lat="44.72797" lon="6.61557">
        <ele>1474.072356</ele>
        <time>2026-08-17T13:05:51Z</time>
      </trkpt>
      <trkpt lat="44.72839" lon="6.61593">
        <ele>1475.631324</ele>
        <time>2026-08-17T13:06:20Z</time>
      </trkpt>
      <trkpt lat="44.72846" lon="6.616">
        <ele>1475.899273</ele>
        <time>2026-08-17T13:06:25Z</time>
      </trkpt>
      <trkpt lat="44.72851" lon="6.61601">
        <ele>1476.207221</ele>
        <time>2026-08-17T13:06:28Z</time>
      </trkpt>
      <trkpt lat="44.72865" lon="6.61599">
        <ele>1477.226188</ele>
        <time>2026-08-17T13:06:37Z</time>
      </trkpt>
      <trkpt lat="44.72888" lon="6.61602">
        <ele>1478.898502</ele>
        <time>2026-08-17T13:06:51Z</time>
      </trkpt>
      <trkpt lat="44.72957" lon="6.61593">
        <ele>1484.022534</ele>
        <time>2026-08-17T13:07:40Z</time>
      </trkpt>
      <trkpt lat="44.72995" lon="6.61583">
        <ele>1486.859002</ele>
        <time>2026-08-17T13:08:07Z</time>
      </trkpt>
      <trkpt lat="44.7302" lon="6.61603">
        <ele>1488.994748</ele>
        <time>2026-08-17T13:08:28Z</time>
      </trkpt>
      <trkpt lat="44.73037" lon="6.61621">
        <ele>1490.868625</ele>
        <time>2026-08-17T13:08:44Z</time>
      </trkpt>
      <trkpt lat="44.73052" lon="6.61625">
        <ele>1492.312567</ele>
        <time>2026-08-17T13:08:56Z</time>
      </trkpt>
      <trkpt lat="44.73078" lon="6.6162">
        <ele>1494.674741</ele>
        <time>2026-08-17T13:09:15Z</time>
      </trkpt>
      <trkpt lat="44.73096" lon="6.61621">
        <ele>1496.344625</ele>
        <time>2026-08-17T13:09:29Z</time>
      </trkpt>
      <trkpt lat="44.73102" lon="6.6162">
        <ele>1496.94792</ele>
        <time>2026-08-17T13:09:35Z</time>
      </trkpt>
      <trkpt lat="44.73122" lon="6.61596">
        <ele>1499.361134</ele>
        <time>2026-08-17T13:09:55Z</time>
      </trkpt>
      <trkpt lat="44.73147" lon="6.61574">
        <ele>1502.144561</ele>
        <time>2026-08-17T13:10:20Z</time>
      </trkpt>
      <trkpt lat="44.73197" lon="6.61551">
        <ele>1506.850978</ele>
        <time>2026-08-17T13:11:02Z</time>
      </trkpt>
      <trkpt lat="44.73212" lon="6.61548">
        <ele>1508.045178</ele>
        <time>2026-08-17T13:11:14Z</time>
      </trkpt>
      <trkpt lat="44.73241" lon="6.61553">
        <ele>1510.427906</ele>
        <time>2026-08-17T13:11:38Z</time>
      </trkpt>
      <trkpt lat="44.73291" lon="6.61551">
        <ele>1514.446022</ele>
        <time>2026-08-17T13:12:17Z</time>
      </trkpt>
      <trkpt lat="44.73336" lon="6.61535">
        <ele>1518.184345</ele>
        <time>2026-08-17T13:12:50Z</time>
      </trkpt>
      <trkpt lat="44.73355" lon="6.61537">
        <ele>1519.739931</ele>
        <time>2026-08-17T13:13:02Z</time>
      </trkpt>
      <trkpt lat="44.73391" lon="6.61553">
        <ele>1521.425025</ele>
        <time>2026-08-17T13:13:22Z</time>
      </trkpt>
      <trkpt lat="44.73411" lon="6.61547">
        <ele>1522.132972</ele>
        <time>2026-08-17T13:13:31Z</time>
      </trkpt>
      <trkpt lat="44.73426" lon="6.61548">
        <ele>1522.635087</ele>
        <time>2026-08-17T13:13:38Z</time>
      </trkpt>
      <trkpt lat="44.73436" lon="6.61561">
        <ele>1523.11727</ele>
        <time>2026-08-17T13:13:44Z</time>
      </trkpt>
      <trkpt lat="44.73481" lon="6.6165">
        <ele>1525.824852</ele>
        <time>2026-08-17T13:14:18Z</time>
      </trkpt>
      <trkpt lat="44.73518" lon="6.61711">
        <ele>1528.970005</ele>
        <time>2026-08-17T13:14:46Z</time>
      </trkpt>
      <trkpt lat="44.73531" lon="6.61743">
        <ele>1530.750553</ele>
        <time>2026-08-17T13:15:01Z</time>
      </trkpt>
      <trkpt lat="44.73538" lon="6.6175">
        <ele>1531.319292</ele>
        <time>2026-08-17T13:15:06Z</time>
      </trkpt>
      <trkpt lat="44.73558" lon="6.61782">
        <ele>1533.430233</ele>
        <time>2026-08-17T13:15:26Z</time>
      </trkpt>
      <trkpt lat="44.73574" lon="6.61816">
        <ele>1535.438959</ele>
        <time>2026-08-17T13:15:47Z</time>
      </trkpt>
      <trkpt lat="44.73581" lon="6.61837">
        <ele>1536.589784</ele>
        <time>2026-08-17T13:16:01Z</time>
      </trkpt>
      <trkpt lat="44.73598" lon="6.61912">
        <ele>1540.132976</ele>
        <time>2026-08-17T13:16:47Z</time>
      </trkpt>
      <trkpt lat="44.73609" lon="6.61938">
        <ele>1541.231249</ele>
        <time>2026-08-17T13:17:05Z</time>
      </trkpt>
      <trkpt lat="44.7361" lon="6.61955">
        <ele>1541.864569</ele>
        <time>2026-08-17T13:17:15Z</time>
      </trkpt>
      <trkpt lat="44.73619" lon="6.61999">
        <ele>1543.570193</ele>
        <time>2026-08-17T13:17:38Z</time>
      </trkpt>
      <trkpt lat="44.73618" lon="6.62024">
        <ele>1544.507658</ele>
        <time>2026-08-17T13:17:49Z</time>
      </trkpt>
      <trkpt lat="44.73613" lon="6.62052">
        <ele>1545.561572</ele>
        <time>2026-08-17T13:17:59Z</time>
      </trkpt>
      <trkpt lat="44.73613" lon="6.62071">
        <ele>1546.275593</ele>
        <time>2026-08-17T13:18:05Z</time>
      </trkpt>
      <trkpt lat="44.73619" lon="6.62089">
        <ele>1547.023659</ele>
        <time>2026-08-17T13:18:11Z</time>
      </trkpt>
      <trkpt lat="44.73659" lon="6.62176">
        <ele>1548.029653</ele>
        <time>2026-08-17T13:18:32Z</time>
      </trkpt>
      <trkpt lat="44.73666" lon="6.62197">
        <ele>1547.868029</ele>
        <time>2026-08-17T13:18:36Z</time>
      </trkpt>
      <trkpt lat="44.73676" lon="6.62239">
        <ele>1547.565059</ele>
        <time>2026-08-17T13:18:44Z</time>
      </trkpt>
      <trkpt lat="44.73688" lon="6.62256">
        <ele>1547.402062</ele>
        <time>2026-08-17T13:18:49Z</time>
      </trkpt>
      <trkpt lat="44.73694" lon="6.62259">
        <ele>1547.338419</ele>
        <time>2026-08-17T13:18:51Z</time>
      </trkpt>
      <trkpt lat="44.73699" lon="6.62262">
        <ele>1547.288645</ele>
        <time>2026-08-17T13:18:52Z</time>
      </trkpt>
      <trkpt lat="44.73719" lon="6.62265">
        <ele>1547.094897</ele>
        <time>2026-08-17T13:18:58Z</time>
      </trkpt>
      <trkpt lat="44.73725" lon="6.62278">
        <ele>1546.987271</ele>
        <time>2026-08-17T13:19:02Z</time>
      </trkpt>
      <trkpt lat="44.73721" lon="6.62321">
        <ele>1546.862029</ele>
        <time>2026-08-17T13:19:14Z</time>
      </trkpt>
      <trkpt lat="44.73715" lon="6.62361">
        <ele>1547.740979</ele>
        <time>2026-08-17T13:19:25Z</time>
      </trkpt>
      <trkpt lat="44.73716" lon="6.62379">
        <ele>1548.115747</ele>
        <time>2026-08-17T13:19:30Z</time>
      </trkpt>
      <trkpt lat="44.73717" lon="6.62382">
        <ele>1548.206015</ele>
        <time>2026-08-17T13:19:31Z</time>
      </trkpt>
      <trkpt lat="44.73724" lon="6.62382">
        <ele>1548.39459</ele>
        <time>2026-08-17T13:19:34Z</time>
      </trkpt>
      <trkpt lat="44.73747" lon="6.62354">
        <ele>1549.316086</ele>
        <time>2026-08-17T13:19:49Z</time>
      </trkpt>
      <trkpt lat="44.73759" lon="6.6233">
        <ele>1549.931196</ele>
        <time>2026-08-17T13:19:59Z</time>
      </trkpt>
      <trkpt lat="44.73762" lon="6.6232">
        <ele>1550.171507</ele>
        <time>2026-08-17T13:20:02Z</time>
      </trkpt>
      <trkpt lat="44.73762" lon="6.62309">
        <ele>1550.397728</ele>
        <time>2026-08-17T13:20:06Z</time>
      </trkpt>
      <trkpt lat="44.73759" lon="6.62272">
        <ele>1551.198464</ele>
        <time>2026-08-17T13:20:20Z</time>
      </trkpt>
      <trkpt lat="44.7376" lon="6.62238">
        <ele>1551.911947</ele>
        <time>2026-08-17T13:20:32Z</time>
      </trkpt>
      <trkpt lat="44.73773" lon="6.62187">
        <ele>1554.325393</ele>
        <time>2026-08-17T13:20:54Z</time>
      </trkpt>
      <trkpt lat="44.73796" lon="6.6213">
        <ele>1557.633464</ele>
        <time>2026-08-17T13:21:23Z</time>
      </trkpt>
      <trkpt lat="44.73799" lon="6.62112">
        <ele>1558.565573</ele>
        <time>2026-08-17T13:21:32Z</time>
      </trkpt>
      <trkpt lat="44.73802" lon="6.62109">
        <ele>1558.800815</ele>
        <time>2026-08-17T13:21:34Z</time>
      </trkpt>
      <trkpt lat="44.73807" lon="6.6211">
        <ele>1559.154515</ele>
        <time>2026-08-17T13:21:38Z</time>
      </trkpt>
      <trkpt lat="44.73808" lon="6.62121">
        <ele>1559.720089</ele>
        <time>2026-08-17T13:21:44Z</time>
      </trkpt>
      <trkpt lat="44.73793" lon="6.62193">
        <ele>1563.449177</ele>
        <time>2026-08-17T13:22:23Z</time>
      </trkpt>
      <trkpt lat="44.73796" lon="6.62248">
        <ele>1566.850591</ele>
        <time>2026-08-17T13:22:52Z</time>
      </trkpt>
      <trkpt lat="44.73832" lon="6.62338">
        <ele>1574.418142</ele>
        <time>2026-08-17T13:23:55Z</time>
      </trkpt>
      <trkpt lat="44.73846" lon="6.62382">
        <ele>1577.919561</ele>
        <time>2026-08-17T13:24:25Z</time>
      </trkpt>
      <trkpt lat="44.7385" lon="6.62392">
        <ele>1578.754046</ele>
        <time>2026-08-17T13:24:32Z</time>
      </trkpt>
      <trkpt lat="44.7387" lon="6.62412">
        <ele>1581.223542</ele>
        <time>2026-08-17T13:24:54Z</time>
      </trkpt>
      <trkpt lat="44.73877" lon="6.62434">
        <ele>1582.988157</ele>
        <time>2026-08-17T13:25:08Z</time>
      </trkpt>
      <trkpt lat="44.73896" lon="6.62456">
        <ele>1585.133989</ele>
        <time>2026-08-17T13:25:28Z</time>
      </trkpt>
      <trkpt lat="44.73898" lon="6.62462">
        <ele>1585.5258</ele>
        <time>2026-08-17T13:25:32Z</time>
      </trkpt>
      <trkpt lat="44.73898" lon="6.62476">
        <ele>1586.395471</ele>
        <time>2026-08-17T13:25:40Z</time>
      </trkpt>
      <trkpt lat="44.7389" lon="6.62497">
        <ele>1587.850494</ele>
        <time>2026-08-17T13:25:53Z</time>
      </trkpt>
      <trkpt lat="44.7389" lon="6.62538">
        <ele>1590.365227</ele>
        <time>2026-08-17T13:26:15Z</time>
      </trkpt>
      <trkpt lat="44.7391" lon="6.62605">
        <ele>1594.885024</ele>
        <time>2026-08-17T13:26:52Z</time>
      </trkpt>
      <trkpt lat="44.7393" lon="6.62647">
        <ele>1597.951971</ele>
        <time>2026-08-17T13:27:16Z</time>
      </trkpt>
      <trkpt lat="44.73934" lon="6.62662">
        <ele>1598.86978</ele>
        <time>2026-08-17T13:27:23Z</time>
      </trkpt>
      <trkpt lat="44.73934" lon="6.62673">
        <ele>1599.359453</ele>
        <time>2026-08-17T13:27:29Z</time>
      </trkpt>
      <trkpt lat="44.73935" lon="6.62689">
        <ele>1600.012801</ele>
        <time>2026-08-17T13:27:37Z</time>
      </trkpt>
      <trkpt lat="44.73943" lon="6.62674">
        <ele>1600.781948</ele>
        <time>2026-08-17T13:27:47Z</time>
      </trkpt>
      <trkpt lat="44.73948" lon="6.62641">
        <ele>1602.171722</ele>
        <time>2026-08-17T13:28:06Z</time>
      </trkpt>
      <trkpt lat="44.73949" lon="6.62581">
        <ele>1604.678337</ele>
        <time>2026-08-17T13:28:38Z</time>
      </trkpt>
      <trkpt lat="44.73953" lon="6.62552">
        <ele>1605.926836</ele>
        <time>2026-08-17T13:28:51Z</time>
      </trkpt>
      <trkpt lat="44.73955" lon="6.62539">
        <ele>1606.486084</ele>
        <time>2026-08-17T13:28:57Z</time>
      </trkpt>
      <trkpt lat="44.73956" lon="6.62491">
        <ele>1608.457445</ele>
        <time>2026-08-17T13:29:13Z</time>
      </trkpt>
      <trkpt lat="44.7396" lon="6.62481">
        <ele>1608.943811</ele>
        <time>2026-08-17T13:29:16Z</time>
      </trkpt>
      <trkpt lat="44.73972" lon="6.62467">
        <ele>1609.237698</ele>
        <time>2026-08-17T13:29:21Z</time>
      </trkpt>
      <trkpt lat="44.73978" lon="6.62454">
        <ele>1609.084994</ele>
        <time>2026-08-17T13:29:25Z</time>
      </trkpt>
      <trkpt lat="44.73978" lon="6.62448">
        <ele>1609.029339</ele>
        <time>2026-08-17T13:29:26Z</time>
      </trkpt>
      <trkpt lat="44.73972" lon="6.6244">
        <ele>1608.9122</ele>
        <time>2026-08-17T13:29:28Z</time>
      </trkpt>
      <trkpt lat="44.73951" lon="6.62431">
        <ele>1608.620714</ele>
        <time>2026-08-17T13:29:35Z</time>
      </trkpt>
      <trkpt lat="44.73938" lon="6.62419">
        <ele>1608.401755</ele>
        <time>2026-08-17T13:29:39Z</time>
      </trkpt>
      <trkpt lat="44.73927" lon="6.624">
        <ele>1608.16274</ele>
        <time>2026-08-17T13:29:44Z</time>
      </trkpt>
      <trkpt lat="44.73912" lon="6.62388">
        <ele>1607.925153</ele>
        <time>2026-08-17T13:29:48Z</time>
      </trkpt>
      <trkpt lat="44.73903" lon="6.62369">
        <ele>1607.703578</ele>
        <time>2026-08-17T13:29:52Z</time>
      </trkpt>
      <trkpt lat="44.739" lon="6.62333">
        <ele>1607.354052</ele>
        <time>2026-08-17T13:29:58Z</time>
      </trkpt>
      <trkpt lat="44.73888" lon="6.62291">
        <ele>1606.907127</ele>
        <time>2026-08-17T13:30:07Z</time>
      </trkpt>
      <trkpt lat="44.73881" lon="6.62229">
        <ele>1607.319398</ele>
        <time>2026-08-17T13:30:22Z</time>
      </trkpt>
      <trkpt lat="44.73883" lon="6.62191">
        <ele>1607.591531</ele>
        <time>2026-08-17T13:30:33Z</time>
      </trkpt>
      <trkpt lat="44.73895" lon="6.62138">
        <ele>1608.000345</ele>
        <time>2026-08-17T13:30:51Z</time>
      </trkpt>
      <trkpt lat="44.73898" lon="6.62084">
        <ele>1608.385</ele>
        <time>2026-08-17T13:31:07Z</time>
      </trkpt>
      <trkpt lat="44.73911" lon="6.62053">
        <ele>1608.648585</ele>
        <time>2026-08-17T13:31:17Z</time>
      </trkpt>
      <trkpt lat="44.73916" lon="6.62001">
        <ele>1609.327697</ele>
        <time>2026-08-17T13:31:30Z</time>
      </trkpt>
      <trkpt lat="44.73927" lon="6.61938">
        <ele>1610.237053</ele>
        <time>2026-08-17T13:31:44Z</time>
      </trkpt>
      <trkpt lat="44.7393" lon="6.61878">
        <ele>1611.089053</ele>
        <time>2026-08-17T13:32:00Z</time>
      </trkpt>
      <trkpt lat="44.73939" lon="6.61834">
        <ele>1611.741248</ele>
        <time>2026-08-17T13:32:15Z</time>
      </trkpt>
      <trkpt lat="44.73952" lon="6.61808">
        <ele>1612.184015</ele>
        <time>2026-08-17T13:32:28Z</time>
      </trkpt>
      <trkpt lat="44.73969" lon="6.61768">
        <ele>1612.677512</ele>
        <time>2026-08-17T13:32:48Z</time>
      </trkpt>
      <trkpt lat="44.73975" lon="6.61762">
        <ele>1612.777053</ele>
        <time>2026-08-17T13:32:53Z</time>
      </trkpt>
      <trkpt lat="44.73982" lon="6.61748">
        <ele>1612.945582</ele>
        <time>2026-08-17T13:33:00Z</time>
      </trkpt>
      <trkpt lat="44.73994" lon="6.61712">
        <ele>1613.340049</ele>
        <time>2026-08-17T13:33:17Z</time>
      </trkpt>
      <trkpt lat="44.73996" lon="6.6168">
        <ele>1613.662158</ele>
        <time>2026-08-17T13:33:28Z</time>
      </trkpt>
      <trkpt lat="44.74007" lon="6.61648">
        <ele>1614.012757</ele>
        <time>2026-08-17T13:33:38Z</time>
      </trkpt>
      <trkpt lat="44.73998" lon="6.6163">
        <ele>1614.232268</ele>
        <time>2026-08-17T13:33:43Z</time>
      </trkpt>
      <trkpt lat="44.7398" lon="6.61618">
        <ele>1614.507864</ele>
        <time>2026-08-17T13:33:49Z</time>
      </trkpt>
      <trkpt lat="44.73925" lon="6.61536">
        <ele>1608.994138</ele>
        <time>2026-08-17T13:34:07Z</time>
      </trkpt>
      <trkpt lat="44.73919" lon="6.61525">
        <ele>1608.039989</ele>
        <time>2026-08-17T13:34:09Z</time>
      </trkpt>
      <trkpt lat="44.73893" lon="6.61449">
        <ele>1602.104662</ele>
        <time>2026-08-17T13:34:22Z</time>
      </trkpt>
      <trkpt lat="44.73888" lon="6.61432">
        <ele>1600.805851</ele>
        <time>2026-08-17T13:34:24Z</time>
      </trkpt>
      <trkpt lat="44.73878" lon="6.61421">
        <ele>1599.56602</ele>
        <time>2026-08-17T13:34:27Z</time>
      </trkpt>
      <trkpt lat="44.73871" lon="6.61393">
        <ele>1597.503503</ele>
        <time>2026-08-17T13:34:31Z</time>
      </trkpt>
      <trkpt lat="44.73862" lon="6.61381">
        <ele>1595.690093</ele>
        <time>2026-08-17T13:34:34Z</time>
      </trkpt>
      <trkpt lat="44.73853" lon="6.61357">
        <ele>1592.449752</ele>
        <time>2026-08-17T13:34:38Z</time>
      </trkpt>
      <trkpt lat="44.73837" lon="6.61344">
        <ele>1589.453834</ele>
        <time>2026-08-17T13:34:42Z</time>
      </trkpt>
      <trkpt lat="44.73826" lon="6.61325">
        <ele>1586.622454</ele>
        <time>2026-08-17T13:34:45Z</time>
      </trkpt>
      <trkpt lat="44.73804" lon="6.6131">
        <ele>1582.526461</ele>
        <time>2026-08-17T13:34:50Z</time>
      </trkpt>
      <trkpt lat="44.73792" lon="6.61293">
        <ele>1579.728177</ele>
        <time>2026-08-17T13:34:53Z</time>
      </trkpt>
      <trkpt lat="44.73774" lon="6.6128">
        <ele>1576.257256</ele>
        <time>2026-08-17T13:34:57Z</time>
      </trkpt>
      <trkpt lat="44.7372" lon="6.61232">
        <ele>1565.585345</ele>
        <time>2026-08-17T13:35:10Z</time>
      </trkpt>
      <trkpt lat="44.73691" lon="6.61194">
        <ele>1558.85699</ele>
        <time>2026-08-17T13:35:18Z</time>
      </trkpt>
      <trkpt lat="44.73659" lon="6.61159">
        <ele>1551.948638</ele>
        <time>2026-08-17T13:35:26Z</time>
      </trkpt>
      <trkpt lat="44.7365" lon="6.61142">
        <ele>1549.375757</ele>
        <time>2026-08-17T13:35:29Z</time>
      </trkpt>
      <trkpt lat="44.73615" lon="6.61124">
        <ele>1542.935934</ele>
        <time>2026-08-17T13:35:37Z</time>
      </trkpt>
      <trkpt lat="44.73598" lon="6.61107">
        <ele>1539.491423</ele>
        <time>2026-08-17T13:35:41Z</time>
      </trkpt>
      <trkpt lat="44.7357" lon="6.61091">
        <ele>1533.603805</ele>
        <time>2026-08-17T13:35:47Z</time>
      </trkpt>
      <trkpt lat="44.73538" lon="6.61081">
        <ele>1526.332135</ele>
        <time>2026-08-17T13:35:53Z</time>
      </trkpt>
      <trkpt lat="44.73509" lon="6.61078">
        <ele>1519.804059</ele>
        <time>2026-08-17T13:35:58Z</time>
      </trkpt>
      <trkpt lat="44.73486" lon="6.6107">
        <ele>1514.502634</ele>
        <time>2026-08-17T13:36:03Z</time>
      </trkpt>
      <trkpt lat="44.7345" lon="6.61065">
        <ele>1506.311669</ele>
        <time>2026-08-17T13:36:10Z</time>
      </trkpt>
      <trkpt lat="44.73442" lon="6.61056">
        <ele>1503.999288</ele>
        <time>2026-08-17T13:36:12Z</time>
      </trkpt>
      <trkpt lat="44.73425" lon="6.61071">
        <ele>1499.536837</ele>
        <time>2026-08-17T13:36:16Z</time>
      </trkpt>
      <trkpt lat="44.73413" lon="6.61069">
        <ele>1496.793922</ele>
        <time>2026-08-17T13:36:18Z</time>
      </trkpt>
      <trkpt lat="44.73395" lon="6.61054">
        <ele>1493.958349</ele>
        <time>2026-08-17T13:36:22Z</time>
      </trkpt>
      <trkpt lat="44.73385" lon="6.61028">
        <ele>1491.433497</ele>
        <time>2026-08-17T13:36:27Z</time>
      </trkpt>
      <trkpt lat="44.7338" lon="6.61027">
        <ele>1490.863906</ele>
        <time>2026-08-17T13:36:28Z</time>
      </trkpt>
      <trkpt lat="44.73377" lon="6.61039">
        <ele>1489.816316</ele>
        <time>2026-08-17T13:36:29Z</time>
      </trkpt>
      <trkpt lat="44.73375" lon="6.6104">
        <ele>1489.509992</ele>
        <time>2026-08-17T13:36:30Z</time>
      </trkpt>
      <trkpt lat="44.73367" lon="6.61035">
        <ele>1488.459575</ele>
        <time>2026-08-17T13:36:32Z</time>
      </trkpt>
      <trkpt lat="44.73324" lon="6.60985">
        <ele>1481.699432</ele>
        <time>2026-08-17T13:36:44Z</time>
      </trkpt>
      <trkpt lat="44.73296" lon="6.60958">
        <ele>1477.661769</ele>
        <time>2026-08-17T13:36:51Z</time>
      </trkpt>
      <trkpt lat="44.73256" lon="6.60929">
        <ele>1473.171422</ele>
        <time>2026-08-17T13:37:02Z</time>
      </trkpt>
      <trkpt lat="44.73213" lon="6.60898">
        <ele>1469.788038</ele>
        <time>2026-08-17T13:37:13Z</time>
      </trkpt>
      <trkpt lat="44.73188" lon="6.60893">
        <ele>1468.013108</ele>
        <time>2026-08-17T13:37:19Z</time>
      </trkpt>
      <trkpt lat="44.73166" lon="6.60884">
        <ele>1466.398486</ele>
        <time>2026-08-17T13:37:24Z</time>
      </trkpt>
      <trkpt lat="44.7313" lon="6.60863">
        <ele>1463.671464</ele>
        <time>2026-08-17T13:37:33Z</time>
      </trkpt>
      <trkpt lat="44.73106" lon="6.60838">
        <ele>1461.473889</ele>
        <time>2026-08-17T13:37:40Z</time>
      </trkpt>
      <trkpt lat="44.73093" lon="6.60829">
        <ele>1460.147426</ele>
        <time>2026-08-17T13:37:43Z</time>
      </trkpt>
      <trkpt lat="44.73044" lon="6.60814">
        <ele>1455.320184</ele>
        <time>2026-08-17T13:37:54Z</time>
      </trkpt>
      <trkpt lat="44.72996" lon="6.60785">
        <ele>1450.421246</ele>
        <time>2026-08-17T13:38:05Z</time>
      </trkpt>
      <trkpt lat="44.72962" lon="6.60749">
        <ele>1446.309078</ele>
        <time>2026-08-17T13:38:14Z</time>
      </trkpt>
      <trkpt lat="44.72945" lon="6.60717">
        <ele>1443.368202</ele>
        <time>2026-08-17T13:38:20Z</time>
      </trkpt>
      <trkpt lat="44.72926" lon="6.60667">
        <ele>1438.634837</ele>
        <time>2026-08-17T13:38:29Z</time>
      </trkpt>
      <trkpt lat="44.72925" lon="6.60645">
        <ele>1436.834362</ele>
        <time>2026-08-17T13:38:32Z</time>
      </trkpt>
      <trkpt lat="44.7293" lon="6.60635">
        <ele>1435.780465</ele>
        <time>2026-08-17T13:38:34Z</time>
      </trkpt>
      <trkpt lat="44.72927" lon="6.60628">
        <ele>1435.120499</ele>
        <time>2026-08-17T13:38:35Z</time>
      </trkpt>
      <trkpt lat="44.72925" lon="6.60611">
        <ele>1433.724897</ele>
        <time>2026-08-17T13:38:37Z</time>
      </trkpt>
      <trkpt lat="44.72925" lon="6.60574">
        <ele>1430.662661</ele>
        <time>2026-08-17T13:38:43Z</time>
      </trkpt>
      <trkpt lat="44.72953" lon="6.605">
        <ele>1423.624959</ele>
        <time>2026-08-17T13:38:55Z</time>
      </trkpt>
      <trkpt lat="44.73017" lon="6.60361">
        <ele>1410.269</ele>
        <time>2026-08-17T13:39:21Z</time>
      </trkpt>
      <trkpt lat="44.73026" lon="6.60334">
        <ele>1407.868857</ele>
        <time>2026-08-17T13:39:25Z</time>
      </trkpt>
      <trkpt lat="44.73026" lon="6.60328">
        <ele>1407.349724</ele>
        <time>2026-08-17T13:39:26Z</time>
      </trkpt>
      <trkpt lat="44.72991" lon="6.60288">
        <ele>1401.913994</ele>
        <time>2026-08-17T13:39:35Z</time>
      </trkpt>
      <trkpt lat="44.72983" lon="6.60258">
        <ele>1398.567928</ele>
        <time>2026-08-17T13:39:40Z</time>
      </trkpt>
      <trkpt lat="44.72944" lon="6.60274">
        <ele>1392.585293</ele>
        <time>2026-08-17T13:39:48Z</time>
      </trkpt>
      <trkpt lat="44.72939" lon="6.60279">
        <ele>1391.597914</ele>
        <time>2026-08-17T13:39:50Z</time>
      </trkpt>
      <trkpt lat="44.72926" lon="6.60313">
        <ele>1387.61282</ele>
        <time>2026-08-17T13:39:55Z</time>
      </trkpt>
      <trkpt lat="44.72885" lon="6.60348">
        <ele>1380.573709</ele>
        <time>2026-08-17T13:40:05Z</time>
      </trkpt>
      <trkpt lat="44.72864" lon="6.60375">
        <ele>1376.491676</ele>
        <time>2026-08-17T13:40:10Z</time>
      </trkpt>
      <trkpt lat="44.72804" lon="6.6042">
        <ele>1369.490197</ele>
        <time>2026-08-17T13:40:24Z</time>
      </trkpt>
      <trkpt lat="44.72774" lon="6.60439">
        <ele>1366.106252</ele>
        <time>2026-08-17T13:40:31Z</time>
      </trkpt>
      <trkpt lat="44.72759" lon="6.60453">
        <ele>1364.273648</ele>
        <time>2026-08-17T13:40:35Z</time>
      </trkpt>
      <trkpt lat="44.72757" lon="6.60451">
        <ele>1363.956416</ele>
        <time>2026-08-17T13:40:36Z</time>
      </trkpt>
      <trkpt lat="44.7276" lon="6.60443">
        <ele>1363.347856</ele>
        <time>2026-08-17T13:40:37Z</time>
      </trkpt>
      <trkpt lat="44.72801" lon="6.60398">
        <ele>1357.984973</ele>
        <time>2026-08-17T13:40:49Z</time>
      </trkpt>
      <trkpt lat="44.72815" lon="6.60371">
        <ele>1355.461715</ele>
        <time>2026-08-17T13:40:55Z</time>
      </trkpt>
      <trkpt lat="44.72825" lon="6.60338">
        <ele>1352.794967</ele>
        <time>2026-08-17T13:41:00Z</time>
      </trkpt>
      <trkpt lat="44.72848" lon="6.60318">
        <ele>1349.99831</ele>
        <time>2026-08-17T13:41:06Z</time>
      </trkpt>
      <trkpt lat="44.72854" lon="6.60301">
        <ele>1348.53599</ele>
        <time>2026-08-17T13:41:09Z</time>
      </trkpt>
      <trkpt lat="44.7286" lon="6.60277">
        <ele>1346.733633</ele>
        <time>2026-08-17T13:41:13Z</time>
      </trkpt>
      <trkpt lat="44.72859" lon="6.60264">
        <ele>1345.714245</ele>
        <time>2026-08-17T13:41:15Z</time>
      </trkpt>
      <trkpt lat="44.72853" lon="6.6025">
        <ele>1344.501697</ele>
        <time>2026-08-17T13:41:18Z</time>
      </trkpt>
      <trkpt lat="44.72836" lon="6.6023">
        <ele>1342.230261</ele>
        <time>2026-08-17T13:41:22Z</time>
      </trkpt>
      <trkpt lat="44.7282" lon="6.60209">
        <ele>1339.909395</ele>
        <time>2026-08-17T13:41:27Z</time>
      </trkpt>
      <trkpt lat="44.72791" lon="6.60162">
        <ele>1334.427326</ele>
        <time>2026-08-17T13:41:35Z</time>
      </trkpt>
      <trkpt lat="44.72775" lon="6.60126">
        <ele>1330.579003</ele>
        <time>2026-08-17T13:41:41Z</time>
      </trkpt>
      <trkpt lat="44.72757" lon="6.60069">
        <ele>1324.883858</ele>
        <time>2026-08-17T13:41:51Z</time>
      </trkpt>
      <trkpt lat="44.72752" lon="6.60041">
        <ele>1322.253873</ele>
        <time>2026-08-17T13:41:55Z</time>
      </trkpt>
      <trkpt lat="44.72747" lon="6.60043">
        <ele>1321.677357</ele>
        <time>2026-08-17T13:41:56Z</time>
      </trkpt>
      <trkpt lat="44.72749" lon="6.60067">
        <ele>1319.518357</ele>
        <time>2026-08-17T13:42:00Z</time>
      </trkpt>
      <trkpt lat="44.72758" lon="6.60123">
        <ele>1314.985846</ele>
        <time>2026-08-17T13:42:08Z</time>
      </trkpt>
      <trkpt lat="44.72757" lon="6.60137">
        <ele>1314.101542</ele>
        <time>2026-08-17T13:42:10Z</time>
      </trkpt>
      <trkpt lat="44.72753" lon="6.60132">
        <ele>1313.649791</ele>
        <time>2026-08-17T13:42:11Z</time>
      </trkpt>
      <trkpt lat="44.7275" lon="6.60119">
        <ele>1312.770269</ele>
        <time>2026-08-17T13:42:14Z</time>
      </trkpt>
      <trkpt lat="44.72727" lon="6.60051">
        <ele>1308.002373</ele>
        <time>2026-08-17T13:42:26Z</time>
      </trkpt>
      <trkpt lat="44.72724" lon="6.60025">
        <ele>1306.316037</ele>
        <time>2026-08-17T13:42:30Z</time>
      </trkpt>
      <trkpt lat="44.7272" lon="6.60026">
        <ele>1305.976886</ele>
        <time>2026-08-17T13:42:31Z</time>
      </trkpt>
      <trkpt lat="44.72717" lon="6.60082">
        <ele>1302.398263</ele>
        <time>2026-08-17T13:42:39Z</time>
      </trkpt>
      <trkpt lat="44.72714" lon="6.60081">
        <ele>1302.125885</ele>
        <time>2026-08-17T13:42:40Z</time>
      </trkpt>
      <trkpt lat="44.72712" lon="6.6007">
        <ele>1301.401712</ele>
        <time>2026-08-17T13:42:42Z</time>
      </trkpt>
      <trkpt lat="44.72704" lon="6.59995">
        <ele>1296.654654</ele>
        <time>2026-08-17T13:42:54Z</time>
      </trkpt>
      <trkpt lat="44.72712" lon="6.59966">
        <ele>1294.647273</ele>
        <time>2026-08-17T13:42:59Z</time>
      </trkpt>
      <trkpt lat="44.72715" lon="6.59942">
        <ele>1293.140523</ele>
        <time>2026-08-17T13:43:03Z</time>
      </trkpt>
      <trkpt lat="44.72711" lon="6.59942">
        <ele>1292.768782</ele>
        <time>2026-08-17T13:43:04Z</time>
      </trkpt>
      <trkpt lat="44.72704" lon="6.59966">
        <ele>1291.097942</ele>
        <time>2026-08-17T13:43:08Z</time>
      </trkpt>
      <trkpt lat="44.72689" lon="6.5999">
        <ele>1289.143791</ele>
        <time>2026-08-17T13:43:12Z</time>
      </trkpt>
      <trkpt lat="44.72682" lon="6.6001">
        <ele>1287.712798</ele>
        <time>2026-08-17T13:43:16Z</time>
      </trkpt>
      <trkpt lat="44.72673" lon="6.60052">
        <ele>1284.941967</ele>
        <time>2026-08-17T13:43:23Z</time>
      </trkpt>
      <trkpt lat="44.72659" lon="6.60087">
        <ele>1281.732426</ele>
        <time>2026-08-17T13:43:29Z</time>
      </trkpt>
      <trkpt lat="44.72659" lon="6.60104">
        <ele>1280.245094</ele>
        <time>2026-08-17T13:43:31Z</time>
      </trkpt>
      <trkpt lat="44.72652" lon="6.60127">
        <ele>1278.099494</ele>
        <time>2026-08-17T13:43:35Z</time>
      </trkpt>
      <trkpt lat="44.72634" lon="6.60153">
        <ele>1275.020603</ele>
        <time>2026-08-17T13:43:41Z</time>
      </trkpt>
      <trkpt lat="44.72634" lon="6.6016">
        <ele>1274.441627</ele>
        <time>2026-08-17T13:43:42Z</time>
      </trkpt>
      <trkpt lat="44.72638" lon="6.60168">
        <ele>1273.631029</ele>
        <time>2026-08-17T13:43:43Z</time>
      </trkpt>
      <trkpt lat="44.72637" lon="6.60175">
        <ele>1273.018145</ele>
        <time>2026-08-17T13:43:44Z</time>
      </trkpt>
      <trkpt lat="44.72619" lon="6.60158">
        <ele>1270.434172</ele>
        <time>2026-08-17T13:43:49Z</time>
      </trkpt>
      <trkpt lat="44.72616" lon="6.60159">
        <ele>1270.143981</ele>
        <time>2026-08-17T13:43:49Z</time>
      </trkpt>
      <trkpt lat="44.72624" lon="6.60206">
        <ele>1265.962484</ele>
        <time>2026-08-17T13:43:56Z</time>
      </trkpt>
      <trkpt lat="44.72623" lon="6.60219">
        <ele>1264.849664</ele>
        <time>2026-08-17T13:43:58Z</time>
      </trkpt>
      <trkpt lat="44.72588" lon="6.60278">
        <ele>1257.687335</ele>
        <time>2026-08-17T13:44:09Z</time>
      </trkpt>
      <trkpt lat="44.72581" lon="6.60295">
        <ele>1255.803166</ele>
        <time>2026-08-17T13:44:12Z</time>
      </trkpt>
      <trkpt lat="44.7258" lon="6.60307">
        <ele>1254.643761</ele>
        <time>2026-08-17T13:44:14Z</time>
      </trkpt>
      <trkpt lat="44.72587" lon="6.60329">
        <ele>1252.349806</ele>
        <time>2026-08-17T13:44:17Z</time>
      </trkpt>
      <trkpt lat="44.72567" lon="6.60306">
        <ele>1248.823304</ele>
        <time>2026-08-17T13:44:22Z</time>
      </trkpt>
      <trkpt lat="44.72558" lon="6.60301">
        <ele>1247.466397</ele>
        <time>2026-08-17T13:44:24Z</time>
      </trkpt>
      <trkpt lat="44.72556" lon="6.60305">
        <ele>1247.062624</ele>
        <time>2026-08-17T13:44:25Z</time>
      </trkpt>
      <trkpt lat="44.72564" lon="6.60326">
        <ele>1244.844793</ele>
        <time>2026-08-17T13:44:28Z</time>
      </trkpt>
      <trkpt lat="44.72576" lon="6.60349">
        <ele>1242.034434</ele>
        <time>2026-08-17T13:44:32Z</time>
      </trkpt>
      <trkpt lat="44.72565" lon="6.60408">
        <ele>1237.881118</ele>
        <time>2026-08-17T13:44:41Z</time>
      </trkpt>
      <trkpt lat="44.7255" lon="6.60454">
        <ele>1236.692459</ele>
        <time>2026-08-17T13:44:49Z</time>
      </trkpt>
      <trkpt lat="44.72527" lon="6.60484">
        <ele>1235.657634</ele>
        <time>2026-08-17T13:44:57Z</time>
      </trkpt>
      <trkpt lat="44.72513" lon="6.60493">
        <ele>1235.128226</ele>
        <time>2026-08-17T13:45:01Z</time>
      </trkpt>
      <trkpt lat="44.72515" lon="6.60506">
        <ele>1234.815218</ele>
        <time>2026-08-17T13:45:03Z</time>
      </trkpt>
      <trkpt lat="44.72515" lon="6.60518">
        <ele>1234.51635</ele>
        <time>2026-08-17T13:45:05Z</time>
      </trkpt>
      <trkpt lat="44.72511" lon="6.60521">
        <ele>1234.376322</ele>
        <time>2026-08-17T13:45:07Z</time>
      </trkpt>
      <trkpt lat="44.72505" lon="6.60538">
        <ele>1233.921144</ele>
        <time>2026-08-17T13:45:11Z</time>
      </trkpt>
      <trkpt lat="44.72502" lon="6.60568">
        <ele>1233.201678</ele>
        <time>2026-08-17T13:45:20Z</time>
      </trkpt>
      <trkpt lat="44.72497" lon="6.60576">
        <ele>1232.95908</ele>
        <time>2026-08-17T13:45:24Z</time>
      </trkpt>
      <trkpt lat="44.72497" lon="6.6058">
        <ele>1232.858723</ele>
        <time>2026-08-17T13:45:26Z</time>
      </trkpt>
      <trkpt lat="44.72492" lon="6.60582">
        <ele>1232.687805</ele>
        <time>2026-08-17T13:45:29Z</time>
      </trkpt>
      <trkpt lat="44.72485" lon="6.60576">
        <ele>1232.681873</ele>
        <time>2026-08-17T13:45:34Z</time>
      </trkpt>
      <trkpt lat="44.72477" lon="6.60561">
        <ele>1234.701704</ele>
        <time>2026-08-17T13:45:43Z</time>
      </trkpt>
      <trkpt lat="44.72475" lon="6.60548">
        <ele>1236.064278</ele>
        <time>2026-08-17T13:45:50Z</time>
      </trkpt>
      <trkpt lat="44.72466" lon="6.60535">
        <ele>1237.969665</ele>
        <time>2026-08-17T13:46:01Z</time>
      </trkpt>
      <trkpt lat="44.72466" lon="6.60526">
        <ele>1238.960735</ele>
        <time>2026-08-17T13:46:07Z</time>
      </trkpt>
      <trkpt lat="44.72461" lon="6.60525">
        <ele>1239.731567</ele>
        <time>2026-08-17T13:46:12Z</time>
      </trkpt>
      <trkpt lat="44.72461" lon="6.60514">
        <ele>1240.88409</ele>
        <time>2026-08-17T13:46:19Z</time>
      </trkpt>
      <trkpt lat="44.72455" lon="6.6052">
        <ele>1242.015327</ele>
        <time>2026-08-17T13:46:27Z</time>
      </trkpt>
      <trkpt lat="44.72453" lon="6.60518">
        <ele>1242.358929</ele>
        <time>2026-08-17T13:46:29Z</time>
      </trkpt>
      <trkpt lat="44.7245" lon="6.60506">
        <ele>1243.792888</ele>
        <time>2026-08-17T13:46:40Z</time>
      </trkpt>
      <trkpt lat="44.72446" lon="6.60517">
        <ele>1245.166526</ele>
        <time>2026-08-17T13:46:50Z</time>
      </trkpt>
      <trkpt lat="44.72442" lon="6.60519">
        <ele>1245.807577</ele>
        <time>2026-08-17T13:46:55Z</time>
      </trkpt>
      <trkpt lat="44.72437" lon="6.60505">
        <ele>1247.556916</ele>
        <time>2026-08-17T13:47:09Z</time>
      </trkpt>
      <trkpt lat="44.72435" lon="6.60519">
        <ele>1249.052679</ele>
        <time>2026-08-17T13:47:22Z</time>
      </trkpt>
      <trkpt lat="44.72432" lon="6.60522">
        <ele>1249.663009</ele>
        <time>2026-08-17T13:47:27Z</time>
      </trkpt>
      <trkpt lat="44.72429" lon="6.60512">
        <ele>1250.785732</ele>
        <time>2026-08-17T13:47:37Z</time>
      </trkpt>
      <trkpt lat="44.72427" lon="6.60513">
        <ele>1251.11555</ele>
        <time>2026-08-17T13:47:40Z</time>
      </trkpt>
      <trkpt lat="44.72425" lon="6.60531">
        <ele>1253.073627</ele>
        <time>2026-08-17T13:47:59Z</time>
      </trkpt>
      <trkpt lat="44.72424" lon="6.60534">
        <ele>1253.482953</ele>
        <time>2026-08-17T13:48:03Z</time>
      </trkpt>
      <trkpt lat="44.72407" lon="6.60518">
        <ele>1256.502989</ele>
        <time>2026-08-17T13:48:32Z</time>
      </trkpt>
      <trkpt lat="44.72388" lon="6.60511">
        <ele>1259.503441</ele>
        <time>2026-08-17T13:49:00Z</time>
      </trkpt>
      <trkpt lat="44.72343" lon="6.60516">
        <ele>1264.901044</ele>
        <time>2026-08-17T13:49:55Z</time>
      </trkpt>
      <trkpt lat="44.72334" lon="6.60517">
        <ele>1266.058227</ele>
        <time>2026-08-17T13:50:06Z</time>
      </trkpt>
      <trkpt lat="44.72324" lon="6.60508">
        <ele>1267.425411</ele>
        <time>2026-08-17T13:50:18Z</time>
      </trkpt>
      <trkpt lat="44.72317" lon="6.60503">
        <ele>1268.363452</ele>
        <time>2026-08-17T13:50:26Z</time>
      </trkpt>
      <trkpt lat="44.72298" lon="6.60497">
        <ele>1270.814026</ele>
        <time>2026-08-17T13:50:45Z</time>
      </trkpt>
      <trkpt lat="44.72278" lon="6.60476">
        <ele>1273.736487</ele>
        <time>2026-08-17T13:51:07Z</time>
      </trkpt>
      <trkpt lat="44.72271" lon="6.6045">
        <ele>1276.115008</ele>
        <time>2026-08-17T13:51:21Z</time>
      </trkpt>
      <trkpt lat="44.72265" lon="6.60411">
        <ele>1279.518178</ele>
        <time>2026-08-17T13:51:40Z</time>
      </trkpt>
      <trkpt lat="44.72261" lon="6.60403">
        <ele>1280.283637</ele>
        <time>2026-08-17T13:51:43Z</time>
      </trkpt>
      <trkpt lat="44.72252" lon="6.60397">
        <ele>1281.376981</ele>
        <time>2026-08-17T13:51:48Z</time>
      </trkpt>
      <trkpt lat="44.72239" lon="6.60398">
        <ele>1281.731301</ele>
        <time>2026-08-17T13:51:53Z</time>
      </trkpt>
      <trkpt lat="44.72213" lon="6.6042">
        <ele>1282.57869</ele>
        <time>2026-08-17T13:52:07Z</time>
      </trkpt>
      <trkpt lat="44.72203" lon="6.60445">
        <ele>1283.140443</ele>
        <time>2026-08-17T13:52:17Z</time>
      </trkpt>
      <trkpt lat="44.72202" lon="6.60471">
        <ele>1283.642419</ele>
        <time>2026-08-17T13:52:26Z</time>
      </trkpt>
      <trkpt lat="44.72205" lon="6.60486">
        <ele>1283.95442</ele>
        <time>2026-08-17T13:52:33Z</time>
      </trkpt>
      <trkpt lat="44.72197" lon="6.60488">
        <ele>1284.170075</ele>
        <time>2026-08-17T13:52:36Z</time>
      </trkpt>
      <trkpt lat="44.72171" lon="6.60509">
        <ele>1284.989788</ele>
        <time>2026-08-17T13:52:51Z</time>
      </trkpt>
      <trkpt lat="44.72107" lon="6.60544">
        <ele>1285.648877</ele>
        <time>2026-08-17T13:53:16Z</time>
      </trkpt>
      <trkpt lat="44.72028" lon="6.60574">
        <ele>1283.302006</ele>
        <time>2026-08-17T13:53:37Z</time>
      </trkpt>
      <trkpt lat="44.72014" lon="6.60578">
        <ele>1282.913469</ele>
        <time>2026-08-17T13:53:41Z</time>
      </trkpt>
      <trkpt lat="44.71956" lon="6.60576">
        <ele>1281.240654</ele>
        <time>2026-08-17T13:53:56Z</time>
      </trkpt>
      <trkpt lat="44.71894" lon="6.60587">
        <ele>1273.309907</ele>
        <time>2026-08-17T13:54:10Z</time>
      </trkpt>
      <trkpt lat="44.71858" lon="6.60602">
        <ele>1268.40618</ele>
        <time>2026-08-17T13:54:18Z</time>
      </trkpt>
      <trkpt lat="44.71835" lon="6.60617">
        <ele>1264.966747</ele>
        <time>2026-08-17T13:54:23Z</time>
      </trkpt>
      <trkpt lat="44.7183" lon="6.60608">
        <ele>1263.915157</ele>
        <time>2026-08-17T13:54:24Z</time>
      </trkpt>
      <trkpt lat="44.71829" lon="6.60593">
        <ele>1262.50029</ele>
        <time>2026-08-17T13:54:27Z</time>
      </trkpt>
      <trkpt lat="44.71836" lon="6.60566">
        <ele>1259.747221</ele>
        <time>2026-08-17T13:54:31Z</time>
      </trkpt>
      <trkpt lat="44.71834" lon="6.60553">
        <ele>1258.474893</ele>
        <time>2026-08-17T13:54:32Z</time>
      </trkpt>
      <trkpt lat="44.71828" lon="6.60534">
        <ele>1256.169501</ele>
        <time>2026-08-17T13:54:35Z</time>
      </trkpt>
      <trkpt lat="44.71831" lon="6.6053">
        <ele>1255.39108</ele>
        <time>2026-08-17T13:54:36Z</time>
      </trkpt>
      <trkpt lat="44.71845" lon="6.60523">
        <ele>1252.579842</ele>
        <time>2026-08-17T13:54:39Z</time>
      </trkpt>
      <trkpt lat="44.71836" lon="6.60522">
        <ele>1250.95231</ele>
        <time>2026-08-17T13:54:41Z</time>
      </trkpt>
      <trkpt lat="44.71838" lon="6.60515">
        <ele>1250.041394</ele>
        <time>2026-08-17T13:54:42Z</time>
      </trkpt>
      <trkpt lat="44.71828" lon="6.60513">
        <ele>1248.088651</ele>
        <time>2026-08-17T13:54:44Z</time>
      </trkpt>
      <trkpt lat="44.71799" lon="6.60529">
        <ele>1242.340724</ele>
        <time>2026-08-17T13:54:50Z</time>
      </trkpt>
      <trkpt lat="44.71798" lon="6.60526">
        <ele>1241.887958</ele>
        <time>2026-08-17T13:54:50Z</time>
      </trkpt>
      <trkpt lat="44.71804" lon="6.60515">
        <ele>1240.026569</ele>
        <time>2026-08-17T13:54:52Z</time>
      </trkpt>
      <trkpt lat="44.71802" lon="6.60512">
        <ele>1239.571484</ele>
        <time>2026-08-17T13:54:53Z</time>
      </trkpt>
      <trkpt lat="44.71786" lon="6.6052">
        <ele>1236.46355</ele>
        <time>2026-08-17T13:54:56Z</time>
      </trkpt>
      <trkpt lat="44.71775" lon="6.60518">
        <ele>1234.373997</ele>
        <time>2026-08-17T13:54:59Z</time>
      </trkpt>
      <trkpt lat="44.71743" lon="6.60547">
        <ele>1227.308092</ele>
        <time>2026-08-17T13:55:06Z</time>
      </trkpt>
      <trkpt lat="44.71723" lon="6.60558">
        <ele>1223.269707</ele>
        <time>2026-08-17T13:55:10Z</time>
      </trkpt>
      <trkpt lat="44.7169" lon="6.6057">
        <ele>1216.354818</ele>
        <time>2026-08-17T13:55:17Z</time>
      </trkpt>
      <trkpt lat="44.71667" lon="6.60572">
        <ele>1211.80188</ele>
        <time>2026-08-17T13:55:22Z</time>
      </trkpt>
      <trkpt lat="44.71637" lon="6.60584">
        <ele>1205.473104</ele>
        <time>2026-08-17T13:55:28Z</time>
      </trkpt>
      <trkpt lat="44.71619" lon="6.60601">
        <ele>1201.131221</ele>
        <time>2026-08-17T13:55:32Z</time>
      </trkpt>
      <trkpt lat="44.71617" lon="6.60598">
        <ele>1200.505261</ele>
        <time>2026-08-17T13:55:33Z</time>
      </trkpt>
      <trkpt lat="44.71619" lon="6.60587">
        <ele>1198.868829</ele>
        <time>2026-08-17T13:55:34Z</time>
      </trkpt>
      <trkpt lat="44.71618" lon="6.60583">
        <ele>1198.256032</ele>
        <time>2026-08-17T13:55:35Z</time>
      </trkpt>
      <trkpt lat="44.71602" lon="6.60596">
        <ele>1194.47474</ele>
        <time>2026-08-17T13:55:38Z</time>
      </trkpt>
      <trkpt lat="44.71587" lon="6.60598">
        <ele>1191.532047</ele>
        <time>2026-08-17T13:55:41Z</time>
      </trkpt>
      <trkpt lat="44.71567" lon="6.60592">
        <ele>1187.332879</ele>
        <time>2026-08-17T13:55:45Z</time>
      </trkpt>
      <trkpt lat="44.71573" lon="6.60585">
        <ele>1185.688931</ele>
        <time>2026-08-17T13:55:47Z</time>
      </trkpt>
      <trkpt lat="44.71573" lon="6.60581">
        <ele>1185.039678</ele>
        <time>2026-08-17T13:55:47Z</time>
      </trkpt>
      <trkpt lat="44.71563" lon="6.60585">
        <ele>1182.708747</ele>
        <time>2026-08-17T13:55:49Z</time>
      </trkpt>
      <trkpt lat="44.7156" lon="6.60582">
        <ele>1181.90849</ele>
        <time>2026-08-17T13:55:50Z</time>
      </trkpt>
      <trkpt lat="44.71571" lon="6.60569">
        <ele>1178.566084</ele>
        <time>2026-08-17T13:55:53Z</time>
      </trkpt>
      <trkpt lat="44.7157" lon="6.60564">
        <ele>1177.810993</ele>
        <time>2026-08-17T13:55:53Z</time>
      </trkpt>
      <trkpt lat="44.71563" lon="6.60564">
        <ele>1176.229416</ele>
        <time>2026-08-17T13:55:55Z</time>
      </trkpt>
      <trkpt lat="44.7157" lon="6.60548">
        <ele>1173.32135</ele>
        <time>2026-08-17T13:55:57Z</time>
      </trkpt>
      <trkpt lat="44.7157" lon="6.60542">
        <ele>1172.336095</ele>
        <time>2026-08-17T13:55:58Z</time>
      </trkpt>
      <trkpt lat="44.71568" lon="6.60514">
        <ele>1167.817117</ele>
        <time>2026-08-17T13:56:02Z</time>
      </trkpt>
      <trkpt lat="44.71568" lon="6.60488">
        <ele>1163.670434</ele>
        <time>2026-08-17T13:56:06Z</time>
      </trkpt>
      <trkpt lat="44.71562" lon="6.60492">
        <ele>1162.305845</ele>
        <time>2026-08-17T13:56:07Z</time>
      </trkpt>
      <trkpt lat="44.71558" lon="6.60507">
        <ele>1159.729041</ele>
        <time>2026-08-17T13:56:09Z</time>
      </trkpt>
      <trkpt lat="44.7155" lon="6.60511">
        <ele>1157.792152</ele>
        <time>2026-08-17T13:56:11Z</time>
      </trkpt>
      <trkpt lat="44.71517" lon="6.60509">
        <ele>1150.363519</ele>
        <time>2026-08-17T13:56:17Z</time>
      </trkpt>
      <trkpt lat="44.71517" lon="6.60494">
        <ele>1148.046026</ele>
        <time>2026-08-17T13:56:19Z</time>
      </trkpt>
      <trkpt lat="44.71512" lon="6.60492">
        <ele>1146.592614</ele>
        <time>2026-08-17T13:56:20Z</time>
      </trkpt>
      <trkpt lat="44.71483" lon="6.60513">
        <ele>1138.567246</ele>
        <time>2026-08-17T13:56:27Z</time>
      </trkpt>
      <trkpt lat="44.71473" lon="6.60528">
        <ele>1134.980666</ele>
        <time>2026-08-17T13:56:29Z</time>
      </trkpt>
      <trkpt lat="44.71449" lon="6.60543">
        <ele>1128.341724</ele>
        <time>2026-08-17T13:56:35Z</time>
      </trkpt>
      <trkpt lat="44.71441" lon="6.60552">
        <ele>1125.734929</ele>
        <time>2026-08-17T13:56:37Z</time>
      </trkpt>
      <trkpt lat="44.7143" lon="6.60572">
        <ele>1121.373776</ele>
        <time>2026-08-17T13:56:40Z</time>
      </trkpt>
      <trkpt lat="44.71423" lon="6.60578">
        <ele>1119.191844</ele>
        <time>2026-08-17T13:56:42Z</time>
      </trkpt>
      <trkpt lat="44.71404" lon="6.60584">
        <ele>1114.20542</ele>
        <time>2026-08-17T13:56:46Z</time>
      </trkpt>
      <trkpt lat="44.71401" lon="6.60582">
        <ele>1113.333329</ele>
        <time>2026-08-17T13:56:46Z</time>
      </trkpt>
      <trkpt lat="44.71402" lon="6.60569">
        <ele>1111.084883</ele>
        <time>2026-08-17T13:56:48Z</time>
      </trkpt>
      <trkpt lat="44.71398" lon="6.60569">
        <ele>1110.006108</ele>
        <time>2026-08-17T13:56:49Z</time>
      </trkpt>
      <trkpt lat="44.71375" lon="6.60602">
        <ele>1101.954718</ele>
        <time>2026-08-17T13:56:55Z</time>
      </trkpt>
      <trkpt lat="44.71348" lon="6.60664">
        <ele>1090.305597</ele>
        <time>2026-08-17T13:57:05Z</time>
      </trkpt>
      <trkpt lat="44.71345" lon="6.60653">
        <ele>1088.434904</ele>
        <time>2026-08-17T13:57:07Z</time>
      </trkpt>
      <trkpt lat="44.71346" lon="6.60634">
        <ele>1085.465623</ele>
        <time>2026-08-17T13:57:09Z</time>
      </trkpt>
      <trkpt lat="44.71344" lon="6.60633">
        <ele>1084.969481</ele>
        <time>2026-08-17T13:57:10Z</time>
      </trkpt>
      <trkpt lat="44.71333" lon="6.60655">
        <ele>1080.573167</ele>
        <time>2026-08-17T13:57:14Z</time>
      </trkpt>
      <trkpt lat="44.71318" lon="6.60676">
        <ele>1076.003071</ele>
        <time>2026-08-17T13:57:17Z</time>
      </trkpt>
      <trkpt lat="44.71308" lon="6.60681">
        <ele>1073.634278</ele>
        <time>2026-08-17T13:57:19Z</time>
      </trkpt>
      <trkpt lat="44.71316" lon="6.60624">
        <ele>1064.31777</ele>
        <time>2026-08-17T13:57:28Z</time>
      </trkpt>
      <trkpt lat="44.71316" lon="6.60614">
        <ele>1062.773318</ele>
        <time>2026-08-17T13:57:29Z</time>
      </trkpt>
      <trkpt lat="44.71315" lon="6.60612">
        <ele>1062.256813</ele>
        <time>2026-08-17T13:57:29Z</time>
      </trkpt>
      <trkpt lat="44.71298" lon="6.60634">
        <ele>1057.686255</ele>
        <time>2026-08-17T13:57:34Z</time>
      </trkpt>
      <trkpt lat="44.71291" lon="6.6065">
        <ele>1055.047805</ele>
        <time>2026-08-17T13:57:37Z</time>
      </trkpt>
      <trkpt lat="44.71282" lon="6.60659">
        <ele>1052.933717</ele>
        <time>2026-08-17T13:57:39Z</time>
      </trkpt>
      <trkpt lat="44.71278" lon="6.60659">
        <ele>1052.099557</ele>
        <time>2026-08-17T13:57:40Z</time>
      </trkpt>
      <trkpt lat="44.71281" lon="6.60652">
        <ele>1050.959292</ele>
        <time>2026-08-17T13:57:41Z</time>
      </trkpt>
      <trkpt lat="44.71279" lon="6.60648">
        <ele>1050.119348</ele>
        <time>2026-08-17T13:57:41Z</time>
      </trkpt>
      <trkpt lat="44.71252" lon="6.60675">
        <ele>1043.55457</ele>
        <time>2026-08-17T13:57:48Z</time>
      </trkpt>
      <trkpt lat="44.71214" lon="6.60704">
        <ele>1034.861813</ele>
        <time>2026-08-17T13:57:57Z</time>
      </trkpt>
      <trkpt lat="44.71206" lon="6.60704">
        <ele>1033.391493</ele>
        <time>2026-08-17T13:57:58Z</time>
      </trkpt>
      <trkpt lat="44.71229" lon="6.60664">
        <ele>1026.224584</ele>
        <time>2026-08-17T13:58:05Z</time>
      </trkpt>
      <trkpt lat="44.71243" lon="6.6063">
        <ele>1020.400378</ele>
        <time>2026-08-17T13:58:10Z</time>
      </trkpt>
      <trkpt lat="44.71241" lon="6.60626">
        <ele>1019.746265</ele>
        <time>2026-08-17T13:58:11Z</time>
      </trkpt>
      <trkpt lat="44.71227" lon="6.60639">
        <ele>1016.342814</ele>
        <time>2026-08-17T13:58:14Z</time>
      </trkpt>
      <trkpt lat="44.71225" lon="6.60633">
        <ele>1015.270548</ele>
        <time>2026-08-17T13:58:15Z</time>
      </trkpt>
      <trkpt lat="44.71245" lon="6.6056">
        <ele>1003.625051</ele>
        <time>2026-08-17T13:58:26Z</time>
      </trkpt>
      <trkpt lat="44.71224" lon="6.60574">
        <ele>998.816394</ele>
        <time>2026-08-17T13:58:30Z</time>
      </trkpt>
      <trkpt lat="44.71224" lon="6.60577">
        <ele>998.292515</ele>
        <time>2026-08-17T13:58:31Z</time>
      </trkpt>
      <trkpt lat="44.71204" lon="6.60597">
        <ele>993.25389</ele>
        <time>2026-08-17T13:58:35Z</time>
      </trkpt>
      <trkpt lat="44.71203" lon="6.60596">
        <ele>992.8343</ele>
        <time>2026-08-17T13:58:36Z</time>
      </trkpt>
      <trkpt lat="44.71204" lon="6.60584">
        <ele>991.059673</ele>
        <time>2026-08-17T13:58:38Z</time>
      </trkpt>
      <trkpt lat="44.71203" lon="6.60583">
        <ele>990.64922</ele>
        <time>2026-08-17T13:58:38Z</time>
      </trkpt>
      <trkpt lat="44.71185" lon="6.60602">
        <ele>986.196111</ele>
        <time>2026-08-17T13:58:42Z</time>
      </trkpt>
      <trkpt lat="44.71171" lon="6.60609">
        <ele>983.406313</ele>
        <time>2026-08-17T13:58:45Z</time>
      </trkpt>
      <trkpt lat="44.7117" lon="6.60608">
        <ele>983.045829</ele>
        <time>2026-08-17T13:58:46Z</time>
      </trkpt>
      <trkpt lat="44.71171" lon="6.60601">
        <ele>982.115688</ele>
        <time>2026-08-17T13:58:47Z</time>
      </trkpt>
      <trkpt lat="44.71147" lon="6.60608">
        <ele>977.354535</ele>
        <time>2026-08-17T13:58:51Z</time>
      </trkpt>
      <trkpt lat="44.71133" lon="6.60618">
        <ele>974.411189</ele>
        <time>2026-08-17T13:58:54Z</time>
      </trkpt>
      <trkpt lat="44.71101" lon="6.60629">
        <ele>968.018792</ele>
        <time>2026-08-17T13:59:01Z</time>
      </trkpt>
      <trkpt lat="44.71055" lon="6.60652">
        <ele>958.642193</ele>
        <time>2026-08-17T13:59:11Z</time>
      </trkpt>
      <trkpt lat="44.71052" lon="6.60649">
        <ele>958.062587</ele>
        <time>2026-08-17T13:59:11Z</time>
      </trkpt>
      <trkpt lat="44.71055" lon="6.60641">
        <ele>956.770455</ele>
        <time>2026-08-17T13:59:12Z</time>
      </trkpt>
      <trkpt lat="44.71055" lon="6.60639">
        <ele>956.430056</ele>
        <time>2026-08-17T13:59:13Z</time>
      </trkpt>
      <trkpt lat="44.7105" lon="6.60636">
        <ele>955.436397</ele>
        <time>2026-08-17T13:59:14Z</time>
      </trkpt>
      <trkpt lat="44.71039" lon="6.60643">
        <ele>953.349814</ele>
        <time>2026-08-17T13:59:16Z</time>
      </trkpt>
      <trkpt lat="44.71024" lon="6.60633">
        <ele>950.934575</ele>
        <time>2026-08-17T13:59:19Z</time>
      </trkpt>
      <trkpt lat="44.71021" lon="6.60633">
        <ele>950.401363</ele>
        <time>2026-08-17T13:59:20Z</time>
      </trkpt>
      <trkpt lat="44.70977" lon="6.60645">
        <ele>943.612752</ele>
        <time>2026-08-17T13:59:29Z</time>
      </trkpt>
      <trkpt lat="44.70966" lon="6.60655">
        <ele>941.706121</ele>
        <time>2026-08-17T13:59:31Z</time>
      </trkpt>
      <trkpt lat="44.70961" lon="6.60644">
        <ele>940.280439</ele>
        <time>2026-08-17T13:59:33Z</time>
      </trkpt>
      <trkpt lat="44.70951" lon="6.60643">
        <ele>938.73937</ele>
        <time>2026-08-17T13:59:35Z</time>
      </trkpt>
      <trkpt lat="44.70907" lon="6.60669">
        <ele>931.48452</ele>
        <time>2026-08-17T13:59:45Z</time>
      </trkpt>
      <trkpt lat="44.70885" lon="6.60657">
        <ele>927.853238</ele>
        <time>2026-08-17T13:59:50Z</time>
      </trkpt>
      <trkpt lat="44.70832" lon="6.6061">
        <ele>921.830446</ele>
        <time>2026-08-17T14:00:04Z</time>
      </trkpt>
      <trkpt lat="44.7083" lon="6.60612">
        <ele>921.587179</ele>
        <time>2026-08-17T14:00:04Z</time>
      </trkpt>
      <trkpt lat="44.70812" lon="6.60637">
        <ele>919.33429</ele>
        <time>2026-08-17T14:00:07Z</time>
      </trkpt>
      <trkpt lat="44.70806" lon="6.60641">
        <ele>918.724152</ele>
        <time>2026-08-17T14:00:08Z</time>
      </trkpt>
      <trkpt lat="44.70805" lon="6.60616">
        <ele>917.062655</ele>
        <time>2026-08-17T14:00:10Z</time>
      </trkpt>
      <trkpt lat="44.70803" lon="6.60589">
        <ele>915.344605</ele>
        <time>2026-08-17T14:00:12Z</time>
      </trkpt>
      <trkpt lat="44.70803" lon="6.60586">
        <ele>915.163284</ele>
        <time>2026-08-17T14:00:13Z</time>
      </trkpt>
      <trkpt lat="44.70798" lon="6.60541">
        <ele>912.180348</ele>
        <time>2026-08-17T14:00:17Z</time>
      </trkpt>
      <trkpt lat="44.70794" lon="6.60529">
        <ele>911.351289</ele>
        <time>2026-08-17T14:00:18Z</time>
      </trkpt>
      <trkpt lat="44.70792" lon="6.60526">
        <ele>911.060242</ele>
        <time>2026-08-17T14:00:18Z</time>
      </trkpt>
      <trkpt lat="44.70751" lon="6.60487">
        <ele>908.710726</ele>
        <time>2026-08-17T14:00:25Z</time>
      </trkpt>
      <trkpt lat="44.70703" lon="6.60474">
        <ele>906.57284</ele>
        <time>2026-08-17T14:00:31Z</time>
      </trkpt>
      <trkpt lat="44.70695" lon="6.60465">
        <ele>906.113883</ele>
        <time>2026-08-17T14:00:32Z</time>
      </trkpt>
      <trkpt lat="44.70691" lon="6.60456">
        <ele>905.769707</ele>
        <time>2026-08-17T14:00:34Z</time>
      </trkpt>
      <trkpt lat="44.70693" lon="6.60446">
        <ele>905.443891</ele>
        <time>2026-08-17T14:00:35Z</time>
      </trkpt>
      <trkpt lat="44.70692" lon="6.60436">
        <ele>905.138506</ele>
        <time>2026-08-17T14:00:36Z</time>
      </trkpt>
      <trkpt lat="44.70687" lon="6.60428">
        <ele>904.830271</ele>
        <time>2026-08-17T14:00:37Z</time>
      </trkpt>
      <trkpt lat="44.70681" lon="6.60424">
        <ele>904.534861</ele>
        <time>2026-08-17T14:00:38Z</time>
      </trkpt>
      <trkpt lat="44.70676" lon="6.60424">
        <ele>904.321906</ele>
        <time>2026-08-17T14:00:38Z</time>
      </trkpt>
      <trkpt lat="44.7066" lon="6.60414">
        <ele>903.537313</ele>
        <time>2026-08-17T14:00:41Z</time>
      </trkpt>
      <trkpt lat="44.70659" lon="6.6041">
        <ele>903.411572</ele>
        <time>2026-08-17T14:00:42Z</time>
      </trkpt>
      <trkpt lat="44.70656" lon="6.60404">
        <ele>903.185779</ele>
        <time>2026-08-17T14:00:42Z</time>
      </trkpt>
      <trkpt lat="44.70644" lon="6.60383">
        <ele>902.749982</ele>
        <time>2026-08-17T14:00:46Z</time>
      </trkpt>
      <trkpt lat="44.7064" lon="6.60374">
        <ele>902.70172</ele>
        <time>2026-08-17T14:00:47Z</time>
      </trkpt>
      <trkpt lat="44.70638" lon="6.60367">
        <ele>902.667511</ele>
        <time>2026-08-17T14:00:48Z</time>
      </trkpt>
      <trkpt lat="44.70627" lon="6.60319">
        <ele>902.426082</ele>
        <time>2026-08-17T14:00:54Z</time>
      </trkpt>
      <trkpt lat="44.70631" lon="6.60316">
        <ele>902.394975</ele>
        <time>2026-08-17T14:00:55Z</time>
      </trkpt>
      <trkpt lat="44.70581" lon="6.60225">
        <ele>901.851976</ele>
        <time>2026-08-17T14:01:10Z</time>
      </trkpt>
      <trkpt lat="44.70528" lon="6.60134">
        <ele>901.391638</ele>
        <time>2026-08-17T14:01:25Z</time>
      </trkpt>
      <trkpt lat="44.70525" lon="6.60138">
        <ele>901.369136</ele>
        <time>2026-08-17T14:01:26Z</time>
      </trkpt>
      <trkpt lat="44.70522" lon="6.60133">
        <ele>901.346098</ele>
        <time>2026-08-17T14:01:27Z</time>
      </trkpt>
      <trkpt lat="44.70518" lon="6.60125">
        <ele>901.315588</ele>
        <time>2026-08-17T14:01:28Z</time>
      </trkpt>
      <trkpt lat="44.70484" lon="6.60068">
        <ele>901.063126</ele>
        <time>2026-08-17T14:01:37Z</time>
      </trkpt>
      <trkpt lat="44.70475" lon="6.60049">
        <ele>900.985489</ele>
        <time>2026-08-17T14:01:40Z</time>
      </trkpt>
      <trkpt lat="44.70457" lon="6.60059">
        <ele>900.889293</ele>
        <time>2026-08-17T14:01:44Z</time>
      </trkpt>
      <trkpt lat="44.70447" lon="6.60082">
        <ele>900.797943</ele>
        <time>2026-08-17T14:01:49Z</time>
      </trkpt>
      <trkpt lat="44.70411" lon="6.60115">
        <ele>900.473592</ele>
        <time>2026-08-17T14:02:02Z</time>
      </trkpt>
      <trkpt lat="44.70382" lon="6.60145">
        <ele>900.181001</ele>
        <time>2026-08-17T14:02:13Z</time>
      </trkpt>
      <trkpt lat="44.70271" lon="6.60215">
        <ele>899.22721</ele>
        <time>2026-08-17T14:02:49Z</time>
      </trkpt>
      <trkpt lat="44.70238" lon="6.60247">
        <ele>898.988883</ele>
        <time>2026-08-17T14:03:01Z</time>
      </trkpt>
      <trkpt lat="44.70208" lon="6.60274">
        <ele>898.78144</ele>
        <time>2026-08-17T14:03:12Z</time>
      </trkpt>
      <trkpt lat="44.70162" lon="6.60306">
        <ele>898.485518</ele>
        <time>2026-08-17T14:03:27Z</time>
      </trkpt>
      <trkpt lat="44.70145" lon="6.60324">
        <ele>898.357893</ele>
        <time>2026-08-17T14:03:34Z</time>
      </trkpt>
      <trkpt lat="44.70092" lon="6.6037">
        <ele>897.87735</ele>
        <time>2026-08-17T14:03:53Z</time>
      </trkpt>
      <trkpt lat="44.70066" lon="6.60399">
        <ele>897.592285</ele>
        <time>2026-08-17T14:04:03Z</time>
      </trkpt>
      <trkpt lat="44.69997" lon="6.60447">
        <ele>896.930921</ele>
        <time>2026-08-17T14:04:25Z</time>
      </trkpt>
      <trkpt lat="44.69966" lon="6.60458">
        <ele>896.620147</ele>
        <time>2026-08-17T14:04:35Z</time>
      </trkpt>
      <trkpt lat="44.69936" lon="6.6046">
        <ele>896.196484</ele>
        <time>2026-08-17T14:04:43Z</time>
      </trkpt>
      <trkpt lat="44.69911" lon="6.60458">
        <ele>895.848099</ele>
        <time>2026-08-17T14:04:50Z</time>
      </trkpt>
      <trkpt lat="44.69889" lon="6.60464">
        <ele>895.543385</ele>
        <time>2026-08-17T14:04:56Z</time>
      </trkpt>
      <trkpt lat="44.69876" lon="6.60461">
        <ele>895.353975</ele>
        <time>2026-08-17T14:05:00Z</time>
      </trkpt>
      <trkpt lat="44.69866" lon="6.60453">
        <ele>895.193951</ele>
        <time>2026-08-17T14:05:03Z</time>
      </trkpt>
      <trkpt lat="44.69842" lon="6.60416">
        <ele>894.701851</ele>
        <time>2026-08-17T14:05:13Z</time>
      </trkpt>
      <trkpt lat="44.69821" lon="6.60397">
        <ele>894.354671</ele>
        <time>2026-08-17T14:05:20Z</time>
      </trkpt>
      <trkpt lat="44.69785" lon="6.60396">
        <ele>894.124501</ele>
        <time>2026-08-17T14:05:31Z</time>
      </trkpt>
      <trkpt lat="44.69742" lon="6.60388">
        <ele>893.975477</ele>
        <time>2026-08-17T14:05:44Z</time>
      </trkpt>
      <trkpt lat="44.69722" lon="6.60387">
        <ele>893.906518</ele>
        <time>2026-08-17T14:05:50Z</time>
      </trkpt>
      <trkpt lat="44.697" lon="6.60389">
        <ele>893.830559</ele>
        <time>2026-08-17T14:05:57Z</time>
      </trkpt>
      <trkpt lat="44.69664" lon="6.60401">
        <ele>893.70351</ele>
        <time>2026-08-17T14:06:09Z</time>
      </trkpt>
      <trkpt lat="44.69643" lon="6.60413">
        <ele>893.628362</ele>
        <time>2026-08-17T14:06:16Z</time>
      </trkpt>
      <trkpt lat="44.69631" lon="6.60416">
        <ele>893.607161</ele>
        <time>2026-08-17T14:06:20Z</time>
      </trkpt>
      <trkpt lat="44.69624" lon="6.60414">
        <ele>893.634852</ele>
        <time>2026-08-17T14:06:23Z</time>
      </trkpt>
      <trkpt lat="44.69619" lon="6.60401">
        <ele>893.670402</ele>
        <time>2026-08-17T14:06:26Z</time>
      </trkpt>
      <trkpt lat="44.69625" lon="6.6029">
        <ele>893.954481</ele>
        <time>2026-08-17T14:06:53Z</time>
      </trkpt>
      <trkpt lat="44.69622" lon="6.60245">
        <ele>894.068883</ele>
        <time>2026-08-17T14:07:04Z</time>
      </trkpt>
      <trkpt lat="44.69618" lon="6.60223">
        <ele>894.12731</ele>
        <time>2026-08-17T14:07:10Z</time>
      </trkpt>
      <trkpt lat="44.69555" lon="6.60196">
        <ele>894.188883</ele>
        <time>2026-08-17T14:07:31Z</time>
      </trkpt>
      <trkpt lat="44.69495" lon="6.60157">
        <ele>894.088539</ele>
        <time>2026-08-17T14:07:52Z</time>
      </trkpt>
      <trkpt lat="44.6945" lon="6.60159">
        <ele>894.018792</ele>
        <time>2026-08-17T14:08:06Z</time>
      </trkpt>
      <trkpt lat="44.69432" lon="6.60165">
        <ele>893.99076</ele>
        <time>2026-08-17T14:08:12Z</time>
      </trkpt>
      <trkpt lat="44.69426" lon="6.60164">
        <ele>893.982346</ele>
        <time>2026-08-17T14:08:13Z</time>
      </trkpt>
      <trkpt lat="44.69415" lon="6.60155">
        <ele>893.953535</ele>
        <time>2026-08-17T14:08:17Z</time>
      </trkpt>
      <trkpt lat="44.69409" lon="6.60156">
        <ele>893.928427</ele>
        <time>2026-08-17T14:08:19Z</time>
      </trkpt>
      <trkpt lat="44.69386" lon="6.60223">
        <ele>893.68499</ele>
        <time>2026-08-17T14:08:35Z</time>
      </trkpt>
      <trkpt lat="44.69368" lon="6.60245">
        <ele>893.576334</ele>
        <time>2026-08-17T14:08:42Z</time>
      </trkpt>
      <trkpt lat="44.69353" lon="6.60251">
        <ele>893.505087</ele>
        <time>2026-08-17T14:08:47Z</time>
      </trkpt>
      <trkpt lat="44.69324" lon="6.60271">
        <ele>893.354989</ele>
        <time>2026-08-17T14:08:57Z</time>
      </trkpt>
      <trkpt lat="44.69304" lon="6.60293">
        <ele>893.241852</ele>
        <time>2026-08-17T14:09:05Z</time>
      </trkpt>
      <trkpt lat="44.69288" lon="6.60303">
        <ele>893.161743</ele>
        <time>2026-08-17T14:09:10Z</time>
      </trkpt>
      <trkpt lat="44.69269" lon="6.60321">
        <ele>893.028745</ele>
        <time>2026-08-17T14:09:17Z</time>
      </trkpt>
      <trkpt lat="44.69242" lon="6.60332">
        <ele>892.858739</ele>
        <time>2026-08-17T14:09:26Z</time>
      </trkpt>
      <trkpt lat="44.69212" lon="6.60319">
        <ele>892.670881</ele>
        <time>2026-08-17T14:09:36Z</time>
      </trkpt>
      <trkpt lat="44.69186" lon="6.60325">
        <ele>892.518558</ele>
        <time>2026-08-17T14:09:44Z</time>
      </trkpt>
      <trkpt lat="44.69173" lon="6.60339">
        <ele>892.416865</ele>
        <time>2026-08-17T14:09:49Z</time>
      </trkpt>
      <trkpt lat="44.69141" lon="6.60359">
        <ele>892.211894</ele>
        <time>2026-08-17T14:09:59Z</time>
      </trkpt>
      <trkpt lat="44.69093" lon="6.60368">
        <ele>891.954449</ele>
        <time>2026-08-17T14:10:13Z</time>
      </trkpt>
      <trkpt lat="44.69071" lon="6.60368">
        <ele>891.852953</ele>
        <time>2026-08-17T14:10:20Z</time>
      </trkpt>
      <trkpt lat="44.69022" lon="6.60382">
        <ele>891.618777</ele>
        <time>2026-08-17T14:10:35Z</time>
      </trkpt>
      <trkpt lat="44.69006" lon="6.60383">
        <ele>891.544989</ele>
        <time>2026-08-17T14:10:40Z</time>
      </trkpt>
      <trkpt lat="44.68966" lon="6.60377">
        <ele>891.359196</ele>
        <time>2026-08-17T14:10:53Z</time>
      </trkpt>
      <trkpt lat="44.68961" lon="6.60377">
        <ele>891.336403</ele>
        <time>2026-08-17T14:10:54Z</time>
      </trkpt>
      <trkpt lat="44.68941" lon="6.60379">
        <ele>891.243047</ele>
        <time>2026-08-17T14:11:00Z</time>
      </trkpt>
      <trkpt lat="44.68874" lon="6.60417">
        <ele>890.813815</ele>
        <time>2026-08-17T14:11:23Z</time>
      </trkpt>
      <trkpt lat="44.68826" lon="6.60455">
        <ele>890.488106</ele>
        <time>2026-08-17T14:11:39Z</time>
      </trkpt>
      <trkpt lat="44.68802" lon="6.60454">
        <ele>890.346477</ele>
        <time>2026-08-17T14:11:46Z</time>
      </trkpt>
      <trkpt lat="44.68793" lon="6.60449">
        <ele>890.287332</ele>
        <time>2026-08-17T14:11:49Z</time>
      </trkpt>
      <trkpt lat="44.68747" lon="6.60542">
        <ele>889.987425</ele>
        <time>2026-08-17T14:12:13Z</time>
      </trkpt>
      <trkpt lat="44.6872" lon="6.6054">
        <ele>889.907281</ele>
        <time>2026-08-17T14:12:22Z</time>
      </trkpt>
      <trkpt lat="44.68685" lon="6.60551">
        <ele>889.799816</ele>
        <time>2026-08-17T14:12:33Z</time>
      </trkpt>
      <trkpt lat="44.68661" lon="6.60576">
        <ele>889.713636</ele>
        <time>2026-08-17T14:12:42Z</time>
      </trkpt>
      <trkpt lat="44.68645" lon="6.60595">
        <ele>889.651096</ele>
        <time>2026-08-17T14:12:49Z</time>
      </trkpt>
      <trkpt lat="44.68599" lon="6.60618">
        <ele>889.410248</ele>
        <time>2026-08-17T14:13:04Z</time>
      </trkpt>
      <trkpt lat="44.68514" lon="6.6065">
        <ele>888.950951</ele>
        <time>2026-08-17T14:13:31Z</time>
      </trkpt>
      <trkpt lat="44.68447" lon="6.60663">
        <ele>888.571854</ele>
        <time>2026-08-17T14:13:51Z</time>
      </trkpt>
      <trkpt lat="44.68416" lon="6.60652">
        <ele>888.350799</ele>
        <time>2026-08-17T14:14:00Z</time>
      </trkpt>
      <trkpt lat="44.68399" lon="6.60652">
        <ele>888.231129</ele>
        <time>2026-08-17T14:14:06Z</time>
      </trkpt>
      <trkpt lat="44.68356" lon="6.60692">
        <ele>887.877935</ele>
        <time>2026-08-17T14:14:21Z</time>
      </trkpt>
      <trkpt lat="44.68342" lon="6.60692">
        <ele>887.782964</ele>
        <time>2026-08-17T14:14:25Z</time>
      </trkpt>
      <trkpt lat="44.68318" lon="6.60688">
        <ele>887.618521</ele>
        <time>2026-08-17T14:14:32Z</time>
      </trkpt>
      <trkpt lat="44.6831" lon="6.60692">
        <ele>887.556714</ele>
        <time>2026-08-17T14:14:35Z</time>
      </trkpt>
      <trkpt lat="44.6827" lon="6.60698">
        <ele>887.426705</ele>
        <time>2026-08-17T14:14:47Z</time>
      </trkpt>
      <trkpt lat="44.68242" lon="6.60709">
        <ele>887.385998</ele>
        <time>2026-08-17T14:14:56Z</time>
      </trkpt>
      <trkpt lat="44.68211" lon="6.60715">
        <ele>887.34167</ele>
        <time>2026-08-17T14:15:06Z</time>
      </trkpt>
      <trkpt lat="44.68151" lon="6.60709">
        <ele>887.256951</ele>
        <time>2026-08-17T14:15:25Z</time>
      </trkpt>
      <trkpt lat="44.68118" lon="6.60701">
        <ele>887.21276</ele>
        <time>2026-08-17T14:15:36Z</time>
      </trkpt>
      <trkpt lat="44.68053" lon="6.60667">
        <ele>887.422165</ele>
        <time>2026-08-17T14:15:57Z</time>
      </trkpt>
      <trkpt lat="44.68044" lon="6.60657">
        <ele>887.457258</ele>
        <time>2026-08-17T14:16:01Z</time>
      </trkpt>
      <trkpt lat="44.68043" lon="6.60627">
        <ele>887.522398</ele>
        <time>2026-08-17T14:16:05Z</time>
      </trkpt>
      <trkpt lat="44.68039" lon="6.60614">
        <ele>887.553842</ele>
        <time>2026-08-17T14:16:08Z</time>
      </trkpt>
      <trkpt lat="44.67952" lon="6.60576">
        <ele>888.492203</ele>
        <time>2026-08-17T14:16:30Z</time>
      </trkpt>
      <trkpt lat="44.67946" lon="6.60572">
        <ele>888.718881</ele>
        <time>2026-08-17T14:16:32Z</time>
      </trkpt>
      <trkpt lat="44.67931" lon="6.60547">
        <ele>889.432394</ele>
        <time>2026-08-17T14:16:38Z</time>
      </trkpt>
      <trkpt lat="44.67933" lon="6.60537">
        <ele>889.663303</ele>
        <time>2026-08-17T14:16:40Z</time>
      </trkpt>
      <trkpt lat="44.67957" lon="6.60473">
        <ele>891.277946</ele>
        <time>2026-08-17T14:16:57Z</time>
      </trkpt>
      <trkpt lat="44.67983" lon="6.6039">
        <ele>893.286631</ele>
        <time>2026-08-17T14:17:26Z</time>
      </trkpt>
      <trkpt lat="44.67986" lon="6.60368">
        <ele>894.193681</ele>
        <time>2026-08-17T14:17:34Z</time>
      </trkpt>
      <trkpt lat="44.67985" lon="6.60357">
        <ele>894.663752</ele>
        <time>2026-08-17T14:17:38Z</time>
      </trkpt>
      <trkpt lat="44.67977" lon="6.60342">
        <ele>895.500081</ele>
        <time>2026-08-17T14:17:45Z</time>
      </trkpt>
      <trkpt lat="44.67932" lon="6.60315">
        <ele>898.56065</ele>
        <time>2026-08-17T14:18:10Z</time>
      </trkpt>
      <trkpt lat="44.67937" lon="6.60288">
        <ele>899.789225</ele>
        <time>2026-08-17T14:18:22Z</time>
      </trkpt>
      <trkpt lat="44.67935" lon="6.60275">
        <ele>900.363841</ele>
        <time>2026-08-17T14:18:27Z</time>
      </trkpt>
      <trkpt lat="44.6788" lon="6.60328">
        <ele>904.54229</ele>
        <time>2026-08-17T14:19:02Z</time>
      </trkpt>
      <trkpt lat="44.67848" lon="6.60354">
        <ele>907.338883</ele>
        <time>2026-08-17T14:19:20Z</time>
      </trkpt>
      <trkpt lat="44.67833" lon="6.60361">
        <ele>908.587222</ele>
        <time>2026-08-17T14:19:29Z</time>
      </trkpt>
      <trkpt lat="44.67818" lon="6.60364">
        <ele>909.735756</ele>
        <time>2026-08-17T14:19:37Z</time>
      </trkpt>
      <trkpt lat="44.67789" lon="6.60366">
        <ele>912.042609</ele>
        <time>2026-08-17T14:19:54Z</time>
      </trkpt>
      <trkpt lat="44.67776" lon="6.60361">
        <ele>913.077191</ele>
        <time>2026-08-17T14:20:03Z</time>
      </trkpt>
      <trkpt lat="44.67761" lon="6.60354">
        <ele>914.24891</ele>
        <time>2026-08-17T14:20:12Z</time>
      </trkpt>
      <trkpt lat="44.67702" lon="6.6031">
        <ele>919.469362</ele>
        <time>2026-08-17T14:20:55Z</time>
      </trkpt>
      <trkpt lat="44.67689" lon="6.60306">
        <ele>920.464876</ele>
        <time>2026-08-17T14:21:03Z</time>
      </trkpt>
      <trkpt lat="44.67666" lon="6.60307">
        <ele>922.308138</ele>
        <time>2026-08-17T14:21:18Z</time>
      </trkpt>
      <trkpt lat="44.67532" lon="6.6034">
        <ele>933.152718</ele>
        <time>2026-08-17T14:22:34Z</time>
      </trkpt>
      <trkpt lat="44.67539" lon="6.6033">
        <ele>934.182656</ele>
        <time>2026-08-17T14:22:41Z</time>
      </trkpt>
      <trkpt lat="44.67592" lon="6.60303">
        <ele>939.815582</ele>
        <time>2026-08-17T14:23:23Z</time>
      </trkpt>
      <trkpt lat="44.6763" lon="6.6026">
        <ele>944.644976</ele>
        <time>2026-08-17T14:24:04Z</time>
      </trkpt>
      <trkpt lat="44.67659" lon="6.60251">
        <ele>947.591555</ele>
        <time>2026-08-17T14:24:32Z</time>
      </trkpt>
      <trkpt lat="44.67665" lon="6.60245">
        <ele>948.355643</ele>
        <time>2026-08-17T14:24:39Z</time>
      </trkpt>
      <trkpt lat="44.6768" lon="6.60216">
        <ele>950.90982</ele>
        <time>2026-08-17T14:25:03Z</time>
      </trkpt>
      <trkpt lat="44.67708" lon="6.60191">
        <ele>954.432556</ele>
        <time>2026-08-17T14:25:33Z</time>
      </trkpt>
      <trkpt lat="44.67711" lon="6.60185">
        <ele>955.023236</ele>
        <time>2026-08-17T14:25:38Z</time>
      </trkpt>
      <trkpt lat="44.6773" lon="6.60152">
        <ele>958.261389</ele>
        <time>2026-08-17T14:26:04Z</time>
      </trkpt>
      <trkpt lat="44.67739" lon="6.60118">
        <ele>960.982769</ele>
        <time>2026-08-17T14:26:25Z</time>
      </trkpt>
      <trkpt lat="44.67743" lon="6.60111">
        <ele>961.672595</ele>
        <time>2026-08-17T14:26:30Z</time>
      </trkpt>
      <trkpt lat="44.67755" lon="6.60111">
        <ele>962.930651</ele>
        <time>2026-08-17T14:26:40Z</time>
      </trkpt>
      <trkpt lat="44.67783" lon="6.60124">
        <ele>966.089683</ele>
        <time>2026-08-17T14:27:05Z</time>
      </trkpt>
      <trkpt lat="44.67794" lon="6.60125">
        <ele>967.2839</ele>
        <time>2026-08-17T14:27:14Z</time>
      </trkpt>
      <trkpt lat="44.67855" lon="6.60082">
        <ele>974.499437</ele>
        <time>2026-08-17T14:28:09Z</time>
      </trkpt>
      <trkpt lat="44.67864" lon="6.60073">
        <ele>975.673122</ele>
        <time>2026-08-17T14:28:18Z</time>
      </trkpt>
      <trkpt lat="44.67884" lon="6.60041">
        <ele>978.895267</ele>
        <time>2026-08-17T14:28:44Z</time>
      </trkpt>
      <trkpt lat="44.67912" lon="6.6003">
        <ele>982.056274</ele>
        <time>2026-08-17T14:29:10Z</time>
      </trkpt>
      <trkpt lat="44.67935" lon="6.60014">
        <ele>984.74248</ele>
        <time>2026-08-17T14:29:33Z</time>
      </trkpt>
      <trkpt lat="44.6796" lon="6.60015">
        <ele>987.431809</ele>
        <time>2026-08-17T14:29:56Z</time>
      </trkpt>
      <trkpt lat="44.67971" lon="6.60013">
        <ele>988.588897</ele>
        <time>2026-08-17T14:30:06Z</time>
      </trkpt>
      <trkpt lat="44.68068" lon="6.59962">
        <ele>998.197671</ele>
        <time>2026-08-17T14:31:31Z</time>
      </trkpt>
      <trkpt lat="44.68097" lon="6.59939">
        <ele>1001.244213</ele>
        <time>2026-08-17T14:31:56Z</time>
      </trkpt>
      <trkpt lat="44.68149" lon="6.59916">
        <ele>1006.035026</ele>
        <time>2026-08-17T14:32:35Z</time>
      </trkpt>
      <trkpt lat="44.68162" lon="6.59906">
        <ele>1007.080311</ele>
        <time>2026-08-17T14:32:44Z</time>
      </trkpt>
      <trkpt lat="44.68187" lon="6.59899">
        <ele>1008.842479</ele>
        <time>2026-08-17T14:33:00Z</time>
      </trkpt>
      <trkpt lat="44.68229" lon="6.59876">
        <ele>1012.0498</ele>
        <time>2026-08-17T14:33:27Z</time>
      </trkpt>
      <trkpt lat="44.6824" lon="6.59873">
        <ele>1012.792315</ele>
        <time>2026-08-17T14:33:33Z</time>
      </trkpt>
      <trkpt lat="44.68275" lon="6.59871">
        <ele>1015.303589</ele>
        <time>2026-08-17T14:33:56Z</time>
      </trkpt>
      <trkpt lat="44.68348" lon="6.59857">
        <ele>1021.368487</ele>
        <time>2026-08-17T14:34:52Z</time>
      </trkpt>
      <trkpt lat="44.68397" lon="6.59821">
        <ele>1026.61177</ele>
        <time>2026-08-17T14:35:36Z</time>
      </trkpt>
      <trkpt lat="44.68404" lon="6.59813">
        <ele>1027.497934</ele>
        <time>2026-08-17T14:35:43Z</time>
      </trkpt>
      <trkpt lat="44.68414" lon="6.59791">
        <ele>1029.304471</ele>
        <time>2026-08-17T14:35:59Z</time>
      </trkpt>
      <trkpt lat="44.6842" lon="6.59787">
        <ele>1029.932246</ele>
        <time>2026-08-17T14:36:04Z</time>
      </trkpt>
      <trkpt lat="44.68425" lon="6.59786">
        <ele>1030.394011</ele>
        <time>2026-08-17T14:36:08Z</time>
      </trkpt>
      <trkpt lat="44.68445" lon="6.59795">
        <ele>1032.415309</ele>
        <time>2026-08-17T14:36:26Z</time>
      </trkpt>
      <trkpt lat="44.6846" lon="6.59795">
        <ele>1033.823913</ele>
        <time>2026-08-17T14:36:39Z</time>
      </trkpt>
      <trkpt lat="44.68474" lon="6.59794">
        <ele>1035.160312</ele>
        <time>2026-08-17T14:36:51Z</time>
      </trkpt>
      <trkpt lat="44.68492" lon="6.59786">
        <ele>1037.159747</ele>
        <time>2026-08-17T14:37:07Z</time>
      </trkpt>
      <trkpt lat="44.68505" lon="6.59778">
        <ele>1038.536141</ele>
        <time>2026-08-17T14:37:18Z</time>
      </trkpt>
      <trkpt lat="44.68534" lon="6.59752">
        <ele>1042.121147</ele>
        <time>2026-08-17T14:37:46Z</time>
      </trkpt>
      <trkpt lat="44.68569" lon="6.59731">
        <ele>1045.927979</ele>
        <time>2026-08-17T14:38:15Z</time>
      </trkpt>
      <trkpt lat="44.68601" lon="6.59705">
        <ele>1049.714615</ele>
        <time>2026-08-17T14:38:46Z</time>
      </trkpt>
      <trkpt lat="44.68648" lon="6.59686">
        <ele>1055.171398</ele>
        <time>2026-08-17T14:39:28Z</time>
      </trkpt>
      <trkpt lat="44.68726" lon="6.5964">
        <ele>1067.63344</ele>
        <time>2026-08-17T14:40:48Z</time>
      </trkpt>
      <trkpt lat="44.68766" lon="6.59568">
        <ele>1077.243649</ele>
        <time>2026-08-17T14:42:05Z</time>
      </trkpt>
      <trkpt lat="44.68771" lon="6.5954">
        <ele>1080.295577</ele>
        <time>2026-08-17T14:42:32Z</time>
      </trkpt>
      <trkpt lat="44.68768" lon="6.59452">
        <ele>1090.43132</ele>
        <time>2026-08-17T14:43:53Z</time>
      </trkpt>
      <trkpt lat="44.68766" lon="6.59439">
        <ele>1091.959726</ele>
        <time>2026-08-17T14:44:05Z</time>
      </trkpt>
      <trkpt lat="44.68745" lon="6.59374">
        <ele>1100.282223</ele>
        <time>2026-08-17T14:45:04Z</time>
      </trkpt>
      <trkpt lat="44.6874" lon="6.59298">
        <ele>1109.02757</ele>
        <time>2026-08-17T14:45:58Z</time>
      </trkpt>
      <trkpt lat="44.68743" lon="6.59252">
        <ele>1112.439489</ele>
        <time>2026-08-17T14:46:28Z</time>
      </trkpt>
      <trkpt lat="44.6876" lon="6.59215">
        <ele>1115.607885</ele>
        <time>2026-08-17T14:46:58Z</time>
      </trkpt>
      <trkpt lat="44.68757" lon="6.59209">
        <ele>1116.089788</ele>
        <time>2026-08-17T14:47:02Z</time>
      </trkpt>
      <trkpt lat="44.68753" lon="6.59206">
        <ele>1116.582623</ele>
        <time>2026-08-17T14:47:06Z</time>
      </trkpt>
      <trkpt lat="44.68746" lon="6.59212">
        <ele>1117.42371</ele>
        <time>2026-08-17T14:47:13Z</time>
      </trkpt>
      <trkpt lat="44.68719" lon="6.59257">
        <ele>1121.617133</ele>
        <time>2026-08-17T14:47:46Z</time>
      </trkpt>
      <trkpt lat="44.68713" lon="6.59279">
        <ele>1123.255096</ele>
        <time>2026-08-17T14:47:58Z</time>
      </trkpt>
      <trkpt lat="44.68707" lon="6.59287">
        <ele>1124.134506</ele>
        <time>2026-08-17T14:48:05Z</time>
      </trkpt>
      <trkpt lat="44.68703" lon="6.59285">
        <ele>1124.578944</ele>
        <time>2026-08-17T14:48:08Z</time>
      </trkpt>
      <trkpt lat="44.68702" lon="6.59273">
        <ele>1125.493018</ele>
        <time>2026-08-17T14:48:14Z</time>
      </trkpt>
      <trkpt lat="44.68711" lon="6.5923">
        <ele>1128.581074</ele>
        <time>2026-08-17T14:48:35Z</time>
      </trkpt>
      <trkpt lat="44.68726" lon="6.59181">
        <ele>1132.147173</ele>
        <time>2026-08-17T14:49:00Z</time>
      </trkpt>
      <trkpt lat="44.68734" lon="6.59139">
        <ele>1135.044656</ele>
        <time>2026-08-17T14:49:19Z</time>
      </trkpt>
      <trkpt lat="44.68741" lon="6.59127">
        <ele>1136.096846</ele>
        <time>2026-08-17T14:49:26Z</time>
      </trkpt>
      <trkpt lat="44.68746" lon="6.59124">
        <ele>1136.638932</ele>
        <time>2026-08-17T14:49:30Z</time>
      </trkpt>
      <trkpt lat="44.68772" lon="6.59118">
        <ele>1139.142036</ele>
        <time>2026-08-17T14:49:48Z</time>
      </trkpt>
      <trkpt lat="44.68778" lon="6.59114">
        <ele>1139.707346</ele>
        <time>2026-08-17T14:49:53Z</time>
      </trkpt>
      <trkpt lat="44.68781" lon="6.59101">
        <ele>1140.623722</ele>
        <time>2026-08-17T14:50:01Z</time>
      </trkpt>
      <trkpt lat="44.6878" lon="6.59095">
        <ele>1141.045667</ele>
        <time>2026-08-17T14:50:05Z</time>
      </trkpt>
      <trkpt lat="44.68776" lon="6.59092">
        <ele>1141.431462</ele>
        <time>2026-08-17T14:50:09Z</time>
      </trkpt>
      <trkpt lat="44.68759" lon="6.59096">
        <ele>1143.057548</ele>
        <time>2026-08-17T14:50:25Z</time>
      </trkpt>
      <trkpt lat="44.68749" lon="6.59093">
        <ele>1144.017189</ele>
        <time>2026-08-17T14:50:36Z</time>
      </trkpt>
      <trkpt lat="44.68729" lon="6.59078">
        <ele>1147.743078</ele>
        <time>2026-08-17T14:51:02Z</time>
      </trkpt>
      <trkpt lat="44.68714" lon="6.59071">
        <ele>1150.631516</ele>
        <time>2026-08-17T14:51:23Z</time>
      </trkpt>
      <trkpt lat="44.68691" lon="6.59077">
        <ele>1154.818942</ele>
        <time>2026-08-17T14:51:55Z</time>
      </trkpt>
      <trkpt lat="44.6868" lon="6.59083">
        <ele>1156.937281</ele>
        <time>2026-08-17T14:52:13Z</time>
      </trkpt>
      <trkpt lat="44.68666" lon="6.59102">
        <ele>1160.334543</ele>
        <time>2026-08-17T14:52:41Z</time>
      </trkpt>
      <trkpt lat="44.68652" lon="6.59122">
        <ele>1163.814468</ele>
        <time>2026-08-17T14:53:09Z</time>
      </trkpt>
      <trkpt lat="44.68644" lon="6.59129">
        <ele>1165.602754</ele>
        <time>2026-08-17T14:53:23Z</time>
      </trkpt>
      <trkpt lat="44.68618" lon="6.5914">
        <ele>1170.348938</ele>
        <time>2026-08-17T14:53:59Z</time>
      </trkpt>
      <trkpt lat="44.68608" lon="6.59156">
        <ele>1173.104817</ele>
        <time>2026-08-17T14:54:18Z</time>
      </trkpt>
      <trkpt lat="44.68601" lon="6.59175">
        <ele>1175.714994</ele>
        <time>2026-08-17T14:54:34Z</time>
      </trkpt>
      <trkpt lat="44.68596" lon="6.59174">
        <ele>1176.505829</ele>
        <time>2026-08-17T14:54:40Z</time>
      </trkpt>
      <trkpt lat="44.68594" lon="6.59163">
        <ele>1176.964778</ele>
        <time>2026-08-17T14:54:48Z</time>
      </trkpt>
      <trkpt lat="44.68612" lon="6.59088">
        <ele>1180.37298</ele>
        <time>2026-08-17T14:55:31Z</time>
      </trkpt>
      <trkpt lat="44.6863" lon="6.59043">
        <ele>1182.599517</ele>
        <time>2026-08-17T14:55:49Z</time>
      </trkpt>
      <trkpt lat="44.68637" lon="6.59032">
        <ele>1183.198045</ele>
        <time>2026-08-17T14:55:52Z</time>
      </trkpt>
      <trkpt lat="44.68664" lon="6.59009">
        <ele>1185.10846</ele>
        <time>2026-08-17T14:56:03Z</time>
      </trkpt>
      <trkpt lat="44.68693" lon="6.58966">
        <ele>1187.945367</ele>
        <time>2026-08-17T14:56:19Z</time>
      </trkpt>
      <trkpt lat="44.6872" lon="6.58913">
        <ele>1192.455203</ele>
        <time>2026-08-17T14:56:44Z</time>
      </trkpt>
      <trkpt lat="44.6874" lon="6.58899">
        <ele>1194.627537</ele>
        <time>2026-08-17T14:57:00Z</time>
      </trkpt>
      <trkpt lat="44.68746" lon="6.58893">
        <ele>1195.3128</ele>
        <time>2026-08-17T14:57:05Z</time>
      </trkpt>
      <trkpt lat="44.68747" lon="6.58871">
        <ele>1196.832199</ele>
        <time>2026-08-17T14:57:18Z</time>
      </trkpt>
      <trkpt lat="44.68746" lon="6.58861">
        <ele>1197.536064</ele>
        <time>2026-08-17T14:57:25Z</time>
      </trkpt>
      <trkpt lat="44.68742" lon="6.58853">
        <ele>1198.186073</ele>
        <time>2026-08-17T14:57:31Z</time>
      </trkpt>
      <trkpt lat="44.68734" lon="6.58853">
        <ele>1198.899586</ele>
        <time>2026-08-17T14:57:37Z</time>
      </trkpt>
      <trkpt lat="44.68719" lon="6.58887">
        <ele>1201.684769</ele>
        <time>2026-08-17T14:58:07Z</time>
      </trkpt>
      <trkpt lat="44.68663" lon="6.58925">
        <ele>1209.846975</ele>
        <time>2026-08-17T14:59:20Z</time>
      </trkpt>
      <trkpt lat="44.68638" lon="6.58953">
        <ele>1214.928437</ele>
        <time>2026-08-17T14:59:58Z</time>
      </trkpt>
      <trkpt lat="44.68603" lon="6.58972">
        <ele>1221.127147</ele>
        <time>2026-08-17T15:00:45Z</time>
      </trkpt>
      <trkpt lat="44.68573" lon="6.59006">
        <ele>1227.389776</ele>
        <time>2026-08-17T15:01:29Z</time>
      </trkpt>
      <trkpt lat="44.68555" lon="6.59034">
        <ele>1231.773073</ele>
        <time>2026-08-17T15:01:58Z</time>
      </trkpt>
      <trkpt lat="44.6855" lon="6.59036">
        <ele>1232.562482</ele>
        <time>2026-08-17T15:02:03Z</time>
      </trkpt>
      <trkpt lat="44.68546" lon="6.59028">
        <ele>1233.678147</ele>
        <time>2026-08-17T15:02:11Z</time>
      </trkpt>
      <trkpt lat="44.68548" lon="6.59023">
        <ele>1234.289452</ele>
        <time>2026-08-17T15:02:15Z</time>
      </trkpt>
      <trkpt lat="44.68562" lon="6.59005">
        <ele>1236.853754</ele>
        <time>2026-08-17T15:02:35Z</time>
      </trkpt>
      <trkpt lat="44.68576" lon="6.58981">
        <ele>1239.856192</ele>
        <time>2026-08-17T15:02:58Z</time>
      </trkpt>
      <trkpt lat="44.68603" lon="6.58925">
        <ele>1246.342927</ele>
        <time>2026-08-17T15:03:46Z</time>
      </trkpt>
      <trkpt lat="44.68606" lon="6.58883">
        <ele>1250.341627</ele>
        <time>2026-08-17T15:04:13Z</time>
      </trkpt>
      <trkpt lat="44.68604" lon="6.58825">
        <ele>1255.920564</ele>
        <time>2026-08-17T15:04:53Z</time>
      </trkpt>
      <trkpt lat="44.68606" lon="6.5881">
        <ele>1257.399512</ele>
        <time>2026-08-17T15:05:04Z</time>
      </trkpt>
      <trkpt lat="44.68615" lon="6.58778">
        <ele>1260.184494</ele>
        <time>2026-08-17T15:05:28Z</time>
      </trkpt>
      <trkpt lat="44.68625" lon="6.58752">
        <ele>1262.444525</ele>
        <time>2026-08-17T15:05:50Z</time>
      </trkpt>
      <trkpt lat="44.68635" lon="6.58743">
        <ele>1263.693137</ele>
        <time>2026-08-17T15:06:01Z</time>
      </trkpt>
      <trkpt lat="44.68649" lon="6.58737">
        <ele>1265.256451</ele>
        <time>2026-08-17T15:06:15Z</time>
      </trkpt>
      <trkpt lat="44.68651" lon="6.58734">
        <ele>1265.605482</ele>
        <time>2026-08-17T15:06:18Z</time>
      </trkpt>
      <trkpt lat="44.6865" lon="6.58725">
        <ele>1266.316637</ele>
        <time>2026-08-17T15:06:24Z</time>
      </trkpt>
      <trkpt lat="44.68641" lon="6.58723">
        <ele>1267.382426</ele>
        <time>2026-08-17T15:06:32Z</time>
      </trkpt>
      <trkpt lat="44.68621" lon="6.58733">
        <ele>1269.590423</ele>
        <time>2026-08-17T15:06:49Z</time>
      </trkpt>
      <trkpt lat="44.68611" lon="6.58742">
        <ele>1270.872162</ele>
        <time>2026-08-17T15:06:58Z</time>
      </trkpt>
      <trkpt lat="44.68583" lon="6.58785">
        <ele>1275.30717</ele>
        <time>2026-08-17T15:07:28Z</time>
      </trkpt>
      <trkpt lat="44.68569" lon="6.58849">
        <ele>1279.11361</ele>
        <time>2026-08-17T15:08:06Z</time>
      </trkpt>
      <trkpt lat="44.68566" lon="6.58878">
        <ele>1280.320847</ele>
        <time>2026-08-17T15:08:23Z</time>
      </trkpt>
      <trkpt lat="44.68561" lon="6.58895">
        <ele>1281.048457</ele>
        <time>2026-08-17T15:08:33Z</time>
      </trkpt>
      <trkpt lat="44.68555" lon="6.58905">
        <ele>1281.574739</ele>
        <time>2026-08-17T15:08:40Z</time>
      </trkpt>
      <trkpt lat="44.68545" lon="6.58916">
        <ele>1282.28461</ele>
        <time>2026-08-17T15:08:49Z</time>
      </trkpt>
      <trkpt lat="44.68506" lon="6.5895">
        <ele>1284.904509</ele>
        <time>2026-08-17T15:09:18Z</time>
      </trkpt>
      <trkpt lat="44.68459" lon="6.58997">
        <ele>1287.762364</ele>
        <time>2026-08-17T15:09:40Z</time>
      </trkpt>
      <trkpt lat="44.68454" lon="6.59014">
        <ele>1287.526813</ele>
        <time>2026-08-17T15:09:44Z</time>
      </trkpt>
      <trkpt lat="44.68463" lon="6.59049">
        <ele>1287.045384</ele>
        <time>2026-08-17T15:09:52Z</time>
      </trkpt>
      <trkpt lat="44.68461" lon="6.59076">
        <ele>1286.694427</ele>
        <time>2026-08-17T15:09:57Z</time>
      </trkpt>
      <trkpt lat="44.68465" lon="6.59103">
        <ele>1286.33685</ele>
        <time>2026-08-17T15:10:02Z</time>
      </trkpt>
      <trkpt lat="44.68463" lon="6.5912">
        <ele>1286.112346</ele>
        <time>2026-08-17T15:10:05Z</time>
      </trkpt>
      <trkpt lat="44.6845" lon="6.59158">
        <ele>1285.563712</ele>
        <time>2026-08-17T15:10:12Z</time>
      </trkpt>
      <trkpt lat="44.68419" lon="6.59193">
        <ele>1284.830206</ele>
        <time>2026-08-17T15:10:23Z</time>
      </trkpt>
      <trkpt lat="44.68389" lon="6.59216">
        <ele>1285.024022</ele>
        <time>2026-08-17T15:10:34Z</time>
      </trkpt>
      <trkpt lat="44.6835" lon="6.5923">
        <ele>1285.931815</ele>
        <time>2026-08-17T15:10:50Z</time>
      </trkpt>
      <trkpt lat="44.68303" lon="6.59243">
        <ele>1287.013477</ele>
        <time>2026-08-17T15:11:10Z</time>
      </trkpt>
      <trkpt lat="44.68281" lon="6.59256">
        <ele>1287.538237</ele>
        <time>2026-08-17T15:11:19Z</time>
      </trkpt>
      <trkpt lat="44.68239" lon="6.59266">
        <ele>1288.507833</ele>
        <time>2026-08-17T15:11:43Z</time>
      </trkpt>
      <trkpt lat="44.68203" lon="6.5929">
        <ele>1290.39129</ele>
        <time>2026-08-17T15:12:09Z</time>
      </trkpt>
      <trkpt lat="44.68182" lon="6.59299">
        <ele>1291.54248</ele>
        <time>2026-08-17T15:12:23Z</time>
      </trkpt>
      <trkpt lat="44.68149" lon="6.59295">
        <ele>1293.251306</ele>
        <time>2026-08-17T15:12:44Z</time>
      </trkpt>
      <trkpt lat="44.68127" lon="6.59298">
        <ele>1294.391642</ele>
        <time>2026-08-17T15:12:58Z</time>
      </trkpt>
      <trkpt lat="44.68077" lon="6.59321">
        <ele>1297.150464</ele>
        <time>2026-08-17T15:13:29Z</time>
      </trkpt>
      <trkpt lat="44.68042" lon="6.59341">
        <ele>1298.840255</ele>
        <time>2026-08-17T15:13:46Z</time>
      </trkpt>
      <trkpt lat="44.68006" lon="6.59372">
        <ele>1300.623231</ele>
        <time>2026-08-17T15:14:01Z</time>
      </trkpt>
      <trkpt lat="44.67993" lon="6.59379">
        <ele>1301.21541</ele>
        <time>2026-08-17T15:14:07Z</time>
      </trkpt>
      <trkpt lat="44.67955" lon="6.5939">
        <ele>1302.861035</ele>
        <time>2026-08-17T15:14:24Z</time>
      </trkpt>
      <trkpt lat="44.67915" lon="6.59396">
        <ele>1304.546974</ele>
        <time>2026-08-17T15:14:47Z</time>
      </trkpt>
      <trkpt lat="44.67907" lon="6.59394">
        <ele>1304.888348</ele>
        <time>2026-08-17T15:14:52Z</time>
      </trkpt>
      <trkpt lat="44.67906" lon="6.59387">
        <ele>1305.099262</ele>
        <time>2026-08-17T15:14:56Z</time>
      </trkpt>
      <trkpt lat="44.67912" lon="6.59378">
        <ele>1305.478088</ele>
        <time>2026-08-17T15:15:02Z</time>
      </trkpt>
      <trkpt lat="44.67933" lon="6.59373">
        <ele>1307.860036</ele>
        <time>2026-08-17T15:15:19Z</time>
      </trkpt>
      <trkpt lat="44.68004" lon="6.59327">
        <ele>1316.770036</ele>
        <time>2026-08-17T15:16:31Z</time>
      </trkpt>
      <trkpt lat="44.6808" lon="6.59253">
        <ele>1327.246794</ele>
        <time>2026-08-17T15:17:59Z</time>
      </trkpt>
      <trkpt lat="44.68113" lon="6.59227">
        <ele>1331.70802</ele>
        <time>2026-08-17T15:18:35Z</time>
      </trkpt>
      <trkpt lat="44.68134" lon="6.59202">
        <ele>1334.998894</ele>
        <time>2026-08-17T15:19:01Z</time>
      </trkpt>
      <trkpt lat="44.68183" lon="6.59128">
        <ele>1343.494024</ele>
        <time>2026-08-17T15:20:06Z</time>
      </trkpt>
      <trkpt lat="44.682" lon="6.59106">
        <ele>1346.284585</ele>
        <time>2026-08-17T15:20:27Z</time>
      </trkpt>
      <trkpt lat="44.68277" lon="6.59031">
        <ele>1355.399247</ele>
        <time>2026-08-17T15:21:47Z</time>
      </trkpt>
      <trkpt lat="44.68316" lon="6.58987">
        <ele>1360.150511</ele>
        <time>2026-08-17T15:22:26Z</time>
      </trkpt>
      <trkpt lat="44.68344" lon="6.58966">
        <ele>1363.244003</ele>
        <time>2026-08-17T15:22:50Z</time>
      </trkpt>
      <trkpt lat="44.68345" lon="6.5896">
        <ele>1363.612756</ele>
        <time>2026-08-17T15:22:53Z</time>
      </trkpt>
      <trkpt lat="44.68336" lon="6.58956">
        <ele>1364.403529</ele>
        <time>2026-08-17T15:22:59Z</time>
      </trkpt>
      <trkpt lat="44.68317" lon="6.5897">
        <ele>1365.655751</ele>
        <time>2026-08-17T15:23:14Z</time>
      </trkpt>
      <trkpt lat="44.68273" lon="6.58995">
        <ele>1368.37526</ele>
        <time>2026-08-17T15:23:44Z</time>
      </trkpt>
      <trkpt lat="44.68243" lon="6.5902">
        <ele>1370.357794</ele>
        <time>2026-08-17T15:24:05Z</time>
      </trkpt>
      <trkpt lat="44.6817" lon="6.59049">
        <ele>1374.662185</ele>
        <time>2026-08-17T15:24:46Z</time>
      </trkpt>
      <trkpt lat="44.68155" lon="6.59058">
        <ele>1375.31293</ele>
        <time>2026-08-17T15:24:55Z</time>
      </trkpt>
      <trkpt lat="44.68111" lon="6.59091">
        <ele>1377.278253</ele>
        <time>2026-08-17T15:25:20Z</time>
      </trkpt>
      <trkpt lat="44.68086" lon="6.59103">
        <ele>1378.314227</ele>
        <time>2026-08-17T15:25:32Z</time>
      </trkpt>
      <trkpt lat="44.68056" lon="6.59111">
        <ele>1379.486185</ele>
        <time>2026-08-17T15:25:46Z</time>
      </trkpt>
      <trkpt lat="44.6804" lon="6.59125">
        <ele>1380.243723</ele>
        <time>2026-08-17T15:25:56Z</time>
      </trkpt>
      <trkpt lat="44.68018" lon="6.59147">
        <ele>1381.300638</ele>
        <time>2026-08-17T15:26:10Z</time>
      </trkpt>
      <trkpt lat="44.68004" lon="6.59154">
        <ele>1382.044782</ele>
        <time>2026-08-17T15:26:18Z</time>
      </trkpt>
      <trkpt lat="44.67993" lon="6.59158">
        <ele>1382.935246</ele>
        <time>2026-08-17T15:26:25Z</time>
      </trkpt>
      <trkpt lat="44.67976" lon="6.59157">
        <ele>1384.239238</ele>
        <time>2026-08-17T15:26:35Z</time>
      </trkpt>
      <trkpt lat="44.67959" lon="6.59148">
        <ele>1385.617213</ele>
        <time>2026-08-17T15:26:46Z</time>
      </trkpt>
      <trkpt lat="44.6793" lon="6.59128">
        <ele>1388.107017</ele>
        <time>2026-08-17T15:27:07Z</time>
      </trkpt>
      <trkpt lat="44.67916" lon="6.59126">
        <ele>1389.184573</ele>
        <time>2026-08-17T15:27:17Z</time>
      </trkpt>
      <trkpt lat="44.67878" lon="6.59136">
        <ele>1392.149473</ele>
        <time>2026-08-17T15:27:50Z</time>
      </trkpt>
      <trkpt lat="44.67869" lon="6.59134">
        <ele>1392.814485</ele>
        <time>2026-08-17T15:27:57Z</time>
      </trkpt>
      <trkpt lat="44.67868" lon="6.59129">
        <ele>1393.071192</ele>
        <time>2026-08-17T15:28:00Z</time>
      </trkpt>
      <trkpt lat="44.67874" lon="6.59121">
        <ele>1393.695575</ele>
        <time>2026-08-17T15:28:07Z</time>
      </trkpt>
      <trkpt lat="44.67892" lon="6.59109">
        <ele>1395.220936</ele>
        <time>2026-08-17T15:28:24Z</time>
      </trkpt>
      <trkpt lat="44.67905" lon="6.5908">
        <ele>1396.459246</ele>
        <time>2026-08-17T15:28:43Z</time>
      </trkpt>
      <trkpt lat="44.67909" lon="6.59063">
        <ele>1397.051331</ele>
        <time>2026-08-17T15:28:52Z</time>
      </trkpt>
      <trkpt lat="44.67906" lon="6.59048">
        <ele>1397.558591</ele>
        <time>2026-08-17T15:29:00Z</time>
      </trkpt>
      <trkpt lat="44.67901" lon="6.59036">
        <ele>1398.031877</ele>
        <time>2026-08-17T15:29:06Z</time>
      </trkpt>
      <trkpt lat="44.67891" lon="6.59025">
        <ele>1398.624356</ele>
        <time>2026-08-17T15:29:14Z</time>
      </trkpt>
      <trkpt lat="44.6788" lon="6.59019">
        <ele>1399.17709</ele>
        <time>2026-08-17T15:29:21Z</time>
      </trkpt>
      <trkpt lat="44.6783" lon="6.59">
        <ele>1401.615164</ele>
        <time>2026-08-17T15:29:48Z</time>
      </trkpt>
      <trkpt lat="44.67808" lon="6.58994">
        <ele>1402.660215</ele>
        <time>2026-08-17T15:29:57Z</time>
      </trkpt>
      <trkpt lat="44.67801" lon="6.58986">
        <ele>1403.086532</ele>
        <time>2026-08-17T15:30:00Z</time>
      </trkpt>
      <trkpt lat="44.67797" lon="6.58977">
        <ele>1403.441793</ele>
        <time>2026-08-17T15:30:01Z</time>
      </trkpt>
      <trkpt lat="44.67797" lon="6.58968">
        <ele>1403.735951</ele>
        <time>2026-08-17T15:30:03Z</time>
      </trkpt>
      <trkpt lat="44.67803" lon="6.5894">
        <ele>1403.060262</ele>
        <time>2026-08-17T15:30:07Z</time>
      </trkpt>
      <trkpt lat="44.67802" lon="6.5893">
        <ele>1402.730428</ele>
        <time>2026-08-17T15:30:08Z</time>
      </trkpt>
      <trkpt lat="44.67773" lon="6.58884">
        <ele>1400.790634</ele>
        <time>2026-08-17T15:30:15Z</time>
      </trkpt>
      <trkpt lat="44.67767" lon="6.58866">
        <ele>1400.145164</ele>
        <time>2026-08-17T15:30:18Z</time>
      </trkpt>
      <trkpt lat="44.6776" lon="6.58849">
        <ele>1399.54012</ele>
        <time>2026-08-17T15:30:20Z</time>
      </trkpt>
      <trkpt lat="44.67753" lon="6.58844">
        <ele>1399.168266</ele>
        <time>2026-08-17T15:30:21Z</time>
      </trkpt>
      <trkpt lat="44.67687" lon="6.5881">
        <ele>1396.067536</ele>
        <time>2026-08-17T15:30:30Z</time>
      </trkpt>
      <trkpt lat="44.67642" lon="6.58825">
        <ele>1390.369606</ele>
        <time>2026-08-17T15:30:40Z</time>
      </trkpt>
      <trkpt lat="44.67632" lon="6.58841">
        <ele>1388.446443</ele>
        <time>2026-08-17T15:30:43Z</time>
      </trkpt>
      <trkpt lat="44.67634" lon="6.58857">
        <ele>1386.979636</ele>
        <time>2026-08-17T15:30:45Z</time>
      </trkpt>
      <trkpt lat="44.67636" lon="6.58868">
        <ele>1385.936102</ele>
        <time>2026-08-17T15:30:47Z</time>
      </trkpt>
      <trkpt lat="44.67626" lon="6.58931">
        <ele>1379.934099</ele>
        <time>2026-08-17T15:30:56Z</time>
      </trkpt>
      <trkpt lat="44.67597" lon="6.58963">
        <ele>1375.104712</ele>
        <time>2026-08-17T15:31:04Z</time>
      </trkpt>
      <trkpt lat="44.67586" lon="6.58962">
        <ele>1373.646214</ele>
        <time>2026-08-17T15:31:06Z</time>
      </trkpt>
      <trkpt lat="44.67576" lon="6.58952">
        <ele>1372.042645</ele>
        <time>2026-08-17T15:31:08Z</time>
      </trkpt>
      <trkpt lat="44.67557" lon="6.58952">
        <ele>1369.776531</ele>
        <time>2026-08-17T15:31:12Z</time>
      </trkpt>
      <trkpt lat="44.67545" lon="6.58956">
        <ele>1368.260208</ele>
        <time>2026-08-17T15:31:15Z</time>
      </trkpt>
      <trkpt lat="44.67563" lon="6.58977">
        <ele>1365.382335</ele>
        <time>2026-08-17T15:31:20Z</time>
      </trkpt>
      <trkpt lat="44.6757" lon="6.58991">
        <ele>1363.918436</ele>
        <time>2026-08-17T15:31:22Z</time>
      </trkpt>
      <trkpt lat="44.6757" lon="6.59005">
        <ele>1362.78753</ele>
        <time>2026-08-17T15:31:24Z</time>
      </trkpt>
      <trkpt lat="44.67556" lon="6.5902">
        <ele>1360.601616</ele>
        <time>2026-08-17T15:31:28Z</time>
      </trkpt>
      <trkpt lat="44.67542" lon="6.59024">
        <ele>1358.85582</ele>
        <time>2026-08-17T15:31:31Z</time>
      </trkpt>
      <trkpt lat="44.67531" lon="6.59038">
        <ele>1357.046083</ele>
        <time>2026-08-17T15:31:34Z</time>
      </trkpt>
      <trkpt lat="44.67522" lon="6.59057">
        <ele>1355.08541</ele>
        <time>2026-08-17T15:31:38Z</time>
      </trkpt>
      <trkpt lat="44.67526" lon="6.59086">
        <ele>1352.601251</ele>
        <time>2026-08-17T15:31:42Z</time>
      </trkpt>
      <trkpt lat="44.67538" lon="6.59129">
        <ele>1348.407413</ele>
        <time>2026-08-17T15:31:49Z</time>
      </trkpt>
      <trkpt lat="44.67539" lon="6.59162">
        <ele>1345.252949</ele>
        <time>2026-08-17T15:31:54Z</time>
      </trkpt>
      <trkpt lat="44.67537" lon="6.5917">
        <ele>1344.483629</ele>
        <time>2026-08-17T15:31:55Z</time>
      </trkpt>
      <trkpt lat="44.67527" lon="6.59182">
        <ele>1342.651306</ele>
        <time>2026-08-17T15:31:58Z</time>
      </trkpt>
      <trkpt lat="44.67496" lon="6.59183">
        <ele>1338.583748</ele>
        <time>2026-08-17T15:32:04Z</time>
      </trkpt>
      <trkpt lat="44.6748" lon="6.5918">
        <ele>1336.39418</ele>
        <time>2026-08-17T15:32:07Z</time>
      </trkpt>
      <trkpt lat="44.67461" lon="6.59172">
        <ele>1333.719298</ele>
        <time>2026-08-17T15:32:11Z</time>
      </trkpt>
      <trkpt lat="44.67444" lon="6.59176">
        <ele>1331.466356</ele>
        <time>2026-08-17T15:32:15Z</time>
      </trkpt>
      <trkpt lat="44.67404" lon="6.59175">
        <ele>1325.980986</ele>
        <time>2026-08-17T15:32:23Z</time>
      </trkpt>
      <trkpt lat="44.67403" lon="6.59167">
        <ele>1325.157232</ele>
        <time>2026-08-17T15:32:24Z</time>
      </trkpt>
      <trkpt lat="44.6741" lon="6.59155">
        <ele>1323.534762</ele>
        <time>2026-08-17T15:32:27Z</time>
      </trkpt>
      <trkpt lat="44.6742" lon="6.59146">
        <ele>1321.776306</ele>
        <time>2026-08-17T15:32:29Z</time>
      </trkpt>
      <trkpt lat="44.67429" lon="6.59145">
        <ele>1320.424239</ele>
        <time>2026-08-17T15:32:31Z</time>
      </trkpt>
      <trkpt lat="44.67443" lon="6.59136">
        <ele>1318.125691</ele>
        <time>2026-08-17T15:32:34Z</time>
      </trkpt>
      <trkpt lat="44.67444" lon="6.5913">
        <ele>1317.495623</ele>
        <time>2026-08-17T15:32:35Z</time>
      </trkpt>
      <trkpt lat="44.67441" lon="6.59124">
        <ele>1316.765907</ele>
        <time>2026-08-17T15:32:36Z</time>
      </trkpt>
      <trkpt lat="44.67402" lon="6.5911">
        <ele>1310.889767</ele>
        <time>2026-08-17T15:32:44Z</time>
      </trkpt>
      <trkpt lat="44.67388" lon="6.59112">
        <ele>1308.788357</ele>
        <time>2026-08-17T15:32:47Z</time>
      </trkpt>
      <trkpt lat="44.67382" lon="6.59109">
        <ele>1307.740225</ele>
        <time>2026-08-17T15:32:49Z</time>
      </trkpt>
      <trkpt lat="44.67363" lon="6.59077">
        <ele>1303.319003</ele>
        <time>2026-08-17T15:32:55Z</time>
      </trkpt>
      <trkpt lat="44.67358" lon="6.59065">
        <ele>1301.873726</ele>
        <time>2026-08-17T15:32:57Z</time>
      </trkpt>
      <trkpt lat="44.67355" lon="6.59052">
        <ele>1300.503281</ele>
        <time>2026-08-17T15:32:58Z</time>
      </trkpt>
      <trkpt lat="44.67358" lon="6.59065">
        <ele>1298.879239</ele>
        <time>2026-08-17T15:33:00Z</time>
      </trkpt>
      <trkpt lat="44.67336" lon="6.59104">
        <ele>1291.322439</ele>
        <time>2026-08-17T15:33:07Z</time>
      </trkpt>
      <trkpt lat="44.67323" lon="6.59115">
        <ele>1288.019198</ele>
        <time>2026-08-17T15:33:10Z</time>
      </trkpt>
      <trkpt lat="44.67296" lon="6.59146">
        <ele>1280.648794</ele>
        <time>2026-08-17T15:33:17Z</time>
      </trkpt>
      <trkpt lat="44.67267" lon="6.59208">
        <ele>1269.497143</ele>
        <time>2026-08-17T15:33:27Z</time>
      </trkpt>
      <trkpt lat="44.67247" lon="6.59233">
        <ele>1263.729291</ele>
        <time>2026-08-17T15:33:32Z</time>
      </trkpt>
      <trkpt lat="44.67239" lon="6.59249">
        <ele>1260.764988</ele>
        <time>2026-08-17T15:33:35Z</time>
      </trkpt>
      <trkpt lat="44.67241" lon="6.59257">
        <ele>1259.702958</ele>
        <time>2026-08-17T15:33:36Z</time>
      </trkpt>
      <trkpt lat="44.67255" lon="6.5926">
        <ele>1256.995016</ele>
        <time>2026-08-17T15:33:39Z</time>
      </trkpt>
      <trkpt lat="44.67275" lon="6.59306">
        <ele>1249.62845</ele>
        <time>2026-08-17T15:33:47Z</time>
      </trkpt>
      <trkpt lat="44.6728" lon="6.59326">
        <ele>1246.772976</ele>
        <time>2026-08-17T15:33:49Z</time>
      </trkpt>
      <trkpt lat="44.67274" lon="6.59384">
        <ele>1238.756485</ele>
        <time>2026-08-17T15:33:58Z</time>
      </trkpt>
      <trkpt lat="44.67265" lon="6.59399">
        <ele>1236.006719</ele>
        <time>2026-08-17T15:34:01Z</time>
      </trkpt>
      <trkpt lat="44.67263" lon="6.59412">
        <ele>1234.311094</ele>
        <time>2026-08-17T15:34:02Z</time>
      </trkpt>
      <trkpt lat="44.67269" lon="6.5943">
        <ele>1231.55895</ele>
        <time>2026-08-17T15:34:05Z</time>
      </trkpt>
      <trkpt lat="44.67287" lon="6.59449">
        <ele>1227.305872</ele>
        <time>2026-08-17T15:34:09Z</time>
      </trkpt>
      <trkpt lat="44.67288" lon="6.59456">
        <ele>1226.273845</ele>
        <time>2026-08-17T15:34:10Z</time>
      </trkpt>
      <trkpt lat="44.67284" lon="6.59459">
        <ele>1225.301368</ele>
        <time>2026-08-17T15:34:11Z</time>
      </trkpt>
      <trkpt lat="44.67283" lon="6.59475">
        <ele>1222.950991</ele>
        <time>2026-08-17T15:34:14Z</time>
      </trkpt>
      <trkpt lat="44.67274" lon="6.5949">
        <ele>1219.959808</ele>
        <time>2026-08-17T15:34:16Z</time>
      </trkpt>
      <trkpt lat="44.67266" lon="6.59511">
        <ele>1216.540982</ele>
        <time>2026-08-17T15:34:20Z</time>
      </trkpt>
      <trkpt lat="44.67257" lon="6.59521">
        <ele>1214.192975</ele>
        <time>2026-08-17T15:34:22Z</time>
      </trkpt>
      <trkpt lat="44.67249" lon="6.59538">
        <ele>1211.244582</ele>
        <time>2026-08-17T15:34:25Z</time>
      </trkpt>
      <trkpt lat="44.6725" lon="6.59552">
        <ele>1209.168206</ele>
        <time>2026-08-17T15:34:27Z</time>
      </trkpt>
      <trkpt lat="44.67254" lon="6.59556">
        <ele>1208.245122</ele>
        <time>2026-08-17T15:34:27Z</time>
      </trkpt>
      <trkpt lat="44.67278" lon="6.59565">
        <ele>1203.054535</ele>
        <time>2026-08-17T15:34:32Z</time>
      </trkpt>
      <trkpt lat="44.67308" lon="6.59573">
        <ele>1196.719716</ele>
        <time>2026-08-17T15:34:38Z</time>
      </trkpt>
      <trkpt lat="44.67355" lon="6.5956">
        <ele>1185.433927</ele>
        <time>2026-08-17T15:34:48Z</time>
      </trkpt>
      <trkpt lat="44.67368" lon="6.59565">
        <ele>1181.506933</ele>
        <time>2026-08-17T15:34:50Z</time>
      </trkpt>
      <trkpt lat="44.67399" lon="6.5957">
        <ele>1172.398083</ele>
        <time>2026-08-17T15:34:56Z</time>
      </trkpt>
      <trkpt lat="44.67404" lon="6.59575">
        <ele>1170.643808</ele>
        <time>2026-08-17T15:34:58Z</time>
      </trkpt>
      <trkpt lat="44.67404" lon="6.59582">
        <ele>1169.250942</ele>
        <time>2026-08-17T15:34:58Z</time>
      </trkpt>
      <trkpt lat="44.67403" lon="6.59585">
        <ele>1168.467803</ele>
        <time>2026-08-17T15:34:59Z</time>
      </trkpt>
      <trkpt lat="44.67394" lon="6.59591">
        <ele>1165.599281</ele>
        <time>2026-08-17T15:35:01Z</time>
      </trkpt>
      <trkpt lat="44.67383" lon="6.59612">
        <ele>1160.168426</ele>
        <time>2026-08-17T15:35:05Z</time>
      </trkpt>
      <trkpt lat="44.67366" lon="6.5963">
        <ele>1154.098548</ele>
        <time>2026-08-17T15:35:09Z</time>
      </trkpt>
      <trkpt lat="44.67364" lon="6.59642">
        <ele>1151.575048</ele>
        <time>2026-08-17T15:35:10Z</time>
      </trkpt>
      <trkpt lat="44.67369" lon="6.59654">
        <ele>1148.564626</ele>
        <time>2026-08-17T15:35:12Z</time>
      </trkpt>
      <trkpt lat="44.67387" lon="6.59671">
        <ele>1142.275211</ele>
        <time>2026-08-17T15:35:17Z</time>
      </trkpt>
      <trkpt lat="44.67406" lon="6.597">
        <ele>1134.30972</ele>
        <time>2026-08-17T15:35:22Z</time>
      </trkpt>
      <trkpt lat="44.67407" lon="6.59707">
        <ele>1132.959003</ele>
        <time>2026-08-17T15:35:23Z</time>
      </trkpt>
      <trkpt lat="44.67404" lon="6.59715">
        <ele>1131.140969</ele>
        <time>2026-08-17T15:35:25Z</time>
      </trkpt>
      <trkpt lat="44.67399" lon="6.5972">
        <ele>1129.414219</ele>
        <time>2026-08-17T15:35:26Z</time>
      </trkpt>
      <trkpt lat="44.67396" lon="6.5973">
        <ele>1127.272314</ele>
        <time>2026-08-17T15:35:27Z</time>
      </trkpt>
      <trkpt lat="44.67398" lon="6.59741">
        <ele>1125.097025</ele>
        <time>2026-08-17T15:35:29Z</time>
      </trkpt>
      <trkpt lat="44.67427" lon="6.59783">
        <ele>1113.824118</ele>
        <time>2026-08-17T15:35:37Z</time>
      </trkpt>
      <trkpt lat="44.67411" lon="6.59768">
        <ele>1108.656635</ele>
        <time>2026-08-17T15:35:40Z</time>
      </trkpt>
      <trkpt lat="44.67385" lon="6.59757">
        <ele>1101.18343</ele>
        <time>2026-08-17T15:35:46Z</time>
      </trkpt>
      <trkpt lat="44.67375" lon="6.59763">
        <ele>1098.088056</ele>
        <time>2026-08-17T15:35:48Z</time>
      </trkpt>
      <trkpt lat="44.67385" lon="6.59781">
        <ele>1093.603573</ele>
        <time>2026-08-17T15:35:51Z</time>
      </trkpt>
      <trkpt lat="44.67387" lon="6.59793">
        <ele>1091.09222</ele>
        <time>2026-08-17T15:35:53Z</time>
      </trkpt>
      <trkpt lat="44.67374" lon="6.59788">
        <ele>1087.480341</ele>
        <time>2026-08-17T15:35:55Z</time>
      </trkpt>
      <trkpt lat="44.67375" lon="6.59794">
        <ele>1086.608156</ele>
        <time>2026-08-17T15:35:56Z</time>
      </trkpt>
      <trkpt lat="44.67369" lon="6.59797">
        <ele>1085.130916</ele>
        <time>2026-08-17T15:35:57Z</time>
      </trkpt>
      <trkpt lat="44.67362" lon="6.59791">
        <ele>1083.364355</ele>
        <time>2026-08-17T15:35:59Z</time>
      </trkpt>
      <trkpt lat="44.67369" lon="6.59817">
        <ele>1079.00307</ele>
        <time>2026-08-17T15:36:03Z</time>
      </trkpt>
      <trkpt lat="44.67371" lon="6.59836">
        <ele>1075.891153</ele>
        <time>2026-08-17T15:36:05Z</time>
      </trkpt>
      <trkpt lat="44.67363" lon="6.59831">
        <ele>1073.993673</ele>
        <time>2026-08-17T15:36:07Z</time>
      </trkpt>
      <trkpt lat="44.6736" lon="6.59837">
        <ele>1072.710355</ele>
        <time>2026-08-17T15:36:08Z</time>
      </trkpt>
      <trkpt lat="44.67366" lon="6.59848">
        <ele>1070.46643</ele>
        <time>2026-08-17T15:36:10Z</time>
      </trkpt>
      <trkpt lat="44.67363" lon="6.5985">
        <ele>1069.696778</ele>
        <time>2026-08-17T15:36:11Z</time>
      </trkpt>
      <trkpt lat="44.67366" lon="6.59858">
        <ele>1068.315698</ele>
        <time>2026-08-17T15:36:12Z</time>
      </trkpt>
      <trkpt lat="44.67363" lon="6.59861">
        <ele>1067.500904</ele>
        <time>2026-08-17T15:36:13Z</time>
      </trkpt>
      <trkpt lat="44.67352" lon="6.59858">
        <ele>1064.972676</ele>
        <time>2026-08-17T15:36:15Z</time>
      </trkpt>
      <trkpt lat="44.67354" lon="6.5988">
        <ele>1061.495286</ele>
        <time>2026-08-17T15:36:18Z</time>
      </trkpt>
      <trkpt lat="44.67346" lon="6.59881">
        <ele>1059.690053</ele>
        <time>2026-08-17T15:36:20Z</time>
      </trkpt>
      <trkpt lat="44.67353" lon="6.59897">
        <ele>1056.775388</ele>
        <time>2026-08-17T15:36:22Z</time>
      </trkpt>
      <trkpt lat="44.67343" lon="6.59895">
        <ele>1054.584798</ele>
        <time>2026-08-17T15:36:24Z</time>
      </trkpt>
      <trkpt lat="44.67355" lon="6.59906">
        <ele>1051.444281</ele>
        <time>2026-08-17T15:36:27Z</time>
      </trkpt>
      <trkpt lat="44.67361" lon="6.59916">
        <ele>1049.405776</ele>
        <time>2026-08-17T15:36:29Z</time>
      </trkpt>
      <trkpt lat="44.67355" lon="6.59927">
        <ele>1047.321427</ele>
        <time>2026-08-17T15:36:30Z</time>
      </trkpt>
      <trkpt lat="44.67332" lon="6.59897">
        <ele>1041.72969</ele>
        <time>2026-08-17T15:36:37Z</time>
      </trkpt>
      <trkpt lat="44.67323" lon="6.59892">
        <ele>1040.111494</ele>
        <time>2026-08-17T15:36:39Z</time>
      </trkpt>
      <trkpt lat="44.67302" lon="6.59888">
        <ele>1036.42061</ele>
        <time>2026-08-17T15:36:43Z</time>
      </trkpt>
      <trkpt lat="44.67276" lon="6.59908">
        <ele>1031.250329</ele>
        <time>2026-08-17T15:36:49Z</time>
      </trkpt>
      <trkpt lat="44.67257" lon="6.59932">
        <ele>1026.713644</ele>
        <time>2026-08-17T15:36:54Z</time>
      </trkpt>
      <trkpt lat="44.67222" lon="6.59955">
        <ele>1020.00666</ele>
        <time>2026-08-17T15:37:02Z</time>
      </trkpt>
      <trkpt lat="44.6722" lon="6.59956">
        <ele>1019.593564</ele>
        <time>2026-08-17T15:37:02Z</time>
      </trkpt>
      <trkpt lat="44.67207" lon="6.59988">
        <ele>1014.568162</ele>
        <time>2026-08-17T15:37:07Z</time>
      </trkpt>
      <trkpt lat="44.67192" lon="6.60005">
        <ele>1009.660686</ele>
        <time>2026-08-17T15:37:11Z</time>
      </trkpt>
      <trkpt lat="44.67168" lon="6.6001">
        <ele>1003.831498</ele>
        <time>2026-08-17T15:37:16Z</time>
      </trkpt>
      <trkpt lat="44.6716" lon="6.60015">
        <ele>1001.45176</ele>
        <time>2026-08-17T15:37:18Z</time>
      </trkpt>
      <trkpt lat="44.67143" lon="6.60004">
        <ele>996.835988</ele>
        <time>2026-08-17T15:37:21Z</time>
      </trkpt>
      <trkpt lat="44.6713" lon="6.60022">
        <ele>992.41879</ele>
        <time>2026-08-17T15:37:25Z</time>
      </trkpt>
      <trkpt lat="44.67121" lon="6.60031">
        <ele>989.548086</ele>
        <time>2026-08-17T15:37:27Z</time>
      </trkpt>
      <trkpt lat="44.67112" lon="6.60049">
        <ele>985.668882</ele>
        <time>2026-08-17T15:37:30Z</time>
      </trkpt>
      <trkpt lat="44.67101" lon="6.60052">
        <ele>983.016702</ele>
        <time>2026-08-17T15:37:32Z</time>
      </trkpt>
      <trkpt lat="44.67093" lon="6.60062">
        <ele>980.269844</ele>
        <time>2026-08-17T15:37:34Z</time>
      </trkpt>
      <trkpt lat="44.67078" lon="6.60061">
        <ele>976.525232</ele>
        <time>2026-08-17T15:37:37Z</time>
      </trkpt>
      <trkpt lat="44.67073" lon="6.60077">
        <ele>973.461952</ele>
        <time>2026-08-17T15:37:40Z</time>
      </trkpt>
      <trkpt lat="44.67063" lon="6.60089">
        <ele>970.558187</ele>
        <time>2026-08-17T15:37:42Z</time>
      </trkpt>
      <trkpt lat="44.67048" lon="6.60087">
        <ele>967.710619</ele>
        <time>2026-08-17T15:37:45Z</time>
      </trkpt>
      <trkpt lat="44.67035" lon="6.6008">
        <ele>964.950359</ele>
        <time>2026-08-17T15:37:48Z</time>
      </trkpt>
      <trkpt lat="44.67029" lon="6.60085">
        <ele>963.495758</ele>
        <time>2026-08-17T15:37:49Z</time>
      </trkpt>
      <trkpt lat="44.67021" lon="6.60076">
        <ele>961.567891</ele>
        <time>2026-08-17T15:37:51Z</time>
      </trkpt>
      <trkpt lat="44.6701" lon="6.60068">
        <ele>959.201921</ele>
        <time>2026-08-17T15:37:53Z</time>
      </trkpt>
      <trkpt lat="44.66999" lon="6.60068">
        <ele>957.125104</ele>
        <time>2026-08-17T15:37:55Z</time>
      </trkpt>
      <trkpt lat="44.66993" lon="6.60074">
        <ele>955.619814</ele>
        <time>2026-08-17T15:37:57Z</time>
      </trkpt>
      <trkpt lat="44.67044" lon="6.60129">
        <ele>943.062529</ele>
        <time>2026-08-17T15:38:04Z</time>
      </trkpt>
      <trkpt lat="44.67035" lon="6.60131">
        <ele>941.298821</ele>
        <time>2026-08-17T15:38:06Z</time>
      </trkpt>
      <trkpt lat="44.67023" lon="6.60127">
        <ele>938.849303</ele>
        <time>2026-08-17T15:38:09Z</time>
      </trkpt>
      <trkpt lat="44.67006" lon="6.60128">
        <ele>935.785089</ele>
        <time>2026-08-17T15:38:12Z</time>
      </trkpt>
      <trkpt lat="44.66991" lon="6.60121">
        <ele>932.976095</ele>
        <time>2026-08-17T15:38:15Z</time>
      </trkpt>
      <trkpt lat="44.66978" lon="6.6012">
        <ele>930.756841</ele>
        <time>2026-08-17T15:38:18Z</time>
      </trkpt>
      <trkpt lat="44.66994" lon="6.60155">
        <ele>925.661276</ele>
        <time>2026-08-17T15:38:24Z</time>
      </trkpt>
      <trkpt lat="44.67012" lon="6.60171">
        <ele>922.02171</ele>
        <time>2026-08-17T15:38:28Z</time>
      </trkpt>
      <trkpt lat="44.67026" lon="6.6019">
        <ele>918.678705</ele>
        <time>2026-08-17T15:38:32Z</time>
      </trkpt>
      <trkpt lat="44.66989" lon="6.60185">
        <ele>912.194871</ele>
        <time>2026-08-17T15:38:39Z</time>
      </trkpt>
      <trkpt lat="44.6701" lon="6.6022">
        <ele>906.675864</ele>
        <time>2026-08-17T15:38:46Z</time>
      </trkpt>
      <trkpt lat="44.67004" lon="6.60225">
        <ele>905.690138</ele>
        <time>2026-08-17T15:38:47Z</time>
      </trkpt>
      <trkpt lat="44.66985" lon="6.60219">
        <ele>903.489512</ele>
        <time>2026-08-17T15:38:51Z</time>
      </trkpt>
      <trkpt lat="44.67005" lon="6.60294">
        <ele>897.049479</ele>
        <time>2026-08-17T15:39:02Z</time>
      </trkpt>
      <trkpt lat="44.67004" lon="6.60302">
        <ele>896.448788</ele>
        <time>2026-08-17T15:39:04Z</time>
      </trkpt>
      <trkpt lat="44.66998" lon="6.60302">
        <ele>895.791477</ele>
        <time>2026-08-17T15:39:05Z</time>
      </trkpt>
      <trkpt lat="44.6699" lon="6.60298">
        <ele>894.871602</ele>
        <time>2026-08-17T15:39:07Z</time>
      </trkpt>
      <trkpt lat="44.66981" lon="6.603">
        <ele>893.756759</ele>
        <time>2026-08-17T15:39:08Z</time>
      </trkpt>
      <trkpt lat="44.66974" lon="6.60299">
        <ele>893.01116</ele>
        <time>2026-08-17T15:39:09Z</time>
      </trkpt>
      <trkpt lat="44.66966" lon="6.60299">
        <ele>892.048176</ele>
        <time>2026-08-17T15:39:10Z</time>
      </trkpt>
      <trkpt lat="44.6696" lon="6.60303">
        <ele>891.379169</ele>
        <time>2026-08-17T15:39:11Z</time>
      </trkpt>
      <trkpt lat="44.66954" lon="6.60322">
        <ele>889.689155</ele>
        <time>2026-08-17T15:39:13Z</time>
      </trkpt>
      <trkpt lat="44.66953" lon="6.60327">
        <ele>889.317308</ele>
        <time>2026-08-17T15:39:13Z</time>
      </trkpt>
      <trkpt lat="44.66952" lon="6.60334">
        <ele>888.732352</ele>
        <time>2026-08-17T15:39:14Z</time>
      </trkpt>
      <trkpt lat="44.66951" lon="6.60353">
        <ele>887.162233</ele>
        <time>2026-08-17T15:39:16Z</time>
      </trkpt>
      <trkpt lat="44.66952" lon="6.60359">
        <ele>886.66262</ele>
        <time>2026-08-17T15:39:17Z</time>
      </trkpt>
      <trkpt lat="44.66957" lon="6.60371">
        <ele>885.606607</ele>
        <time>2026-08-17T15:39:18Z</time>
      </trkpt>
      <trkpt lat="44.66945" lon="6.604">
        <ele>885.167038</ele>
        <time>2026-08-17T15:39:21Z</time>
      </trkpt>
      <trkpt lat="44.66941" lon="6.60418">
        <ele>884.9222</ele>
        <time>2026-08-17T15:39:23Z</time>
      </trkpt>
      <trkpt lat="44.66937" lon="6.60467">
        <ele>884.291419</ele>
        <time>2026-08-17T15:39:28Z</time>
      </trkpt>
      <trkpt lat="44.66939" lon="6.60488">
        <ele>884.011193</ele>
        <time>2026-08-17T15:39:31Z</time>
      </trkpt>
      <trkpt lat="44.66943" lon="6.60524">
        <ele>883.542033</ele>
        <time>2026-08-17T15:39:35Z</time>
      </trkpt>
      <trkpt lat="44.66945" lon="6.60548">
        <ele>883.220873</ele>
        <time>2026-08-17T15:39:38Z</time>
      </trkpt>
      <trkpt lat="44.6697" lon="6.60756">
        <ele>882.849078</ele>
        <time>2026-08-17T15:40:12Z</time>
      </trkpt>
      <trkpt lat="44.66987" lon="6.60754">
        <ele>882.934761</ele>
        <time>2026-08-17T15:40:18Z</time>
      </trkpt>
      <trkpt lat="44.66991" lon="6.60757">
        <ele>882.961586</ele>
        <time>2026-08-17T15:40:19Z</time>
      </trkpt>
      <trkpt lat="44.66997" lon="6.60763">
        <ele>882.996675</ele>
        <time>2026-08-17T15:40:22Z</time>
      </trkpt>
      <trkpt lat="44.67022" lon="6.60812">
        <ele>883.218629</ele>
        <time>2026-08-17T15:40:37Z</time>
      </trkpt>
      <trkpt lat="44.67049" lon="6.60856">
        <ele>883.537662</ele>
        <time>2026-08-17T15:40:50Z</time>
      </trkpt>
      <trkpt lat="44.67084" lon="6.60907">
        <ele>883.969653</ele>
        <time>2026-08-17T15:41:08Z</time>
      </trkpt>
      <trkpt lat="44.67096" lon="6.6092">
        <ele>884.095107</ele>
        <time>2026-08-17T15:41:13Z</time>
      </trkpt>
      <trkpt lat="44.67114" lon="6.60933">
        <ele>884.26228</ele>
        <time>2026-08-17T15:41:20Z</time>
      </trkpt>
      <trkpt lat="44.67139" lon="6.60945">
        <ele>884.486248</ele>
        <time>2026-08-17T15:41:30Z</time>
      </trkpt>
      <trkpt lat="44.67156" lon="6.60948">
        <ele>884.630973</ele>
        <time>2026-08-17T15:41:37Z</time>
      </trkpt>
      <trkpt lat="44.67085" lon="6.61068">
        <ele>885.860971</ele>
        <time>2026-08-17T15:42:06Z</time>
      </trkpt>
      <trkpt lat="44.67041" lon="6.61153">
        <ele>886.729913</ele>
        <time>2026-08-17T15:42:24Z</time>
      </trkpt>
      <trkpt lat="44.67031" lon="6.61168">
        <ele>886.874611</ele>
        <time>2026-08-17T15:42:28Z</time>
      </trkpt>
      <trkpt lat="44.67028" lon="6.61177">
        <ele>886.919806</ele>
        <time>2026-08-17T15:42:29Z</time>
      </trkpt>
      <trkpt lat="44.67015" lon="6.61196">
        <ele>887.047502</ele>
        <time>2026-08-17T15:42:33Z</time>
      </trkpt>
      <trkpt lat="44.67015" lon="6.612">
        <ele>887.068561</ele>
        <time>2026-08-17T15:42:34Z</time>
      </trkpt>
      <trkpt lat="44.67005" lon="6.61197">
        <ele>887.138299</ele>
        <time>2026-08-17T15:42:38Z</time>
      </trkpt>
      <trkpt lat="44.66996" lon="6.61198">
        <ele>887.196528</ele>
        <time>2026-08-17T15:42:41Z</time>
      </trkpt>
      <trkpt lat="44.66991" lon="6.612">
        <ele>887.230623</ele>
        <time>2026-08-17T15:42:42Z</time>
      </trkpt>
      <trkpt lat="44.6698" lon="6.61214">
        <ele>887.332171</ele>
        <time>2026-08-17T15:42:48Z</time>
      </trkpt>
      <trkpt lat="44.66963" lon="6.61261">
        <ele>887.587866</ele>
        <time>2026-08-17T15:43:01Z</time>
      </trkpt>
      <trkpt lat="44.6694" lon="6.61316">
        <ele>887.897031</ele>
        <time>2026-08-17T15:43:17Z</time>
      </trkpt>
      <trkpt lat="44.66915" lon="6.61358">
        <ele>888.119414</ele>
        <time>2026-08-17T15:43:30Z</time>
      </trkpt>
      <trkpt lat="44.66797" lon="6.61516">
        <ele>888.747052</ele>
        <time>2026-08-17T15:44:24Z</time>
      </trkpt>
      <trkpt lat="44.66749" lon="6.61537">
        <ele>889.288493</ele>
        <time>2026-08-17T15:44:42Z</time>
      </trkpt>
      <trkpt lat="44.66736" lon="6.61555">
        <ele>889.496252</ele>
        <time>2026-08-17T15:44:49Z</time>
      </trkpt>
      <trkpt lat="44.66705" lon="6.61649">
        <ele>890.313768</ele>
        <time>2026-08-17T15:45:17Z</time>
      </trkpt>
      <trkpt lat="44.66689" lon="6.61673">
        <ele>890.583191</ele>
        <time>2026-08-17T15:45:27Z</time>
      </trkpt>
      <trkpt lat="44.66673" lon="6.61707">
        <ele>890.921014</ele>
        <time>2026-08-17T15:45:38Z</time>
      </trkpt>
      <trkpt lat="44.66609" lon="6.61851">
        <ele>892.389198</ele>
        <time>2026-08-17T15:46:23Z</time>
      </trkpt>
      <trkpt lat="44.66516" lon="6.61989">
        <ele>894.254481</ele>
        <time>2026-08-17T15:47:15Z</time>
      </trkpt>
      <trkpt lat="44.66497" lon="6.62023">
        <ele>894.716193</ele>
        <time>2026-08-17T15:47:27Z</time>
      </trkpt>
      <trkpt lat="44.66491" lon="6.62038">
        <ele>894.891991</ele>
        <time>2026-08-17T15:47:32Z</time>
      </trkpt>
      <trkpt lat="44.66493" lon="6.62055">
        <ele>895.068857</ele>
        <time>2026-08-17T15:47:36Z</time>
      </trkpt>
      <trkpt lat="44.66507" lon="6.6208">
        <ele>895.401844</ele>
        <time>2026-08-17T15:47:45Z</time>
      </trkpt>
      <trkpt lat="44.66482" lon="6.62111">
        <ele>896.079796</ele>
        <time>2026-08-17T15:47:55Z</time>
      </trkpt>
      <trkpt lat="44.6646" lon="6.62151">
        <ele>896.94714</ele>
        <time>2026-08-17T15:48:05Z</time>
      </trkpt>
      <trkpt lat="44.6639" lon="6.62337">
        <ele>900.50771</ele>
        <time>2026-08-17T15:48:53Z</time>
      </trkpt>
      <trkpt lat="44.66379" lon="6.62373">
        <ele>901.096206</ele>
        <time>2026-08-17T15:49:05Z</time>
      </trkpt>
      <trkpt lat="44.66375" lon="6.62394">
        <ele>901.404059</ele>
        <time>2026-08-17T15:49:11Z</time>
      </trkpt>
      <trkpt lat="44.66375" lon="6.62413">
        <ele>901.694806</ele>
        <time>2026-08-17T15:49:15Z</time>
      </trkpt>
      <trkpt lat="44.66378" lon="6.62429">
        <ele>901.942555</ele>
        <time>2026-08-17T15:49:19Z</time>
      </trkpt>
      <trkpt lat="44.66392" lon="6.62458">
        <ele>902.461024</ele>
        <time>2026-08-17T15:49:25Z</time>
      </trkpt>
      <trkpt lat="44.66417" lon="6.6249">
        <ele>903.15831</ele>
        <time>2026-08-17T15:49:33Z</time>
      </trkpt>
      <trkpt lat="44.66416" lon="6.62496">
        <ele>903.24593</ele>
        <time>2026-08-17T15:49:34Z</time>
      </trkpt>
      <trkpt lat="44.66419" lon="6.625">
        <ele>903.333813</ele>
        <time>2026-08-17T15:49:36Z</time>
      </trkpt>
      <trkpt lat="44.66417" lon="6.62504">
        <ele>903.398032</ele>
        <time>2026-08-17T15:49:37Z</time>
      </trkpt>
      <trkpt lat="44.66382" lon="6.62585">
        <ele>904.559444</ele>
        <time>2026-08-17T15:50:01Z</time>
      </trkpt>
      <trkpt lat="44.66378" lon="6.62587">
        <ele>904.620995</ele>
        <time>2026-08-17T15:50:03Z</time>
      </trkpt>
      <trkpt lat="44.66376" lon="6.62597">
        <ele>904.742818</ele>
        <time>2026-08-17T15:50:06Z</time>
      </trkpt>
      <trkpt lat="44.66348" lon="6.62654">
        <ele>905.536989</ele>
        <time>2026-08-17T15:50:15Z</time>
      </trkpt>
      <trkpt lat="44.66334" lon="6.62673">
        <ele>905.844936</ele>
        <time>2026-08-17T15:50:20Z</time>
      </trkpt>
      <trkpt lat="44.6631" lon="6.62687">
        <ele>906.258344</ele>
        <time>2026-08-17T15:50:29Z</time>
      </trkpt>
      <trkpt lat="44.66223" lon="6.62726">
        <ele>909.743457</ele>
        <time>2026-08-17T15:51:07Z</time>
      </trkpt>
      <trkpt lat="44.66207" lon="6.62736">
        <ele>910.562127</ele>
        <time>2026-08-17T15:51:14Z</time>
      </trkpt>
      <trkpt lat="44.66116" lon="6.62823">
        <ele>915.585776</ele>
        <time>2026-08-17T15:52:02Z</time>
      </trkpt>
      <trkpt lat="44.66074" lon="6.62845">
        <ele>917.742969</ele>
        <time>2026-08-17T15:52:22Z</time>
      </trkpt>
      <trkpt lat="44.66058" lon="6.62856">
        <ele>918.605643</ele>
        <time>2026-08-17T15:52:30Z</time>
      </trkpt>
      <trkpt lat="44.66036" lon="6.62883">
        <ele>919.990443</ele>
        <time>2026-08-17T15:52:42Z</time>
      </trkpt>
      <trkpt lat="44.66024" lon="6.62903">
        <ele>920.850647</ele>
        <time>2026-08-17T15:52:49Z</time>
      </trkpt>
      <trkpt lat="44.65996" lon="6.62962">
        <ele>923.280007</ele>
        <time>2026-08-17T15:53:12Z</time>
      </trkpt>
      <trkpt lat="44.65982" lon="6.63005">
        <ele>924.746534</ele>
        <time>2026-08-17T15:53:27Z</time>
      </trkpt>
      <trkpt lat="44.65978" lon="6.63039">
        <ele>925.803085</ele>
        <time>2026-08-17T15:53:38Z</time>
      </trkpt>
      <trkpt lat="44.65976" lon="6.63046">
        <ele>926.03553</ele>
        <time>2026-08-17T15:53:40Z</time>
      </trkpt>
      <trkpt lat="44.65968" lon="6.63081">
        <ele>927.161462</ele>
        <time>2026-08-17T15:53:51Z</time>
      </trkpt>
      <trkpt lat="44.65965" lon="6.63092">
        <ele>927.510235</ele>
        <time>2026-08-17T15:53:54Z</time>
      </trkpt>
      <trkpt lat="44.65938" lon="6.63169">
        <ele>930.146555</ele>
        <time>2026-08-17T15:54:20Z</time>
      </trkpt>
      <trkpt lat="44.659" lon="6.63236">
        <ele>932.856288</ele>
        <time>2026-08-17T15:54:45Z</time>
      </trkpt>
      <trkpt lat="44.65894" lon="6.63227">
        <ele>933.263311</ele>
        <time>2026-08-17T15:54:49Z</time>
      </trkpt>
      <trkpt lat="44.65853" lon="6.63285">
        <ele>935.930897</ele>
        <time>2026-08-17T15:55:11Z</time>
      </trkpt>
      <trkpt lat="44.65847" lon="6.63301">
        <ele>936.529112</ele>
        <time>2026-08-17T15:55:17Z</time>
      </trkpt>
      <trkpt lat="44.65842" lon="6.63321">
        <ele>937.211384</ele>
        <time>2026-08-17T15:55:24Z</time>
      </trkpt>
      <trkpt lat="44.6584" lon="6.63341">
        <ele>937.896578</ele>
        <time>2026-08-17T15:55:30Z</time>
      </trkpt>
      <trkpt lat="44.65841" lon="6.63358">
        <ele>938.453926</ele>
        <time>2026-08-17T15:55:36Z</time>
      </trkpt>
      <trkpt lat="44.65845" lon="6.63376">
        <ele>939.043509</ele>
        <time>2026-08-17T15:55:42Z</time>
      </trkpt>
      <trkpt lat="44.65855" lon="6.63408">
        <ele>940.226685</ele>
        <time>2026-08-17T15:55:55Z</time>
      </trkpt>
      <trkpt lat="44.65861" lon="6.63422">
        <ele>940.750609</ele>
        <time>2026-08-17T15:56:01Z</time>
      </trkpt>
      <trkpt lat="44.65861" lon="6.6343">
        <ele>941.038519</ele>
        <time>2026-08-17T15:56:04Z</time>
      </trkpt>
      <trkpt lat="44.65872" lon="6.63474">
        <ele>942.552102</ele>
        <time>2026-08-17T15:56:22Z</time>
      </trkpt>
      <trkpt lat="44.6589" lon="6.63505">
        <ele>943.894921</ele>
        <time>2026-08-17T15:56:37Z</time>
      </trkpt>
      <trkpt lat="44.65906" lon="6.63545">
        <ele>945.400805</ele>
        <time>2026-08-17T15:56:53Z</time>
      </trkpt>
      <trkpt lat="44.65911" lon="6.63552">
        <ele>945.725467</ele>
        <time>2026-08-17T15:56:56Z</time>
      </trkpt>
      <trkpt lat="44.6592" lon="6.63557">
        <ele>946.175315</ele>
        <time>2026-08-17T15:57:00Z</time>
      </trkpt>
      <trkpt lat="44.65972" lon="6.63681">
        <ele>948.339254</ele>
        <time>2026-08-17T15:57:33Z</time>
      </trkpt>
      <trkpt lat="44.65984" lon="6.63711">
        <ele>948.536689</ele>
        <time>2026-08-17T15:57:39Z</time>
      </trkpt>
      <trkpt lat="44.65988" lon="6.63729">
        <ele>948.642221</ele>
        <time>2026-08-17T15:57:41Z</time>
      </trkpt>
      <trkpt lat="44.6599" lon="6.63765">
        <ele>948.851132</ele>
        <time>2026-08-17T15:57:46Z</time>
      </trkpt>
      <trkpt lat="44.65986" lon="6.63792">
        <ele>949.010393</ele>
        <time>2026-08-17T15:57:49Z</time>
      </trkpt>
      <trkpt lat="44.65971" lon="6.63797">
        <ele>949.132149</ele>
        <time>2026-08-17T15:57:54Z</time>
      </trkpt>
      <trkpt lat="44.65964" lon="6.63806">
        <ele>949.213224</ele>
        <time>2026-08-17T15:57:57Z</time>
      </trkpt>
      <trkpt lat="44.65963" lon="6.63791">
        <ele>949.231199</ele>
        <time>2026-08-17T15:58:00Z</time>
      </trkpt>
      <trkpt lat="44.65967" lon="6.63771">
        <ele>949.209933</ele>
        <time>2026-08-17T15:58:04Z</time>
      </trkpt>
      <trkpt lat="44.65965" lon="6.63769">
        <ele>949.205915</ele>
        <time>2026-08-17T15:58:05Z</time>
      </trkpt>
      <trkpt lat="44.65957" lon="6.63771">
        <ele>949.194729</ele>
        <time>2026-08-17T15:58:07Z</time>
      </trkpt>
      <trkpt lat="44.65952" lon="6.63776">
        <ele>949.185557</ele>
        <time>2026-08-17T15:58:09Z</time>
      </trkpt>
      <trkpt lat="44.65946" lon="6.63788">
        <ele>949.169842</ele>
        <time>2026-08-17T15:58:12Z</time>
      </trkpt>
      <trkpt lat="44.65925" lon="6.63823">
        <ele>949.122099</ele>
        <time>2026-08-17T15:58:17Z</time>
      </trkpt>
      <trkpt lat="44.65921" lon="6.63837">
        <ele>949.107365</ele>
        <time>2026-08-17T15:58:19Z</time>
      </trkpt>
      <trkpt lat="44.65914" lon="6.63848">
        <ele>949.09123</ele>
        <time>2026-08-17T15:58:21Z</time>
      </trkpt>
      <trkpt lat="44.65895" lon="6.6385">
        <ele>949.063162</ele>
        <time>2026-08-17T15:58:24Z</time>
      </trkpt>
      <trkpt lat="44.65866" lon="6.63839">
        <ele>949.019845</ele>
        <time>2026-08-17T15:58:31Z</time>
      </trkpt>
      <trkpt lat="44.65845" lon="6.63831">
        <ele>948.987844</ele>
        <time>2026-08-17T15:58:37Z</time>
      </trkpt>
      <trkpt lat="44.65865" lon="6.63929">
        <ele>948.978138</ele>
        <time>2026-08-17T15:59:00Z</time>
      </trkpt>
      <trkpt lat="44.65867" lon="6.63964">
        <ele>948.978138</ele>
        <time>2026-08-17T15:59:08Z</time>
      </trkpt>
      <trkpt lat="44.65866" lon="6.64002">
        <ele>948.978138</ele>
        <time>2026-08-17T15:59:17Z</time>
      </trkpt>
      <trkpt lat="44.65871" lon="6.64023">
        <ele>948.978138</ele>
        <time>2026-08-17T15:59:22Z</time>
      </trkpt>
      <trkpt lat="44.65881" lon="6.6403">
        <ele>948.978138</ele>
        <time>2026-08-17T15:59:26Z</time>
      </trkpt>
      <trkpt lat="44.65908" lon="6.64017">
        <ele>948.978138</ele>
        <time>2026-08-17T15:59:34Z</time>
      </trkpt>
      <trkpt lat="44.6593" lon="6.64017">
        <ele>948.978138</ele>
        <time>2026-08-17T15:59:39Z</time>
      </trkpt>
    </trkseg>
  </trk>
</gpx>